Time,TemperatureF,DewpointF,PressureIn,WindDirection,WindDirectionDegrees,WindSpeedMPH,WindSpeedGustMPH,Humidity,HourlyPrecipIn,Conditions,Clouds,dailyrainin,SoftwareType,DateUTC
2013-05-02 00:00:00,66.9,61.2,29.94,NNE,22,0.0,0.0,82,0.50,,,0.00,VWS V14.01,2013-05-02 05:00:00,
2013-05-02 00:01:00,66.9,61.2,29.94,NNE,22,0.9,0.9,82,0.50,,,0.00,VWS V14.01,2013-05-02 05:01:00,
2013-05-02 00:02:00,66.9,61.2,29.94,NNE,22,0.0,0.9,82,0.50,,,0.00,VWS V14.01,2013-05-02 05:02:00,
2013-05-02 00:03:00,66.9,61.2,29.94,NNE,22,0.0,0.0,82,0.46,,,0.00,VWS V14.01,2013-05-02 05:03:00,
2013-05-02 00:04:00,66.9,61.2,29.94,NNE,22,0.0,0.0,82,0.42,,,0.00,VWS V14.01,2013-05-02 05:04:00,
2013-05-02 00:05:00,66.9,61.2,29.94,North,0,0.0,1.3,82,0.42,,,0.00,VWS V14.01,2013-05-02 05:05:00,
2013-05-02 00:06:00,66.9,61.2,29.94,North,0,0.0,0.0,82,0.42,,,0.00,VWS V14.01,2013-05-02 05:06:00,
2013-05-02 00:07:00,66.9,61.2,29.94,North,0,0.0,0.0,82,0.37,,,0.00,VWS V14.01,2013-05-02 05:07:00,
2013-05-02 00:08:00,66.9,61.2,29.94,WNW,292,0.0,0.0,82,0.37,,,0.00,VWS V14.01,2013-05-02 05:08:00,
2013-05-02 00:09:00,66.9,61.2,29.94,WNW,292,0.0,0.0,82,0.37,,,0.00,VWS V14.01,2013-05-02 05:09:00,
2013-05-02 00:10:00,66.7,61.1,29.94,WNW,292,0.0,0.0,82,0.37,,,0.00,VWS V14.01,2013-05-02 05:10:00,
2013-05-02 00:11:00,66.7,61.1,29.94,WNW,292,0.9,0.9,82,0.33,,,0.00,VWS V14.01,2013-05-02 05:11:00,
2013-05-02 00:12:00,66.7,61.1,29.94,WNW,292,0.0,0.9,82,0.33,,,0.00,VWS V14.01,2013-05-02 05:12:00,
2013-05-02 00:13:00,66.7,61.1,29.94,WNW,292,0.0,0.0,82,0.33,,,0.00,VWS V14.01,2013-05-02 05:13:00,
2013-05-02 00:14:00,66.7,61.1,29.94,WNW,292,0.0,0.0,82,0.37,,,0.04,VWS V14.01,2013-05-02 05:14:00,
2013-05-02 00:15:00,66.7,61.1,29.94,WSW,248,0.0,0.0,82,0.33,,,0.04,VWS V14.01,2013-05-02 05:15:00,
2013-05-02 00:16:00,66.7,61.1,29.94,SSW,202,0.0,0.0,82,0.33,,,0.04,VWS V14.01,2013-05-02 05:16:00,
2013-05-02 00:17:00,66.7,61.4,29.94,South,180,0.0,0.9,83,0.33,,,0.04,VWS V14.01,2013-05-02 05:17:00,
2013-05-02 00:18:00,66.6,61.2,29.97,South,180,0.9,0.9,83,0.33,,,0.04,VWS V14.01,2013-05-02 05:18:00,
2013-05-02 00:19:00,66.7,61.4,29.97,South,180,0.9,0.9,83,0.33,,,0.04,VWS V14.01,2013-05-02 05:19:00,
2013-05-02 00:20:00,66.7,61.4,29.97,SSE,158,0.0,1.3,83,0.33,,,0.04,VWS V14.01,2013-05-02 05:20:00,
2013-05-02 00:21:00,66.7,61.4,29.97,SSW,202,0.0,0.0,83,0.37,,,0.08,VWS V14.01,2013-05-02 05:21:00,
2013-05-02 00:22:00,66.6,61.2,29.97,WSW,248,1.6,1.6,83,0.33,,,0.08,VWS V14.01,2013-05-02 05:22:00,
2013-05-02 00:23:00,66.6,61.6,29.97,SSW,202,3.4,11.0,84,0.37,,,0.12,VWS V14.01,2013-05-02 05:23:00,
2013-05-02 00:24:00,66.6,61.6,29.97,SE,135,1.1,3.4,84,0.42,,,0.17,VWS V14.01,2013-05-02 05:24:00,
2013-05-02 00:25:00,66.6,61.6,29.97,SSW,202,1.1,1.3,84,0.38,,,0.17,VWS V14.01,2013-05-02 05:25:00,
2013-05-02 00:26:00,66.6,61.6,29.97,SW,225,1.6,2.2,84,0.46,,,0.25,VWS V14.01,2013-05-02 05:26:00,
2013-05-02 00:27:00,66.4,61.4,29.97,WSW,248,0.0,4.9,84,0.42,,,0.25,VWS V14.01,2013-05-02 05:27:00,
2013-05-02 00:28:00,66.6,61.6,29.97,South,180,1.3,1.3,84,0.50,,,0.33,VWS V14.01,2013-05-02 05:28:00,
2013-05-02 00:29:00,66.6,61.6,29.97,SSW,202,1.3,2.7,84,0.50,,,0.37,VWS V14.01,2013-05-02 05:29:00,
2013-05-02 00:30:00,66.6,61.6,29.97,South,180,0.0,1.3,84,0.54,,,0.41,VWS V14.01,2013-05-02 05:30:00,
2013-05-02 00:31:00,66.6,61.6,29.97,SE,135,2.2,2.2,84,0.54,,,0.41,VWS V14.01,2013-05-02 05:31:00,
2013-05-02 00:32:00,66.6,61.6,29.97,South,180,0.0,2.2,84,0.59,,,0.46,VWS V14.01,2013-05-02 05:32:00,
2013-05-02 00:33:00,66.6,61.6,29.97,SE,135,2.9,2.9,84,0.59,,,0.46,VWS V14.01,2013-05-02 05:33:00,
2013-05-02 00:34:00,66.6,61.6,29.97,SE,135,2.7,4.3,84,0.58,,,0.50,VWS V14.01,2013-05-02 05:34:00,
2013-05-02 00:35:00,66.6,61.6,29.97,ESE,112,0.9,2.9,84,0.58,,,0.50,VWS V14.01,2013-05-02 05:35:00,
2013-05-02 00:36:00,66.6,61.6,29.97,ESE,112,2.5,2.7,84,0.54,,,0.50,VWS V14.01,2013-05-02 05:36:00,
2013-05-02 00:37:00,66.6,61.6,29.97,SE,135,2.5,2.5,84,0.58,,,0.54,VWS V14.01,2013-05-02 05:37:00,
2013-05-02 00:38:00,66.6,61.6,29.97,SSE,158,0.0,2.5,84,0.58,,,0.54,VWS V14.01,2013-05-02 05:38:00,
2013-05-02 00:39:00,66.6,61.6,29.97,SSW,202,2.2,2.7,84,0.62,,,0.58,VWS V14.01,2013-05-02 05:39:00,
2013-05-02 00:40:00,66.2,61.2,29.97,West,270,0.0,2.2,84,0.66,,,0.62,VWS V14.01,2013-05-02 05:40:00,
2013-05-02 00:41:00,66.2,61.2,29.97,WSW,248,0.0,1.6,84,0.70,,,0.66,VWS V14.01,2013-05-02 05:41:00,
2013-05-02 00:42:00,66.2,61.2,29.97,West,270,0.0,0.0,84,0.70,,,0.66,VWS V14.01,2013-05-02 05:42:00,
2013-05-02 00:43:00,66.2,61.2,29.97,WSW,248,1.3,1.3,84,0.75,,,0.71,VWS V14.01,2013-05-02 05:43:00,
2013-05-02 00:44:00,66.2,61.2,29.97,SE,135,0.0,3.1,84,0.75,,,0.71,VWS V14.01,2013-05-02 05:44:00,
2013-05-02 00:45:00,66.2,61.2,29.97,SSW,202,2.7,2.7,84,0.75,,,0.71,VWS V14.01,2013-05-02 05:45:00,
2013-05-02 00:46:00,66.2,61.2,29.97,SW,225,0.9,4.0,84,0.79,,,0.75,VWS V14.01,2013-05-02 05:46:00,
2013-05-02 00:47:00,65.8,60.9,29.97,SSW,202,2.2,2.9,84,0.79,,,0.75,VWS V14.01,2013-05-02 05:47:00,
2013-05-02 00:48:00,65.8,60.9,29.97,WSW,248,1.1,2.2,84,0.83,,,0.79,VWS V14.01,2013-05-02 05:48:00,
2013-05-02 00:50:00,65.8,60.9,29.97,SSW,202,0.0,1.1,84,0.83,,,0.79,VWS V14.01,2013-05-02 05:50:00,
2013-05-02 00:51:00,65.8,60.9,29.97,SSE,158,0.0,0.0,84,0.83,,,0.79,VWS V14.01,2013-05-02 05:51:00,
2013-05-02 00:52:00,65.8,60.9,29.97,ESE,112,0.0,0.0,84,0.83,,,0.79,VWS V14.01,2013-05-02 05:52:00,
2013-05-02 00:53:00,65.8,60.9,29.97,ESE,112,0.0,0.0,84,0.83,,,0.79,VWS V14.01,2013-05-02 05:53:00,
2013-05-02 00:54:00,66.2,61.2,29.97,ENE,68,1.6,1.6,84,1.12,,,1.08,VWS V14.01,2013-05-02 05:54:00,
2013-05-02 00:55:00,66.4,61.4,29.97,East,90,0.0,2.5,84,1.16,,,1.12,VWS V14.01,2013-05-02 05:55:00,
2013-05-02 00:56:00,66.4,61.4,29.97,East,90,1.1,2.0,84,1.16,,,1.12,VWS V14.01,2013-05-02 05:56:00,
2013-05-02 00:57:00,66.4,61.4,29.97,ENE,68,2.7,2.7,84,1.16,,,1.12,VWS V14.01,2013-05-02 05:57:00,
2013-05-02 00:58:00,66.4,61.4,29.97,ENE,68,1.6,2.7,84,1.16,,,1.16,VWS V14.01,2013-05-02 05:58:00,
2013-05-02 00:59:00,66.6,61.6,29.97,ENE,68,2.2,3.1,84,1.16,,,1.16,VWS V14.01,2013-05-02 05:59:00,
2013-05-02 01:00:00,66.6,61.6,29.97,East,90,2.2,2.2,84,1.16,,,1.16,VWS V14.01,2013-05-02 06:00:00,
2013-05-02 01:01:00,66.7,61.8,29.97,East,90,0.0,2.2,84,1.16,,,1.16,VWS V14.01,2013-05-02 06:01:00,
2013-05-02 01:02:00,66.7,61.8,29.97,East,90,0.0,0.0,84,1.16,,,1.16,VWS V14.01,2013-05-02 06:02:00,
2013-05-02 01:03:00,66.6,61.6,29.97,South,180,0.0,1.1,84,1.16,,,1.16,VWS V14.01,2013-05-02 06:03:00,
2013-05-02 01:04:00,66.6,61.6,29.97,South,180,2.2,2.2,84,1.16,,,1.16,VWS V14.01,2013-05-02 06:04:00,
2013-05-02 01:05:00,66.6,61.6,29.97,South,180,0.9,2.2,84,1.21,,,1.21,VWS V14.01,2013-05-02 06:05:00,
2013-05-02 01:06:00,66.6,61.6,29.97,SSE,158,0.9,0.9,84,1.21,,,1.21,VWS V14.01,2013-05-02 06:06:00,
2013-05-02 01:07:00,66.6,61.6,29.97,SSE,158,0.0,0.9,84,1.24,,,1.24,VWS V14.01,2013-05-02 06:07:00,
2013-05-02 01:08:00,66.6,61.6,29.97,SSE,158,1.1,1.3,84,1.24,,,1.24,VWS V14.01,2013-05-02 06:08:00,
2013-05-02 01:09:00,66.6,61.6,29.97,ESE,112,0.0,2.5,84,1.29,,,1.29,VWS V14.01,2013-05-02 06:09:00,
2013-05-02 01:10:00,66.6,61.6,29.97,ESE,112,0.0,0.0,84,1.29,,,1.29,VWS V14.01,2013-05-02 06:10:00,
2013-05-02 01:11:00,66.6,61.6,29.97,ESE,112,0.0,0.0,84,1.29,,,1.29,VWS V14.01,2013-05-02 06:11:00,
2013-05-02 01:12:00,66.6,61.6,29.97,SE,135,0.0,0.0,84,1.33,,,1.33,VWS V14.01,2013-05-02 06:12:00,
2013-05-02 01:14:00,66.6,61.6,29.97,SE,135,0.0,0.0,84,1.37,,,1.37,VWS V14.01,2013-05-02 06:14:00,
2013-05-02 01:15:00,66.6,61.6,29.97,ESE,112,0.0,0.0,84,1.33,,,1.37,VWS V14.01,2013-05-02 06:15:00,
2013-05-02 01:16:00,66.6,61.6,29.97,ENE,68,1.1,1.1,84,1.33,,,1.37,VWS V14.01,2013-05-02 06:16:00,
2013-05-02 01:17:00,66.7,61.8,29.97,East,90,0.0,1.6,84,1.45,,,1.49,VWS V14.01,2013-05-02 06:17:00,
2013-05-02 01:18:00,66.7,61.8,29.94,ENE,68,0.0,0.0,84,1.45,,,1.49,VWS V14.01,2013-05-02 06:18:00,
2013-05-02 01:19:00,66.7,61.8,29.94,NE,45,3.4,3.4,84,1.45,,,1.49,VWS V14.01,2013-05-02 06:19:00,
2013-05-02 01:20:00,66.7,61.8,29.94,NE,45,1.6,3.6,84,1.50,,,1.54,VWS V14.01,2013-05-02 06:20:00,
2013-05-02 01:21:00,66.7,61.8,29.94,NNE,22,3.4,4.0,84,1.50,,,1.54,VWS V14.01,2013-05-02 06:21:00,
2013-05-02 01:22:00,66.7,61.8,29.94,NNE,22,2.7,3.8,84,1.46,,,1.54,VWS V14.01,2013-05-02 06:22:00,
2013-05-02 01:23:00,66.7,61.8,29.94,NNE,22,0.0,2.7,84,1.46,,,1.54,VWS V14.01,2013-05-02 06:23:00,
2013-05-02 01:24:00,66.7,61.8,29.94,NE,45,0.0,1.1,84,1.46,,,1.58,VWS V14.01,2013-05-02 06:24:00,
2013-05-02 01:25:00,66.7,61.8,29.94,NE,45,0.0,0.0,84,1.41,,,1.58,VWS V14.01,2013-05-02 06:25:00,
2013-05-02 01:26:00,66.7,61.8,29.94,NE,45,0.0,0.0,84,1.41,,,1.58,VWS V14.01,2013-05-02 06:26:00,
2013-05-02 01:27:00,66.6,61.2,29.94,NE,45,1.3,1.3,83,1.33,,,1.58,VWS V14.01,2013-05-02 06:27:00,
2013-05-02 01:28:00,66.6,61.2,29.94,NNE,22,0.9,1.3,83,1.33,,,1.58,VWS V14.01,2013-05-02 06:28:00,
2013-05-02 01:29:00,66.7,61.4,29.94,ENE,68,0.0,1.3,83,1.25,,,1.58,VWS V14.01,2013-05-02 06:29:00,
2013-05-02 01:30:00,66.7,61.4,29.94,NE,45,0.0,0.9,83,1.21,,,1.58,VWS V14.01,2013-05-02 06:30:00,
2013-05-02 01:31:00,66.7,61.4,29.94,NE,45,0.0,0.0,83,1.21,,,1.62,VWS V14.01,2013-05-02 06:31:00,
2013-05-02 01:32:00,66.7,61.4,29.94,SSE,158,0.0,0.0,83,1.21,,,1.62,VWS V14.01,2013-05-02 06:32:00,
2013-05-02 01:33:00,66.6,61.2,29.94,ESE,112,2.0,2.0,83,1.16,,,1.62,VWS V14.01,2013-05-02 06:33:00,
2013-05-02 01:34:00,66.6,61.2,29.94,NNW,338,0.0,2.0,83,1.16,,,1.62,VWS V14.01,2013-05-02 06:34:00,
2013-05-02 01:35:00,66.6,61.2,29.94,NNW,338,0.0,0.9,83,1.16,,,1.66,VWS V14.01,2013-05-02 06:35:00,
2013-05-02 01:36:00,66.4,61.1,29.94,NNW,338,1.3,1.3,83,1.16,,,1.66,VWS V14.01,2013-05-02 06:36:00,
2013-05-02 01:37:00,66.4,61.1,29.94,NNW,338,0.0,1.6,83,1.16,,,1.66,VWS V14.01,2013-05-02 06:37:00,
2013-05-02 01:38:00,66.4,61.1,29.94,NNW,338,0.0,0.0,83,1.16,,,1.70,VWS V14.01,2013-05-02 06:38:00,
2013-05-02 01:39:00,66.4,61.1,29.94,NNE,22,2.0,2.0,83,1.16,,,1.70,VWS V14.01,2013-05-02 06:39:00,
2013-05-02 01:40:00,66.4,61.1,29.94,ENE,68,2.5,2.7,83,1.12,,,1.70,VWS V14.01,2013-05-02 06:40:00,
2013-05-02 01:41:00,66.2,60.9,29.94,East,90,0.0,2.5,83,1.08,,,1.70,VWS V14.01,2013-05-02 06:41:00,
2013-05-02 01:42:00,66.4,61.1,29.94,NE,45,3.1,3.1,83,1.08,,,1.74,VWS V14.01,2013-05-02 06:42:00,
2013-05-02 01:43:00,66.4,61.1,29.94,NNE,22,4.0,4.3,83,1.08,,,1.74,VWS V14.01,2013-05-02 06:43:00,
2013-05-02 01:44:00,66.4,61.1,29.94,NE,45,6.0,6.0,83,1.03,,,1.74,VWS V14.01,2013-05-02 06:44:00,
2013-05-02 01:46:00,66.4,61.1,29.94,NNE,22,3.8,6.0,83,1.03,,,1.74,VWS V14.01,2013-05-02 06:46:00,
2013-05-02 01:47:00,66.4,61.1,29.94,ENE,68,2.9,4.7,83,1.08,,,1.83,VWS V14.01,2013-05-02 06:47:00,
2013-05-02 01:48:00,66.4,61.1,29.94,ENE,68,0.0,2.9,83,1.08,,,1.83,VWS V14.01,2013-05-02 06:48:00,
2013-05-02 01:49:00,66.4,61.1,29.94,ESE,112,0.0,0.0,83,1.04,,,1.83,VWS V14.01,2013-05-02 06:49:00,
2013-05-02 01:50:00,66.4,61.1,29.94,ESE,112,0.0,0.9,83,1.04,,,1.83,VWS V14.01,2013-05-02 06:50:00,
2013-05-02 01:51:00,66.4,61.1,29.94,ESE,112,0.0,0.0,83,1.08,,,1.87,VWS V14.01,2013-05-02 06:51:00,
2013-05-02 01:52:00,66.4,61.1,29.94,SE,135,0.0,0.0,83,1.08,,,1.87,VWS V14.01,2013-05-02 06:52:00,
2013-05-02 01:53:00,66.2,60.9,29.94,SSE,158,0.0,0.0,83,1.16,,,1.95,VWS V14.01,2013-05-02 06:53:00,
2013-05-02 01:54:00,66.2,60.9,29.94,SSE,158,0.0,0.0,83,1.16,,,1.95,VWS V14.01,2013-05-02 06:54:00,
2013-05-02 01:55:00,66.2,60.9,29.94,SSE,158,0.0,0.0,83,0.87,,,1.95,VWS V14.01,2013-05-02 06:55:00,
2013-05-02 01:56:00,66.2,60.9,29.94,SSE,158,0.0,0.0,83,0.87,,,1.99,VWS V14.01,2013-05-02 06:56:00,
2013-05-02 01:57:00,66.2,60.9,29.94,SSE,158,0.0,0.0,83,0.87,,,1.99,VWS V14.01,2013-05-02 06:57:00,
2013-05-02 01:58:00,66.2,60.9,29.94,South,180,0.0,0.0,83,0.91,,,2.03,VWS V14.01,2013-05-02 06:58:00,
2013-05-02 01:59:00,66.2,60.9,29.94,South,180,0.0,0.0,83,0.87,,,2.03,VWS V14.01,2013-05-02 06:59:00,
2013-05-02 02:00:00,66.2,60.9,29.94,South,180,0.0,0.9,83,0.96,,,2.12,VWS V14.01,2013-05-02 07:00:00,
2013-05-02 02:01:00,66.2,60.9,29.94,ESE,112,1.1,1.1,83,1.00,,,2.16,VWS V14.01,2013-05-02 07:01:00,
2013-05-02 02:02:00,66.2,60.9,29.94,SSE,158,0.0,2.7,83,1.04,,,2.20,VWS V14.01,2013-05-02 07:02:00,
2013-05-02 02:03:00,66.2,60.9,29.97,SSE,158,0.0,0.0,83,1.04,,,2.20,VWS V14.01,2013-05-02 07:03:00,
2013-05-02 02:04:00,66.2,60.9,29.97,SSE,158,0.0,1.3,83,1.12,,,2.28,VWS V14.01,2013-05-02 07:04:00,
2013-05-02 02:05:00,66.0,60.7,29.97,SSE,158,1.3,1.3,83,1.12,,,2.28,VWS V14.01,2013-05-02 07:05:00,
2013-05-02 02:06:00,66.0,61.0,29.97,SSE,158,2.0,2.0,84,1.07,,,2.28,VWS V14.01,2013-05-02 07:06:00,
2013-05-02 02:07:00,66.0,61.0,29.97,East,90,0.0,2.2,84,1.16,,,2.37,VWS V14.01,2013-05-02 07:07:00,
2013-05-02 02:08:00,66.0,61.0,29.97,ESE,112,1.1,1.1,84,1.13,,,2.37,VWS V14.01,2013-05-02 07:08:00,
2013-05-02 02:09:00,66.2,60.9,29.97,ESE,112,2.0,2.0,83,1.13,,,2.37,VWS V14.01,2013-05-02 07:09:00,
2013-05-02 02:10:00,65.8,60.9,29.97,SE,135,0.0,2.0,84,1.12,,,2.41,VWS V14.01,2013-05-02 07:10:00,
2013-05-02 02:11:00,65.8,60.9,29.97,ENE,68,2.7,2.7,84,1.20,,,2.49,VWS V14.01,2013-05-02 07:11:00,
2013-05-02 02:12:00,65.8,60.9,29.97,ENE,68,2.7,2.9,84,1.20,,,2.49,VWS V14.01,2013-05-02 07:12:00,
2013-05-02 02:13:00,66.2,60.9,29.97,NNE,22,4.0,4.0,83,1.16,,,2.49,VWS V14.01,2013-05-02 07:13:00,
2013-05-02 02:14:00,66.2,60.9,29.97,NE,45,1.6,4.0,83,1.16,,,2.53,VWS V14.01,2013-05-02 07:14:00,
2013-05-02 02:15:00,66.2,60.9,29.97,ENE,68,2.7,2.7,83,1.16,,,2.53,VWS V14.01,2013-05-02 07:15:00,
2013-05-02 02:16:00,66.2,60.9,29.97,ENE,68,0.0,2.7,83,1.21,,,2.58,VWS V14.01,2013-05-02 07:16:00,
2013-05-02 02:17:00,66.2,60.9,29.97,ENE,68,0.0,0.0,83,1.21,,,2.58,VWS V14.01,2013-05-02 07:17:00,
2013-05-02 02:18:00,66.4,61.1,29.94,NE,45,0.0,0.0,83,1.12,,,2.61,VWS V14.01,2013-05-02 07:18:00,
2013-05-02 02:19:00,66.2,60.9,29.94,NNE,22,0.0,1.3,83,1.12,,,2.61,VWS V14.01,2013-05-02 07:19:00,
2013-05-02 02:20:00,66.2,60.9,29.94,NNE,22,0.0,0.0,83,1.12,,,2.61,VWS V14.01,2013-05-02 07:20:00,
2013-05-02 02:21:00,66.2,60.9,29.94,NNE,22,3.1,3.1,83,1.07,,,2.61,VWS V14.01,2013-05-02 07:21:00,
2013-05-02 02:22:00,66.4,61.1,29.94,NNE,22,4.9,4.9,83,1.12,,,2.66,VWS V14.01,2013-05-02 07:22:00,
2013-05-02 02:23:00,66.4,61.1,29.94,NE,45,3.1,4.9,83,1.12,,,2.66,VWS V14.01,2013-05-02 07:23:00,
2013-05-02 02:24:00,66.4,61.1,29.94,ENE,68,2.7,3.1,83,1.12,,,2.66,VWS V14.01,2013-05-02 07:24:00,
2013-05-02 02:25:00,66.4,61.1,29.94,NE,45,2.5,2.7,83,1.08,,,2.66,VWS V14.01,2013-05-02 07:25:00,
2013-05-02 02:26:00,66.4,61.1,29.94,NNE,22,4.7,4.7,83,1.08,,,2.66,VWS V14.01,2013-05-02 07:26:00,
2013-05-02 02:27:00,66.4,61.1,29.94,NE,45,3.6,4.7,83,1.08,,,2.66,VWS V14.01,2013-05-02 07:27:00,
2013-05-02 02:28:00,66.2,60.9,29.94,ENE,68,1.3,3.6,83,1.08,,,2.66,VWS V14.01,2013-05-02 07:28:00,
2013-05-02 02:29:00,66.2,60.9,29.94,ENE,68,1.6,1.6,83,1.08,,,2.66,VWS V14.01,2013-05-02 07:29:00,
2013-05-02 02:30:00,66.2,60.9,29.94,ENE,68,0.0,2.0,83,1.12,,,2.70,VWS V14.01,2013-05-02 07:30:00,
2013-05-02 02:31:00,66.2,60.9,29.94,ENE,68,0.0,0.0,83,1.12,,,2.70,VWS V14.01,2013-05-02 07:31:00,
2013-05-02 02:32:00,66.2,60.9,29.94,ENE,68,0.0,1.1,83,1.08,,,2.70,VWS V14.01,2013-05-02 07:32:00,
2013-05-02 02:33:00,66.2,60.9,29.94,ENE,68,0.0,0.0,83,1.08,,,2.70,VWS V14.01,2013-05-02 07:33:00,
2013-05-02 02:34:00,66.2,60.9,29.94,ENE,68,1.3,1.3,83,1.08,,,2.70,VWS V14.01,2013-05-02 07:34:00,
2013-05-02 02:35:00,66.2,60.9,29.94,ENE,68,3.6,3.6,83,1.08,,,2.70,VWS V14.01,2013-05-02 07:35:00,
2013-05-02 02:36:00,66.2,60.9,29.94,NE,45,3.4,3.6,83,1.04,,,2.70,VWS V14.01,2013-05-02 07:36:00,
2013-05-02 02:37:00,66.2,60.9,29.94,NNE,22,3.8,4.3,83,1.04,,,2.70,VWS V14.01,2013-05-02 07:37:00,
2013-05-02 02:38:00,66.2,60.9,29.94,North,0,2.7,4.3,83,1.04,,,2.70,VWS V14.01,2013-05-02 07:38:00,
2013-05-02 02:39:00,66.2,60.9,29.94,NNE,22,2.7,2.7,83,1.00,,,2.70,VWS V14.01,2013-05-02 07:39:00,
2013-05-02 02:40:00,66.4,61.1,29.94,NE,45,2.2,2.7,83,1.00,,,2.70,VWS V14.01,2013-05-02 07:40:00,
2013-05-02 02:41:00,66.4,61.1,29.94,NE,45,2.7,2.7,83,1.00,,,2.70,VWS V14.01,2013-05-02 07:41:00,
2013-05-02 02:42:00,66.2,60.9,29.94,ENE,68,1.6,3.1,83,1.00,,,2.70,VWS V14.01,2013-05-02 07:42:00,
2013-05-02 02:43:00,66.2,60.9,29.94,ENE,68,1.6,1.6,83,0.96,,,2.70,VWS V14.01,2013-05-02 07:43:00,
2013-05-02 02:44:00,66.2,60.9,29.94,NE,45,0.0,1.6,83,0.96,,,2.70,VWS V14.01,2013-05-02 07:44:00,
2013-05-02 02:45:00,66.2,60.9,29.94,NE,45,0.0,0.0,83,0.96,,,2.70,VWS V14.01,2013-05-02 07:45:00,
2013-05-02 02:46:00,66.2,60.9,29.94,NE,45,0.0,0.0,83,1.00,,,2.74,VWS V14.01,2013-05-02 07:46:00,
2013-05-02 02:47:00,66.2,60.9,29.94,NE,45,0.0,0.0,83,1.00,,,2.74,VWS V14.01,2013-05-02 07:47:00,
2013-05-02 02:48:00,66.4,61.1,29.94,NE,45,0.0,0.0,83,0.91,,,2.74,VWS V14.01,2013-05-02 07:48:00,
2013-05-02 02:49:00,66.4,61.1,29.91,NE,45,0.0,0.0,83,0.95,,,2.78,VWS V14.01,2013-05-02 07:49:00,
2013-05-02 02:50:00,66.4,61.1,29.91,NE,45,2.0,2.0,83,0.95,,,2.78,VWS V14.01,2013-05-02 07:50:00,
2013-05-02 02:51:00,66.4,61.1,29.91,NE,45,2.0,2.0,83,0.95,,,2.78,VWS V14.01,2013-05-02 07:51:00,
2013-05-02 02:52:00,66.4,61.1,29.91,NE,45,3.1,3.1,83,0.91,,,2.78,VWS V14.01,2013-05-02 07:52:00,
2013-05-02 02:53:00,66.4,61.1,29.91,NE,45,1.6,3.1,83,0.91,,,2.78,VWS V14.01,2013-05-02 07:53:00,
2013-05-02 02:54:00,66.4,61.1,29.91,ENE,68,2.9,2.9,83,0.83,,,2.78,VWS V14.01,2013-05-02 07:54:00,
2013-05-02 02:55:00,66.4,61.1,29.91,ENE,68,1.1,2.9,83,0.83,,,2.78,VWS V14.01,2013-05-02 07:55:00,
2013-05-02 02:56:00,66.4,61.1,29.91,NE,45,3.6,3.8,83,0.87,,,2.82,VWS V14.01,2013-05-02 07:56:00,
2013-05-02 02:57:00,66.4,61.1,29.91,NE,45,2.5,3.6,83,0.83,,,2.82,VWS V14.01,2013-05-02 07:57:00,
2013-05-02 02:58:00,66.4,61.1,29.91,ENE,68,2.2,3.1,83,0.83,,,2.82,VWS V14.01,2013-05-02 07:58:00,
2013-05-02 02:59:00,66.2,60.9,29.91,NNE,22,0.9,4.3,83,0.79,,,2.82,VWS V14.01,2013-05-02 07:59:00,
2013-05-02 03:00:00,66.2,60.9,29.91,North,0,4.7,4.7,83,0.79,,,2.82,VWS V14.01,2013-05-02 08:00:00,
2013-05-02 03:01:00,66.2,60.9,29.91,NNW,338,3.6,5.4,83,0.74,,,2.86,VWS V14.01,2013-05-02 08:01:00,
2013-05-02 03:02:00,66.2,60.9,29.91,NNW,338,3.4,3.8,83,0.70,,,2.86,VWS V14.01,2013-05-02 08:02:00,
2013-05-02 03:03:00,66.2,60.9,29.91,NW,315,0.0,3.4,83,0.66,,,2.86,VWS V14.01,2013-05-02 08:03:00,
2013-05-02 03:04:00,66.2,60.9,29.91,NNE,22,2.2,2.2,83,0.66,,,2.86,VWS V14.01,2013-05-02 08:04:00,
2013-05-02 03:05:00,66.2,60.9,29.91,NNE,22,3.4,3.4,83,0.58,,,2.86,VWS V14.01,2013-05-02 08:05:00,
2013-05-02 03:06:00,66.2,60.9,29.91,NE,45,3.6,4.0,83,0.58,,,2.86,VWS V14.01,2013-05-02 08:06:00,
2013-05-02 03:07:00,66.2,60.9,29.91,NE,45,3.6,3.6,83,0.58,,,2.86,VWS V14.01,2013-05-02 08:07:00,
2013-05-02 03:08:00,66.2,60.9,29.91,NE,45,2.7,6.3,83,0.49,,,2.86,VWS V14.01,2013-05-02 08:08:00,
2013-05-02 03:09:00,66.2,60.9,29.91,NE,45,3.1,3.8,83,0.49,,,2.86,VWS V14.01,2013-05-02 08:09:00,
2013-05-02 03:10:00,66.2,60.9,29.91,NE,45,1.1,3.1,83,0.49,,,2.86,VWS V14.01,2013-05-02 08:10:00,
2013-05-02 03:11:00,66.2,60.9,29.91,East,90,3.8,3.8,83,0.45,,,2.86,VWS V14.01,2013-05-02 08:11:00,
2013-05-02 03:12:00,66.2,60.9,29.91,ENE,68,1.1,3.8,83,0.42,,,2.91,VWS V14.01,2013-05-02 08:12:00,
2013-05-02 03:14:00,66.2,60.9,29.91,NNE,22,1.3,1.6,83,0.42,,,2.91,VWS V14.01,2013-05-02 08:14:00,
2013-05-02 03:15:00,66.2,60.9,29.91,NE,45,3.1,3.4,83,0.38,,,2.91,VWS V14.01,2013-05-02 08:15:00,
2013-05-02 03:16:00,66.2,60.9,29.91,ENE,68,1.6,3.1,83,0.38,,,2.91,VWS V14.01,2013-05-02 08:16:00,
2013-05-02 03:17:00,66.2,60.9,29.91,ESE,112,0.0,1.6,83,0.33,,,2.91,VWS V14.01,2013-05-02 08:17:00,
2013-05-02 03:19:00,66.2,60.9,29.91,SSE,158,0.9,0.9,83,0.33,,,2.91,VWS V14.01,2013-05-02 08:19:00,
2013-05-02 03:20:00,65.8,60.5,29.91,WNW,292,2.7,4.7,83,0.30,,,2.91,VWS V14.01,2013-05-02 08:20:00,
2013-05-02 03:21:00,65.8,60.5,29.91,SSW,202,1.1,3.4,83,0.30,,,2.91,VWS V14.01,2013-05-02 08:21:00,
2013-05-02 03:22:00,65.5,60.2,29.91,SW,225,4.7,4.7,83,0.34,,,2.95,VWS V14.01,2013-05-02 08:22:00,
2013-05-02 03:23:00,65.7,60.4,29.91,South,180,1.6,4.7,83,0.29,,,2.95,VWS V14.01,2013-05-02 08:23:00,
2013-05-02 03:24:00,65.7,60.7,29.91,SSW,202,0.0,2.9,84,0.29,,,2.95,VWS V14.01,2013-05-02 08:24:00,
2013-05-02 03:25:00,65.8,60.9,29.91,NE,45,3.1,3.6,84,0.29,,,2.95,VWS V14.01,2013-05-02 08:25:00,
2013-05-02 03:26:00,65.8,60.9,29.91,ENE,68,3.8,5.6,84,0.29,,,2.95,VWS V14.01,2013-05-02 08:26:00,
2013-05-02 03:27:00,65.8,60.9,29.91,East,90,2.2,3.8,84,0.29,,,2.95,VWS V14.01,2013-05-02 08:27:00,
2013-05-02 03:28:00,65.8,60.9,29.91,ENE,68,0.0,2.2,84,0.33,,,2.99,VWS V14.01,2013-05-02 08:28:00,
2013-05-02 03:30:00,65.8,60.9,29.91,ENE,68,0.0,0.0,84,0.33,,,2.99,VWS V14.01,2013-05-02 08:30:00,
2013-05-02 03:31:00,65.8,60.9,29.91,SSE,158,1.1,1.6,84,0.33,,,3.03,VWS V14.01,2013-05-02 08:31:00,
2013-05-02 03:32:00,65.8,60.9,29.91,East,90,2.7,2.7,84,0.33,,,3.03,VWS V14.01,2013-05-02 08:32:00,
2013-05-02 03:33:00,65.8,60.9,29.91,East,90,0.9,2.7,84,0.33,,,3.03,VWS V14.01,2013-05-02 08:33:00,
2013-05-02 03:34:00,66.0,61.0,29.91,East,90,0.9,1.6,84,0.33,,,3.03,VWS V14.01,2013-05-02 08:34:00,
2013-05-02 03:35:00,66.0,61.0,29.91,East,90,0.0,0.9,84,0.33,,,3.03,VWS V14.01,2013-05-02 08:35:00,
2013-05-02 03:36:00,66.0,61.0,29.91,East,90,2.7,2.7,84,0.33,,,3.03,VWS V14.01,2013-05-02 08:36:00,
2013-05-02 03:37:00,66.0,61.0,29.91,ENE,68,2.9,2.9,84,0.37,,,3.07,VWS V14.01,2013-05-02 08:37:00,
2013-05-02 03:38:00,66.0,61.0,29.91,ENE,68,1.6,3.8,84,0.37,,,3.07,VWS V14.01,2013-05-02 08:38:00,
2013-05-02 03:39:00,66.0,61.0,29.91,ENE,68,2.5,2.9,84,0.37,,,3.07,VWS V14.01,2013-05-02 08:39:00,
2013-05-02 03:40:00,66.0,61.0,29.91,ENE,68,2.5,2.5,84,0.37,,,3.07,VWS V14.01,2013-05-02 08:40:00,
2013-05-02 03:41:00,66.0,61.0,29.91,ENE,68,2.9,2.9,84,0.37,,,3.07,VWS V14.01,2013-05-02 08:41:00,
2013-05-02 03:42:00,66.0,61.0,29.91,NNE,22,4.3,4.3,84,0.37,,,3.07,VWS V14.01,2013-05-02 08:42:00,
2013-05-02 03:43:00,66.0,61.0,29.91,NE,45,4.0,4.7,84,0.41,,,3.11,VWS V14.01,2013-05-02 08:43:00,
2013-05-02 03:44:00,66.2,60.9,29.91,NE,45,5.4,5.8,83,0.41,,,3.11,VWS V14.01,2013-05-02 08:44:00,
2013-05-02 03:45:00,66.2,60.9,29.91,NNE,22,2.7,5.4,83,0.45,,,3.15,VWS V14.01,2013-05-02 08:45:00,
2013-05-02 03:46:00,66.2,60.9,29.91,NNE,22,0.0,2.7,83,0.45,,,3.15,VWS V14.01,2013-05-02 08:46:00,
2013-05-02 03:47:00,66.2,60.9,29.91,NNE,22,1.6,1.6,83,0.41,,,3.15,VWS V14.01,2013-05-02 08:47:00,
2013-05-02 03:48:00,66.2,60.9,29.91,NNE,22,3.6,4.3,83,0.41,,,3.15,VWS V14.01,2013-05-02 08:48:00,
2013-05-02 03:50:00,66.2,60.9,29.91,NNE,22,3.4,4.0,83,0.41,,,3.15,VWS V14.01,2013-05-02 08:50:00,
2013-05-02 03:51:00,66.2,60.9,29.91,ENE,68,2.9,3.4,83,0.37,,,3.15,VWS V14.01,2013-05-02 08:51:00,
2013-05-02 03:52:00,66.2,60.9,29.91,NE,45,4.3,4.3,83,0.37,,,3.15,VWS V14.01,2013-05-02 08:52:00,
2013-05-02 03:53:00,66.0,60.7,29.91,NNE,22,4.0,4.3,83,0.37,,,3.15,VWS V14.01,2013-05-02 08:53:00,
2013-05-02 03:54:00,66.0,60.7,29.91,NE,45,3.6,6.0,83,0.37,,,3.15,VWS V14.01,2013-05-02 08:54:00,
2013-05-02 03:55:00,66.0,60.7,29.91,NE,45,3.6,3.6,83,0.42,,,3.20,VWS V14.01,2013-05-02 08:55:00,
2013-05-02 03:56:00,66.0,60.7,29.91,East,90,2.9,3.6,83,0.42,,,3.20,VWS V14.01,2013-05-02 08:56:00,
2013-05-02 03:57:00,66.0,60.7,29.91,East,90,2.7,2.9,83,0.38,,,3.20,VWS V14.01,2013-05-02 08:57:00,
2013-05-02 03:58:00,66.0,60.7,29.91,East,90,0.0,2.9,83,0.38,,,3.20,VWS V14.01,2013-05-02 08:58:00,
2013-05-02 03:59:00,66.0,60.7,29.91,ENE,68,0.9,1.1,83,0.38,,,3.20,VWS V14.01,2013-05-02 08:59:00,
2013-05-02 04:00:00,66.0,60.7,29.91,ENE,68,0.9,2.5,83,0.38,,,3.20,VWS V14.01,2013-05-02 09:00:00,
2013-05-02 04:01:00,66.0,60.7,29.91,ENE,68,0.0,0.9,83,0.38,,,3.20,VWS V14.01,2013-05-02 09:01:00,
2013-05-02 04:02:00,66.0,60.7,29.91,ENE,68,0.0,0.0,83,0.34,,,3.20,VWS V14.01,2013-05-02 09:02:00,
2013-05-02 04:03:00,66.0,60.7,29.91,East,90,0.0,1.1,83,0.38,,,3.24,VWS V14.01,2013-05-02 09:03:00,
2013-05-02 04:04:00,66.2,60.9,29.91,East,90,0.0,1.6,83,0.38,,,3.24,VWS V14.01,2013-05-02 09:04:00,
2013-05-02 04:05:00,66.2,60.9,29.91,East,90,0.0,2.0,83,0.38,,,3.24,VWS V14.01,2013-05-02 09:05:00,
2013-05-02 04:06:00,66.2,60.9,29.91,East,90,0.0,1.6,83,0.38,,,3.24,VWS V14.01,2013-05-02 09:06:00,
2013-05-02 04:07:00,66.2,60.9,29.91,ENE,68,0.0,0.0,83,0.38,,,3.24,VWS V14.01,2013-05-02 09:07:00,
2013-05-02 04:08:00,66.2,60.9,29.91,ENE,68,0.0,0.0,83,0.38,,,3.24,VWS V14.01,2013-05-02 09:08:00,
2013-05-02 04:09:00,66.2,60.9,29.91,ENE,68,1.3,1.3,83,0.38,,,3.24,VWS V14.01,2013-05-02 09:09:00,
2013-05-02 04:10:00,66.2,60.9,29.91,NE,45,1.6,3.4,83,0.38,,,3.24,VWS V14.01,2013-05-02 09:10:00,
2013-05-02 04:11:00,66.2,60.9,29.91,NE,45,3.1,3.1,83,0.38,,,3.24,VWS V14.01,2013-05-02 09:11:00,
2013-05-02 04:12:00,66.2,60.9,29.91,NE,45,0.0,3.1,83,0.38,,,3.24,VWS V14.01,2013-05-02 09:12:00,
2013-05-02 04:13:00,66.2,60.9,29.91,ENE,68,0.0,1.3,83,0.33,,,3.24,VWS V14.01,2013-05-02 09:13:00,
2013-05-02 04:14:00,66.2,60.9,29.91,ENE,68,0.0,0.0,83,0.33,,,3.24,VWS V14.01,2013-05-02 09:14:00,
2013-05-02 04:15:00,66.0,60.7,29.91,East,90,0.0,0.0,83,0.33,,,3.24,VWS V14.01,2013-05-02 09:15:00,
2013-05-02 04:16:00,66.0,60.7,29.91,ESE,112,1.3,1.3,83,0.37,,,3.28,VWS V14.01,2013-05-02 09:16:00,
2013-05-02 04:17:00,65.8,60.5,29.91,SSW,202,2.5,2.7,83,0.37,,,3.28,VWS V14.01,2013-05-02 09:17:00,
2013-05-02 04:18:00,65.8,60.5,29.94,SSW,202,2.2,2.5,83,0.37,,,3.28,VWS V14.01,2013-05-02 09:18:00,
2013-05-02 04:19:00,65.8,60.5,29.94,SSW,202,2.2,2.2,83,0.37,,,3.28,VWS V14.01,2013-05-02 09:19:00,
2013-05-02 04:20:00,65.8,60.5,29.94,SSW,202,2.2,2.5,83,0.37,,,3.28,VWS V14.01,2013-05-02 09:20:00,
2013-05-02 04:21:00,65.8,60.5,29.94,SSW,202,0.0,2.2,83,0.41,,,3.32,VWS V14.01,2013-05-02 09:21:00,
2013-05-02 04:22:00,65.7,60.7,29.94,SSW,202,0.0,0.0,84,0.41,,,3.32,VWS V14.01,2013-05-02 09:22:00,
2013-05-02 04:23:00,65.7,60.7,29.94,SSW,202,0.0,0.0,84,0.37,,,3.32,VWS V14.01,2013-05-02 09:23:00,
2013-05-02 04:24:00,65.7,60.7,29.94,SSW,202,0.0,0.0,84,0.37,,,3.32,VWS V14.01,2013-05-02 09:24:00,
2013-05-02 04:25:00,65.8,60.9,29.94,East,90,2.9,2.9,84,0.41,,,3.36,VWS V14.01,2013-05-02 09:25:00,
2013-05-02 04:26:00,65.8,60.9,29.94,East,90,1.3,2.9,84,0.41,,,3.36,VWS V14.01,2013-05-02 09:26:00,
2013-05-02 04:27:00,65.8,60.9,29.94,ESE,112,2.5,3.6,84,0.41,,,3.36,VWS V14.01,2013-05-02 09:27:00,
2013-05-02 04:28:00,65.8,60.9,29.94,ESE,112,1.1,2.7,84,0.41,,,3.36,VWS V14.01,2013-05-02 09:28:00,
2013-05-02 04:29:00,65.8,60.9,29.94,ESE,112,0.9,2.2,84,0.37,,,3.36,VWS V14.01,2013-05-02 09:29:00,
2013-05-02 04:30:00,65.8,60.9,29.94,SE,135,0.0,0.9,84,0.37,,,3.36,VWS V14.01,2013-05-02 09:30:00,
2013-05-02 04:31:00,65.8,60.9,29.94,SE,135,1.1,1.1,84,0.41,,,3.40,VWS V14.01,2013-05-02 09:31:00,
2013-05-02 04:32:00,65.8,60.9,29.94,SE,135,3.1,3.1,84,0.37,,,3.40,VWS V14.01,2013-05-02 09:32:00,
2013-05-02 04:33:00,65.8,60.9,29.97,SE,135,1.6,3.8,84,0.42,,,3.45,VWS V14.01,2013-05-02 09:33:00,
2013-05-02 04:34:00,65.8,60.9,29.97,ESE,112,2.5,4.9,84,0.42,,,3.45,VWS V14.01,2013-05-02 09:34:00,
2013-05-02 04:35:00,65.7,61.0,29.97,ESE,112,3.8,3.8,85,0.42,,,3.45,VWS V14.01,2013-05-02 09:35:00,
2013-05-02 04:36:00,65.7,61.0,29.97,ESE,112,3.8,3.8,85,0.42,,,3.45,VWS V14.01,2013-05-02 09:36:00,
2013-05-02 04:37:00,65.7,61.0,29.97,East,90,0.9,3.8,85,0.45,,,3.48,VWS V14.01,2013-05-02 09:37:00,
2013-05-02 04:38:00,65.7,61.0,29.97,ESE,112,0.0,0.9,85,0.41,,,3.48,VWS V14.01,2013-05-02 09:38:00,
2013-05-02 04:39:00,65.7,61.0,29.97,ESE,112,0.0,0.0,85,0.41,,,3.48,VWS V14.01,2013-05-02 09:39:00,
2013-05-02 04:40:00,65.7,61.0,29.97,East,90,0.0,0.0,85,0.46,,,3.53,VWS V14.01,2013-05-02 09:40:00,
2013-05-02 04:41:00,65.8,61.2,29.97,East,90,2.0,2.0,85,0.46,,,3.53,VWS V14.01,2013-05-02 09:41:00,
2013-05-02 04:42:00,65.8,61.2,29.97,East,90,0.0,2.0,85,0.46,,,3.53,VWS V14.01,2013-05-02 09:42:00,
2013-05-02 04:43:00,65.8,61.2,29.97,ENE,68,3.8,3.8,85,0.46,,,3.53,VWS V14.01,2013-05-02 09:43:00,
2013-05-02 04:44:00,65.8,61.2,29.97,ENE,68,3.6,3.8,85,0.42,,,3.53,VWS V14.01,2013-05-02 09:44:00,
2013-05-02 04:45:00,65.8,61.2,29.97,ENE,68,4.7,4.7,85,0.42,,,3.53,VWS V14.01,2013-05-02 09:45:00,
2013-05-02 04:46:00,65.8,60.9,29.97,ENE,68,3.4,4.7,84,0.38,,,3.53,VWS V14.01,2013-05-02 09:46:00,
2013-05-02 04:47:00,65.8,60.9,29.97,ENE,68,4.0,4.0,84,0.38,,,3.53,VWS V14.01,2013-05-02 09:47:00,
2013-05-02 04:48:00,65.8,60.9,29.94,ENE,68,2.7,5.8,84,0.38,,,3.53,VWS V14.01,2013-05-02 09:48:00,
2013-05-02 04:49:00,65.8,60.9,29.94,ENE,68,3.8,4.0,84,0.38,,,3.53,VWS V14.01,2013-05-02 09:49:00,
2013-05-02 04:50:00,65.8,60.9,29.94,NNE,22,1.3,3.8,84,0.38,,,3.53,VWS V14.01,2013-05-02 09:50:00,
2013-05-02 04:51:00,65.8,60.9,29.94,ENE,68,2.0,2.0,84,0.42,,,3.57,VWS V14.01,2013-05-02 09:51:00,
2013-05-02 04:52:00,65.8,60.9,29.94,ENE,68,3.8,6.3,84,0.42,,,3.57,VWS V14.01,2013-05-02 09:52:00,
2013-05-02 04:53:00,66.0,61.0,29.94,ENE,68,4.0,4.0,84,0.42,,,3.57,VWS V14.01,2013-05-02 09:53:00,
2013-05-02 04:54:00,65.8,60.9,29.94,ENE,68,7.2,7.2,84,0.42,,,3.57,VWS V14.01,2013-05-02 09:54:00,
2013-05-02 04:55:00,65.8,60.9,29.94,NE,45,2.7,7.2,84,0.42,,,3.57,VWS V14.01,2013-05-02 09:55:00,
2013-05-02 04:56:00,65.8,60.9,29.94,ENE,68,1.6,5.6,84,0.37,,,3.57,VWS V14.01,2013-05-02 09:56:00,
2013-05-02 04:57:00,65.8,60.9,29.94,ENE,68,4.0,4.0,84,0.37,,,3.57,VWS V14.01,2013-05-02 09:57:00,
2013-05-02 04:58:00,65.8,60.9,29.94,ENE,68,3.1,4.0,84,0.37,,,3.57,VWS V14.01,2013-05-02 09:58:00,
2013-05-02 04:59:00,65.8,60.9,29.94,NE,45,1.3,3.6,84,0.37,,,3.57,VWS V14.01,2013-05-02 09:59:00,
2013-05-02 05:00:00,65.8,60.9,29.94,NE,45,2.5,2.7,84,0.37,,,3.57,VWS V14.01,2013-05-02 10:00:00,
2013-05-02 05:01:00,65.8,60.9,29.94,ENE,68,3.6,3.8,84,0.37,,,3.57,VWS V14.01,2013-05-02 10:01:00,
2013-05-02 05:02:00,66.0,61.0,29.94,NE,45,4.7,5.6,84,0.37,,,3.57,VWS V14.01,2013-05-02 10:02:00,
2013-05-02 05:03:00,66.0,61.0,29.94,ENE,68,4.7,4.7,84,0.37,,,3.57,VWS V14.01,2013-05-02 10:03:00,
2013-05-02 05:04:00,66.0,61.0,29.94,ENE,68,1.6,4.7,84,0.33,,,3.57,VWS V14.01,2013-05-02 10:04:00,
2013-05-02 05:05:00,66.0,61.0,29.94,ENE,68,1.1,1.6,84,0.33,,,3.57,VWS V14.01,2013-05-02 10:05:00,
2013-05-02 05:06:00,66.0,61.0,29.94,ENE,68,0.9,3.1,84,0.33,,,3.57,VWS V14.01,2013-05-02 10:06:00,
2013-05-02 05:07:00,66.0,61.0,29.94,ESE,112,3.8,4.0,84,0.33,,,3.57,VWS V14.01,2013-05-02 10:07:00,
2013-05-02 05:08:00,65.8,60.9,29.94,ENE,68,2.0,3.8,84,0.33,,,3.57,VWS V14.01,2013-05-02 10:08:00,
2013-05-02 05:09:00,66.0,61.0,29.94,ESE,112,2.0,4.3,84,0.33,,,3.57,VWS V14.01,2013-05-02 10:09:00,
2013-05-02 05:10:00,65.8,60.9,29.94,ENE,68,3.6,4.3,84,0.33,,,3.57,VWS V14.01,2013-05-02 10:10:00,
2013-05-02 05:11:00,65.8,60.9,29.94,NNE,22,3.4,3.6,84,0.33,,,3.57,VWS V14.01,2013-05-02 10:11:00,
2013-05-02 05:12:00,65.8,60.9,29.94,East,90,3.6,4.3,84,0.33,,,3.57,VWS V14.01,2013-05-02 10:12:00,
2013-05-02 05:13:00,65.8,60.9,29.94,NNE,22,0.0,6.3,84,0.33,,,3.57,VWS V14.01,2013-05-02 10:13:00,
2013-05-02 05:14:00,65.8,60.9,29.94,NNE,22,1.1,2.7,84,0.33,,,3.57,VWS V14.01,2013-05-02 10:14:00,
2013-05-02 05:15:00,65.8,60.9,29.94,ENE,68,1.3,3.8,84,0.33,,,3.57,VWS V14.01,2013-05-02 10:15:00,
2013-05-02 05:16:00,65.8,60.9,29.94,ESE,112,5.6,5.6,84,0.33,,,3.57,VWS V14.01,2013-05-02 10:16:00,
2013-05-02 05:17:00,65.7,60.4,29.94,ENE,68,2.0,5.6,83,0.29,,,3.57,VWS V14.01,2013-05-02 10:17:00,
2013-05-02 05:18:00,65.8,60.5,29.94,ENE,68,2.5,3.6,83,0.29,,,3.57,VWS V14.01,2013-05-02 10:18:00,
2013-05-02 05:19:00,65.8,60.5,29.94,ESE,112,0.9,2.5,83,0.29,,,3.57,VWS V14.01,2013-05-02 10:19:00,
2013-05-02 05:20:00,65.8,60.5,29.94,NE,45,2.0,3.1,83,0.33,,,3.61,VWS V14.01,2013-05-02 10:20:00,
2013-05-02 05:21:00,65.8,60.5,29.94,ENE,68,2.5,2.5,83,0.33,,,3.61,VWS V14.01,2013-05-02 10:21:00,
2013-05-02 05:22:00,65.8,60.5,29.94,NE,45,2.9,3.1,83,0.29,,,3.61,VWS V14.01,2013-05-02 10:22:00,
2013-05-02 05:23:00,65.8,60.5,29.94,NNE,22,3.1,4.0,83,0.29,,,3.61,VWS V14.01,2013-05-02 10:23:00,
2013-05-02 05:24:00,65.8,60.5,29.94,NE,45,3.8,5.8,83,0.29,,,3.61,VWS V14.01,2013-05-02 10:24:00,
2013-05-02 05:25:00,65.8,60.5,29.94,NE,45,3.8,3.8,83,0.29,,,3.61,VWS V14.01,2013-05-02 10:25:00,
2013-05-02 05:26:00,65.8,60.5,29.94,ENE,68,3.1,4.3,83,0.25,,,3.61,VWS V14.01,2013-05-02 10:26:00,
2013-05-02 05:27:00,65.8,60.5,29.94,NE,45,3.1,6.0,83,0.25,,,3.61,VWS V14.01,2013-05-02 10:27:00,
2013-05-02 05:28:00,65.8,60.5,29.94,NE,45,4.3,4.3,83,0.25,,,3.61,VWS V14.01,2013-05-02 10:28:00,
2013-05-02 05:29:00,65.7,60.4,29.94,ENE,68,3.1,4.3,83,0.25,,,3.61,VWS V14.01,2013-05-02 10:29:00,
2013-05-02 05:30:00,65.7,60.4,29.94,NE,45,6.3,6.3,83,0.25,,,3.61,VWS V14.01,2013-05-02 10:30:00,
2013-05-02 05:31:00,65.7,60.4,29.94,ENE,68,5.8,6.3,83,0.25,,,3.61,VWS V14.01,2013-05-02 10:31:00,
2013-05-02 05:32:00,65.7,60.4,29.94,NE,45,5.4,5.8,83,0.21,,,3.61,VWS V14.01,2013-05-02 10:32:00,
2013-05-02 05:33:00,65.7,60.4,29.94,ENE,68,5.6,5.6,83,0.21,,,3.61,VWS V14.01,2013-05-02 10:33:00,
2013-05-02 05:34:00,65.7,60.4,29.94,ENE,68,5.6,5.6,83,0.16,,,3.61,VWS V14.01,2013-05-02 10:34:00,
2013-05-02 05:35:00,65.5,60.2,29.94,ENE,68,3.1,5.6,83,0.16,,,3.61,VWS V14.01,2013-05-02 10:35:00,
2013-05-02 05:36:00,65.7,60.4,29.94,NE,45,5.4,5.4,83,0.16,,,3.61,VWS V14.01,2013-05-02 10:36:00,
2013-05-02 05:37:00,65.7,60.4,29.94,NNE,22,6.0,6.3,83,0.16,,,3.61,VWS V14.01,2013-05-02 10:37:00,
2013-05-02 05:38:00,65.7,60.4,29.94,NNE,22,4.3,6.0,83,0.13,,,3.61,VWS V14.01,2013-05-02 10:38:00,
2013-05-02 05:39:00,65.7,60.4,29.94,NNE,22,4.9,6.0,83,0.13,,,3.61,VWS V14.01,2013-05-02 10:39:00,
2013-05-02 05:40:00,65.7,60.4,29.94,NNE,22,4.3,7.4,83,0.13,,,3.61,VWS V14.01,2013-05-02 10:40:00,
2013-05-02 05:41:00,65.7,60.4,29.94,NE,45,3.6,7.4,83,0.08,,,3.61,VWS V14.01,2013-05-02 10:41:00,
2013-05-02 05:43:00,65.7,60.4,29.94,NNE,22,5.8,5.8,83,0.08,,,3.61,VWS V14.01,2013-05-02 10:43:00,
2013-05-02 05:44:00,65.7,60.4,29.94,NE,45,3.1,5.8,83,0.08,,,3.61,VWS V14.01,2013-05-02 10:44:00,
2013-05-02 05:45:00,65.5,60.2,29.94,NE,45,3.4,5.4,83,0.08,,,3.61,VWS V14.01,2013-05-02 10:45:00,
2013-05-02 05:46:00,65.7,60.4,29.94,NNE,22,2.5,3.4,83,0.08,,,3.61,VWS V14.01,2013-05-02 10:46:00,
2013-05-02 05:47:00,65.7,60.4,29.94,NNE,22,2.7,2.7,83,0.08,,,3.61,VWS V14.01,2013-05-02 10:47:00,
2013-05-02 05:48:00,65.5,60.2,29.94,NE,45,3.1,3.6,83,0.08,,,3.61,VWS V14.01,2013-05-02 10:48:00,
2013-05-02 05:49:00,65.5,60.2,29.94,NNE,22,5.4,5.8,83,0.08,,,3.61,VWS V14.01,2013-05-02 10:49:00,
2013-05-02 05:50:00,65.5,60.2,29.94,NE,45,5.8,5.8,83,0.08,,,3.61,VWS V14.01,2013-05-02 10:50:00,
2013-05-02 05:51:00,65.5,60.2,29.94,NE,45,3.4,5.8,83,0.08,,,3.61,VWS V14.01,2013-05-02 10:51:00,
2013-05-02 05:52:00,65.7,60.4,29.94,ENE,68,4.3,7.8,83,0.08,,,3.65,VWS V14.01,2013-05-02 10:52:00,
2013-05-02 05:53:00,65.7,60.4,29.94,ENE,68,2.9,4.3,83,0.08,,,3.65,VWS V14.01,2013-05-02 10:53:00,
2013-05-02 05:54:00,65.7,60.4,29.94,ENE,68,2.0,2.9,83,0.08,,,3.65,VWS V14.01,2013-05-02 10:54:00,
2013-05-02 05:55:00,65.7,60.4,29.94,East,90,1.3,2.7,83,0.08,,,3.65,VWS V14.01,2013-05-02 10:55:00,
2013-05-02 05:56:00,65.7,60.4,29.94,East,90,0.9,2.0,83,0.08,,,3.65,VWS V14.01,2013-05-02 10:56:00,
2013-05-02 05:57:00,65.7,60.4,29.94,ENE,68,2.9,2.9,83,0.08,,,3.65,VWS V14.01,2013-05-02 10:57:00,
2013-05-02 05:58:00,65.7,60.4,29.94,ENE,68,2.5,3.6,83,0.08,,,3.65,VWS V14.01,2013-05-02 10:58:00,
2013-05-02 05:59:00,65.7,60.4,29.94,ENE,68,3.4,3.4,83,0.08,,,3.65,VWS V14.01,2013-05-02 10:59:00,
2013-05-02 06:00:00,65.7,60.4,29.94,ENE,68,2.0,3.4,83,0.08,,,3.65,VWS V14.01,2013-05-02 11:00:00,
2013-05-02 06:01:00,65.7,60.4,29.94,East,90,2.0,4.0,83,0.08,,,3.65,VWS V14.01,2013-05-02 11:01:00,
2013-05-02 06:02:00,65.7,60.4,29.94,ENE,68,3.4,4.3,83,0.08,,,3.65,VWS V14.01,2013-05-02 11:02:00,
2013-05-02 06:03:00,65.7,60.4,29.97,ENE,68,4.3,5.6,83,0.08,,,3.65,VWS V14.01,2013-05-02 11:03:00,
2013-05-02 06:04:00,65.7,60.4,29.97,ENE,68,4.3,4.3,83,0.08,,,3.65,VWS V14.01,2013-05-02 11:04:00,
2013-05-02 06:05:00,65.7,60.4,29.97,NE,45,4.3,5.6,83,0.08,,,3.65,VWS V14.01,2013-05-02 11:05:00,
2013-05-02 06:06:00,65.7,60.4,29.97,ENE,68,3.1,4.3,83,0.08,,,3.65,VWS V14.01,2013-05-02 11:06:00,
2013-05-02 06:07:00,65.7,60.4,29.97,ENE,68,4.9,4.9,83,0.08,,,3.65,VWS V14.01,2013-05-02 11:07:00,
2013-05-02 06:08:00,65.7,60.4,29.97,East,90,2.9,4.9,83,0.08,,,3.65,VWS V14.01,2013-05-02 11:08:00,
2013-05-02 06:09:00,65.7,60.4,29.97,ENE,68,4.3,4.3,83,0.08,,,3.65,VWS V14.01,2013-05-02 11:09:00,
2013-05-02 06:10:00,65.5,60.2,29.97,ENE,68,2.0,4.3,83,0.08,,,3.65,VWS V14.01,2013-05-02 11:10:00,
2013-05-02 06:11:00,65.5,60.2,29.97,ENE,68,1.1,4.3,83,0.08,,,3.65,VWS V14.01,2013-05-02 11:11:00,
2013-05-02 06:12:00,65.5,60.2,29.97,NE,45,4.7,4.7,83,0.08,,,3.65,VWS V14.01,2013-05-02 11:12:00,
2013-05-02 06:13:00,65.5,60.2,29.97,ENE,68,3.1,4.7,83,0.08,,,3.65,VWS V14.01,2013-05-02 11:13:00,
2013-05-02 06:14:00,65.5,60.2,29.97,ESE,112,4.0,4.0,83,0.08,,,3.65,VWS V14.01,2013-05-02 11:14:00,
2013-05-02 06:15:00,65.5,60.2,29.97,East,90,4.9,4.9,83,0.08,,,3.65,VWS V14.01,2013-05-02 11:15:00,
2013-05-02 06:16:00,65.5,60.2,29.97,East,90,4.7,5.4,83,0.08,,,3.65,VWS V14.01,2013-05-02 11:16:00,
2013-05-02 06:17:00,65.5,60.2,29.97,ENE,68,3.4,4.7,83,0.08,,,3.65,VWS V14.01,2013-05-02 11:17:00,
2013-05-02 06:18:00,65.5,60.2,29.94,ENE,68,2.5,3.4,83,0.08,,,3.65,VWS V14.01,2013-05-02 11:18:00,
2013-05-02 06:19:00,65.5,60.2,29.94,ENE,68,2.5,3.1,83,0.08,,,3.65,VWS V14.01,2013-05-02 11:19:00,
2013-05-02 06:20:00,65.5,60.2,29.94,ENE,68,4.9,4.9,83,0.08,,,3.65,VWS V14.01,2013-05-02 11:20:00,
2013-05-02 06:22:00,65.7,60.4,29.94,ENE,68,2.7,5.4,83,0.04,,,3.65,VWS V14.01,2013-05-02 11:22:00,
2013-05-02 06:23:00,65.7,60.4,29.94,ENE,68,3.1,3.1,83,0.04,,,3.65,VWS V14.01,2013-05-02 11:23:00,
2013-05-02 06:24:00,65.7,60.4,29.94,ENE,68,2.5,5.6,83,0.04,,,3.65,VWS V14.01,2013-05-02 11:24:00,
2013-05-02 06:25:00,65.7,60.4,29.94,ENE,68,2.9,3.6,83,0.04,,,3.65,VWS V14.01,2013-05-02 11:25:00,
2013-05-02 06:26:00,65.7,60.4,29.94,ENE,68,2.9,2.9,83,0.04,,,3.65,VWS V14.01,2013-05-02 11:26:00,
2013-05-02 06:27:00,65.7,60.4,29.94,ENE,68,2.9,3.4,83,0.04,,,3.65,VWS V14.01,2013-05-02 11:27:00,
2013-05-02 06:28:00,65.7,60.4,29.94,ENE,68,2.9,2.9,83,0.04,,,3.65,VWS V14.01,2013-05-02 11:28:00,
2013-05-02 06:29:00,65.7,60.4,29.94,ENE,68,2.0,4.3,83,0.04,,,3.65,VWS V14.01,2013-05-02 11:29:00,
2013-05-02 06:30:00,65.5,60.2,29.94,NE,45,4.7,5.6,83,0.04,,,3.65,VWS V14.01,2013-05-02 11:30:00,
2013-05-02 06:31:00,65.5,60.2,29.94,ENE,68,4.0,4.7,83,0.04,,,3.65,VWS V14.01,2013-05-02 11:31:00,
2013-05-02 06:32:00,65.5,60.2,29.94,ENE,68,3.6,4.3,83,0.04,,,3.65,VWS V14.01,2013-05-02 11:32:00,
2013-05-02 06:33:00,65.5,60.2,29.97,ENE,68,3.4,3.6,83,0.04,,,3.65,VWS V14.01,2013-05-02 11:33:00,
2013-05-02 06:34:00,65.5,60.2,29.97,ENE,68,2.5,3.4,83,0.04,,,3.65,VWS V14.01,2013-05-02 11:34:00,
2013-05-02 06:35:00,65.5,60.2,29.97,ENE,68,3.1,4.9,83,0.04,,,3.65,VWS V14.01,2013-05-02 11:35:00,
2013-05-02 06:36:00,65.5,60.2,29.97,ENE,68,4.0,4.0,83,0.04,,,3.65,VWS V14.01,2013-05-02 11:36:00,
2013-05-02 06:37:00,65.5,60.2,29.97,NE,45,3.8,4.0,83,0.04,,,3.65,VWS V14.01,2013-05-02 11:37:00,
2013-05-02 06:38:00,65.5,60.2,29.97,NE,45,4.5,4.7,83,0.08,,,3.69,VWS V14.01,2013-05-02 11:38:00,
2013-05-02 06:39:00,65.5,60.2,29.97,NE,45,4.3,4.7,83,0.08,,,3.69,VWS V14.01,2013-05-02 11:39:00,
2013-05-02 06:40:00,65.5,60.2,29.97,NE,45,4.3,6.0,83,0.08,,,3.69,VWS V14.01,2013-05-02 11:40:00,
2013-05-02 06:41:00,65.5,60.2,29.97,NNE,22,7.4,7.4,83,0.08,,,3.69,VWS V14.01,2013-05-02 11:41:00,
2013-05-02 06:42:00,65.5,60.2,29.97,NE,45,5.8,7.4,83,0.08,,,3.69,VWS V14.01,2013-05-02 11:42:00,
2013-05-02 06:43:00,65.5,60.2,29.97,ENE,68,3.4,5.8,83,0.08,,,3.69,VWS V14.01,2013-05-02 11:43:00,
2013-05-02 06:44:00,65.5,60.2,29.97,NNE,22,6.3,6.3,83,0.08,,,3.69,VWS V14.01,2013-05-02 11:44:00,
2013-05-02 06:45:00,65.5,60.2,29.97,ENE,68,9.0,9.0,83,0.08,,,3.69,VWS V14.01,2013-05-02 11:45:00,
2013-05-02 06:46:00,65.5,60.2,29.97,ENE,68,7.6,9.0,83,0.08,,,3.69,VWS V14.01,2013-05-02 11:46:00,
2013-05-02 06:47:00,65.5,60.2,29.97,NNE,22,2.5,7.6,83,0.08,,,3.69,VWS V14.01,2013-05-02 11:47:00,
2013-05-02 06:48:00,65.5,60.2,29.97,ENE,68,1.6,4.9,83,0.08,,,3.69,VWS V14.01,2013-05-02 11:48:00,
2013-05-02 06:49:00,65.5,60.2,29.97,ENE,68,2.5,3.4,83,0.08,,,3.69,VWS V14.01,2013-05-02 11:49:00,
2013-05-02 06:50:00,65.5,60.2,29.97,ENE,68,3.4,4.3,83,0.08,,,3.69,VWS V14.01,2013-05-02 11:50:00,
2013-05-02 06:51:00,65.5,60.2,29.97,ENE,68,1.6,3.4,83,0.08,,,3.69,VWS V14.01,2013-05-02 11:51:00,
2013-05-02 06:52:00,65.5,60.2,29.97,NNE,22,1.3,1.6,83,0.08,,,3.69,VWS V14.01,2013-05-02 11:52:00,
2013-05-02 06:53:00,65.5,60.2,29.97,NE,45,2.5,3.1,83,0.04,,,3.69,VWS V14.01,2013-05-02 11:53:00,
2013-05-02 06:54:00,65.5,60.2,29.97,NE,45,3.8,3.8,83,0.04,,,3.69,VWS V14.01,2013-05-02 11:54:00,
2013-05-02 06:55:00,65.5,60.2,29.97,NE,45,4.3,6.5,83,0.04,,,3.69,VWS V14.01,2013-05-02 11:55:00,
2013-05-02 06:56:00,65.5,60.2,29.97,NE,45,6.3,6.3,83,0.04,,,3.69,VWS V14.01,2013-05-02 11:56:00,
2013-05-02 06:57:00,65.5,60.2,29.97,NE,45,3.8,6.3,83,0.04,,,3.69,VWS V14.01,2013-05-02 11:57:00,
2013-05-02 06:58:00,65.5,60.2,29.97,ENE,68,3.8,3.8,83,0.04,,,3.69,VWS V14.01,2013-05-02 11:58:00,
2013-05-02 06:59:00,65.5,60.2,29.97,NE,45,3.1,3.8,83,0.04,,,3.69,VWS V14.01,2013-05-02 11:59:00,
2013-05-02 07:00:00,65.5,60.2,29.97,NE,45,0.9,3.1,83,0.04,,,3.69,VWS V14.01,2013-05-02 12:00:00,
2013-05-02 07:01:00,65.5,60.2,29.97,ENE,68,2.0,4.0,83,0.04,,,3.69,VWS V14.01,2013-05-02 12:01:00,
2013-05-02 07:02:00,65.5,60.2,29.97,ENE,68,3.6,4.3,83,0.04,,,3.69,VWS V14.01,2013-05-02 12:02:00,
2013-05-02 07:03:00,65.5,60.2,29.97,ENE,68,2.5,4.3,83,0.04,,,3.69,VWS V14.01,2013-05-02 12:03:00,
2013-05-02 07:04:00,65.5,60.2,29.97,ENE,68,2.5,2.5,83,0.04,,,3.69,VWS V14.01,2013-05-02 12:04:00,
2013-05-02 07:05:00,65.5,60.2,29.97,ENE,68,3.1,5.6,83,0.04,,,3.69,VWS V14.01,2013-05-02 12:05:00,
2013-05-02 07:06:00,65.5,60.2,29.97,ENE,68,3.1,3.8,83,0.04,,,3.69,VWS V14.01,2013-05-02 12:06:00,
2013-05-02 07:07:00,65.5,60.2,29.97,NE,45,1.6,3.1,83,0.04,,,3.69,VWS V14.01,2013-05-02 12:07:00,
2013-05-02 07:08:00,65.7,60.4,29.97,NE,45,2.5,2.7,83,0.04,,,3.69,VWS V14.01,2013-05-02 12:08:00,
2013-05-02 07:09:00,65.7,60.4,29.97,NE,45,1.6,2.7,83,0.09,,,3.74,VWS V14.01,2013-05-02 12:09:00,
2013-05-02 07:10:00,65.7,60.4,29.97,ENE,68,2.2,2.5,83,0.09,,,3.74,VWS V14.01,2013-05-02 12:10:00,
2013-05-02 07:11:00,65.7,60.4,29.97,ENE,68,1.6,2.2,83,0.09,,,3.74,VWS V14.01,2013-05-02 12:11:00,
2013-05-02 07:12:00,65.7,60.4,29.97,ENE,68,1.1,2.5,83,0.09,,,3.74,VWS V14.01,2013-05-02 12:12:00,
2013-05-02 07:13:00,65.7,60.4,29.97,ENE,68,5.4,5.4,83,0.09,,,3.74,VWS V14.01,2013-05-02 12:13:00,
2013-05-02 07:14:00,65.7,60.4,29.97,ENE,68,2.5,5.4,83,0.09,,,3.74,VWS V14.01,2013-05-02 12:14:00,
2013-05-02 07:15:00,65.7,60.4,29.97,ENE,68,3.1,3.6,83,0.09,,,3.74,VWS V14.01,2013-05-02 12:15:00,
2013-05-02 07:16:00,65.7,60.4,29.97,ENE,68,3.1,4.0,83,0.09,,,3.74,VWS V14.01,2013-05-02 12:16:00,
2013-05-02 07:17:00,65.7,60.4,29.97,ENE,68,2.0,3.6,83,0.09,,,3.74,VWS V14.01,2013-05-02 12:17:00,
2013-05-02 07:18:00,65.7,60.4,29.94,NE,45,3.8,3.8,83,0.09,,,3.74,VWS V14.01,2013-05-02 12:18:00,
2013-05-02 07:19:00,65.7,60.4,29.94,ENE,68,3.4,6.9,83,0.09,,,3.74,VWS V14.01,2013-05-02 12:19:00,
2013-05-02 07:20:00,65.7,60.4,29.94,ENE,68,3.4,4.9,83,0.09,,,3.74,VWS V14.01,2013-05-02 12:20:00,
2013-05-02 07:21:00,65.7,60.4,29.94,NE,45,2.9,5.6,83,0.09,,,3.74,VWS V14.01,2013-05-02 12:21:00,
2013-05-02 07:22:00,65.7,60.4,29.94,NE,45,2.0,2.9,83,0.09,,,3.74,VWS V14.01,2013-05-02 12:22:00,
2013-05-02 07:23:00,65.7,60.4,29.94,NE,45,4.3,4.3,83,0.09,,,3.74,VWS V14.01,2013-05-02 12:23:00,
2013-05-02 07:24:00,65.7,60.4,29.94,ENE,68,3.4,9.0,83,0.09,,,3.74,VWS V14.01,2013-05-02 12:24:00,
2013-05-02 07:25:00,65.7,60.4,29.94,ENE,68,3.4,3.4,83,0.09,,,3.74,VWS V14.01,2013-05-02 12:25:00,
2013-05-02 07:26:00,65.7,60.7,29.94,ENE,68,3.6,4.0,84,0.09,,,3.74,VWS V14.01,2013-05-02 12:26:00,
2013-05-02 07:27:00,65.7,60.7,29.94,ENE,68,4.3,4.3,84,0.09,,,3.74,VWS V14.01,2013-05-02 12:27:00,
2013-05-02 07:28:00,65.7,60.7,29.94,ESE,112,2.0,4.3,84,0.13,,,3.78,VWS V14.01,2013-05-02 12:28:00,
2013-05-02 07:29:00,65.7,60.7,29.94,ENE,68,3.8,5.8,84,0.13,,,3.78,VWS V14.01,2013-05-02 12:29:00,
2013-05-02 07:30:00,65.7,60.7,29.94,ENE,68,7.6,7.6,84,0.13,,,3.78,VWS V14.01,2013-05-02 12:30:00,
2013-05-02 07:31:00,65.7,60.7,29.94,ENE,68,2.0,7.6,84,0.13,,,3.78,VWS V14.01,2013-05-02 12:31:00,
2013-05-02 07:32:00,65.7,60.7,29.94,ENE,68,3.8,3.8,84,0.13,,,3.78,VWS V14.01,2013-05-02 12:32:00,
2013-05-02 07:33:00,65.7,60.7,29.97,NE,45,4.0,7.6,84,0.13,,,3.78,VWS V14.01,2013-05-02 12:33:00,
2013-05-02 07:34:00,65.7,60.7,29.97,ENE,68,6.0,6.0,84,0.13,,,3.78,VWS V14.01,2013-05-02 12:34:00,
2013-05-02 07:35:00,65.7,60.7,29.97,NNE,22,5.8,6.0,84,0.13,,,3.78,VWS V14.01,2013-05-02 12:35:00,
2013-05-02 07:36:00,65.7,60.7,29.97,NNE,22,2.9,5.8,84,0.13,,,3.78,VWS V14.01,2013-05-02 12:36:00,
2013-05-02 07:37:00,65.7,60.7,29.97,NE,45,3.4,3.6,84,0.13,,,3.78,VWS V14.01,2013-05-02 12:37:00,
2013-05-02 07:38:00,65.7,60.7,29.97,ENE,68,4.0,5.4,84,0.13,,,3.78,VWS V14.01,2013-05-02 12:38:00,
2013-05-02 07:39:00,65.7,60.7,29.97,ENE,68,3.8,4.9,84,0.09,,,3.78,VWS V14.01,2013-05-02 12:39:00,
2013-05-02 07:40:00,65.7,60.7,29.97,NE,45,5.4,5.4,84,0.09,,,3.78,VWS V14.01,2013-05-02 12:40:00,
2013-05-02 07:41:00,65.7,60.4,29.97,ENE,68,4.3,5.4,83,0.09,,,3.78,VWS V14.01,2013-05-02 12:41:00,
2013-05-02 07:42:00,65.7,60.4,29.97,NE,45,4.3,5.4,83,0.09,,,3.78,VWS V14.01,2013-05-02 12:42:00,
2013-05-02 07:43:00,65.7,60.4,29.97,ENE,68,4.3,7.2,83,0.09,,,3.78,VWS V14.01,2013-05-02 12:43:00,
2013-05-02 07:44:00,65.7,60.4,29.97,NE,45,2.9,6.3,83,0.09,,,3.78,VWS V14.01,2013-05-02 12:44:00,
2013-05-02 07:45:00,65.7,60.4,29.97,NNE,22,5.4,6.5,83,0.09,,,3.78,VWS V14.01,2013-05-02 12:45:00,
2013-05-02 07:46:00,65.7,60.7,29.97,ENE,68,2.5,5.4,84,0.09,,,3.78,VWS V14.01,2013-05-02 12:46:00,
2013-05-02 07:47:00,65.7,60.4,29.97,ENE,68,3.6,6.9,83,0.09,,,3.78,VWS V14.01,2013-05-02 12:47:00,
2013-05-02 07:48:00,65.7,60.4,29.97,East,90,3.6,3.6,83,0.09,,,3.78,VWS V14.01,2013-05-02 12:48:00,
2013-05-02 07:49:00,65.7,60.4,29.97,NE,45,3.1,3.6,83,0.09,,,3.78,VWS V14.01,2013-05-02 12:49:00,
2013-05-02 07:50:00,65.7,60.4,29.97,ESE,112,4.0,4.0,83,0.09,,,3.78,VWS V14.01,2013-05-02 12:50:00,
2013-05-02 07:51:00,65.7,60.4,29.97,NNE,22,7.4,7.4,83,0.09,,,3.78,VWS V14.01,2013-05-02 12:51:00,
2013-05-02 07:52:00,65.7,60.4,29.97,ENE,68,4.3,7.4,83,0.09,,,3.78,VWS V14.01,2013-05-02 12:52:00,
2013-05-02 07:53:00,65.7,60.4,29.97,ENE,68,3.8,5.8,83,0.09,,,3.78,VWS V14.01,2013-05-02 12:53:00,
2013-05-02 07:54:00,65.7,60.4,29.97,NE,45,5.4,5.4,83,0.09,,,3.78,VWS V14.01,2013-05-02 12:54:00,
2013-05-02 07:55:00,65.7,60.4,29.97,ENE,68,3.6,5.4,83,0.09,,,3.78,VWS V14.01,2013-05-02 12:55:00,
2013-05-02 07:56:00,65.7,60.4,29.97,ENE,68,5.8,5.8,83,0.09,,,3.78,VWS V14.01,2013-05-02 12:56:00,
2013-05-02 07:57:00,65.7,60.4,29.97,ENE,68,3.1,5.8,83,0.09,,,3.78,VWS V14.01,2013-05-02 12:57:00,
2013-05-02 07:58:00,65.7,60.4,29.97,NNE,22,6.3,6.3,83,0.09,,,3.78,VWS V14.01,2013-05-02 12:58:00,
2013-05-02 07:59:00,65.7,60.4,29.97,ENE,68,3.4,7.6,83,0.09,,,3.78,VWS V14.01,2013-05-02 12:59:00,
2013-05-02 08:00:00,65.7,60.4,29.97,ENE,68,3.4,3.4,83,0.09,,,3.78,VWS V14.01,2013-05-02 13:00:00,
2013-05-02 08:01:00,65.7,60.4,29.97,ENE,68,2.5,3.4,83,0.09,,,3.78,VWS V14.01,2013-05-02 13:01:00,
2013-05-02 08:03:00,65.8,60.5,29.97,NE,45,4.9,4.9,83,0.09,,,3.78,VWS V14.01,2013-05-02 13:03:00,
2013-05-02 08:04:00,65.8,60.5,29.97,NNE,22,5.8,5.8,83,0.09,,,3.78,VWS V14.01,2013-05-02 13:04:00,
2013-05-02 08:05:00,65.8,60.5,29.97,NE,45,5.6,5.8,83,0.09,,,3.78,VWS V14.01,2013-05-02 13:05:00,
2013-05-02 08:06:00,65.8,60.5,29.97,ENE,68,4.7,5.6,83,0.09,,,3.78,VWS V14.01,2013-05-02 13:06:00,
2013-05-02 08:07:00,65.8,60.5,29.97,NE,45,4.7,6.0,83,0.09,,,3.78,VWS V14.01,2013-05-02 13:07:00,
2013-05-02 08:08:00,65.8,60.5,29.97,NE,45,4.0,4.7,83,0.09,,,3.78,VWS V14.01,2013-05-02 13:08:00,
2013-05-02 08:09:00,65.8,60.5,29.97,NE,45,2.5,4.0,83,0.09,,,3.78,VWS V14.01,2013-05-02 13:09:00,
2013-05-02 08:10:00,65.8,60.5,29.97,ENE,68,4.0,5.6,83,0.04,,,3.78,VWS V14.01,2013-05-02 13:10:00,
2013-05-02 08:11:00,65.8,60.5,29.97,NE,45,2.0,4.0,83,0.04,,,3.78,VWS V14.01,2013-05-02 13:11:00,
2013-05-02 08:12:00,65.8,60.5,29.97,ENE,68,3.4,3.4,83,0.04,,,3.78,VWS V14.01,2013-05-02 13:12:00,
2013-05-02 08:13:00,65.8,60.5,29.97,East,90,2.7,3.4,83,0.04,,,3.78,VWS V14.01,2013-05-02 13:13:00,
2013-05-02 08:14:00,65.8,60.5,29.97,East,90,3.6,3.6,83,0.04,,,3.78,VWS V14.01,2013-05-02 13:14:00,
2013-05-02 08:15:00,65.8,60.5,29.97,NE,45,2.9,3.8,83,0.04,,,3.78,VWS V14.01,2013-05-02 13:15:00,
2013-05-02 08:16:00,65.8,60.5,29.97,East,90,2.7,2.9,83,0.04,,,3.78,VWS V14.01,2013-05-02 13:16:00,
2013-05-02 08:17:00,65.8,60.5,29.97,East,90,2.7,2.7,83,0.04,,,3.78,VWS V14.01,2013-05-02 13:17:00,
2013-05-02 08:18:00,66.0,61.0,29.97,ENE,68,1.3,4.3,84,0.04,,,3.78,VWS V14.01,2013-05-02 13:18:00,
2013-05-02 08:19:00,66.0,61.0,29.97,East,90,3.4,5.8,84,0.04,,,3.78,VWS V14.01,2013-05-02 13:19:00,
2013-05-02 08:20:00,66.0,61.0,29.97,ENE,68,4.3,4.3,84,0.04,,,3.78,VWS V14.01,2013-05-02 13:20:00,
2013-05-02 08:21:00,66.0,61.0,29.97,ENE,68,4.7,5.6,84,0.04,,,3.78,VWS V14.01,2013-05-02 13:21:00,
2013-05-02 08:22:00,66.0,61.0,29.97,ENE,68,4.0,4.7,84,0.04,,,3.78,VWS V14.01,2013-05-02 13:22:00,
2013-05-02 08:23:00,66.0,61.0,29.97,ENE,68,4.0,4.0,84,0.04,,,3.78,VWS V14.01,2013-05-02 13:23:00,
2013-05-02 08:24:00,66.0,61.0,29.97,NE,45,3.6,4.0,84,0.04,,,3.78,VWS V14.01,2013-05-02 13:24:00,
2013-05-02 08:25:00,66.0,61.0,29.97,ESE,112,3.4,3.6,84,0.04,,,3.78,VWS V14.01,2013-05-02 13:25:00,
2013-05-02 08:26:00,66.0,61.0,29.97,NE,45,4.9,5.4,84,0.04,,,3.78,VWS V14.01,2013-05-02 13:26:00,
2013-05-02 08:27:00,66.0,61.0,29.97,ENE,68,3.1,4.9,84,0.04,,,3.78,VWS V14.01,2013-05-02 13:27:00,
2013-05-02 08:28:00,66.0,61.0,29.97,ENE,68,2.2,4.3,84,0.04,,,3.78,VWS V14.01,2013-05-02 13:28:00,
2013-05-02 08:29:00,66.0,61.0,29.97,ENE,68,2.7,3.8,84,0.00,,,3.78,VWS V14.01,2013-05-02 13:29:00,
2013-05-02 08:30:00,66.0,61.0,29.97,NE,45,4.9,4.9,84,0.00,,,3.78,VWS V14.01,2013-05-02 13:30:00,
2013-05-02 08:31:00,66.0,61.0,29.97,NE,45,4.0,4.9,84,0.00,,,3.78,VWS V14.01,2013-05-02 13:31:00,
2013-05-02 08:32:00,66.0,61.0,29.97,NNE,22,3.1,5.6,84,0.00,,,3.78,VWS V14.01,2013-05-02 13:32:00,
2013-05-02 08:33:00,66.0,61.0,29.97,ENE,68,2.9,3.1,84,0.00,,,3.78,VWS V14.01,2013-05-02 13:33:00,
2013-05-02 08:34:00,66.0,61.0,29.97,NE,45,3.6,4.3,84,0.00,,,3.78,VWS V14.01,2013-05-02 13:34:00,
2013-05-02 08:35:00,66.2,60.9,29.97,NNE,22,4.0,4.0,83,0.00,,,3.78,VWS V14.01,2013-05-02 13:35:00,
2013-05-02 08:36:00,66.2,60.9,29.97,NE,45,4.0,4.0,83,0.00,,,3.78,VWS V14.01,2013-05-02 13:36:00,
2013-05-02 08:37:00,66.2,60.9,29.97,NE,45,6.3,6.3,83,0.00,,,3.78,VWS V14.01,2013-05-02 13:37:00,
2013-05-02 08:38:00,66.2,60.9,29.97,ENE,68,4.0,6.3,83,0.00,,,3.78,VWS V14.01,2013-05-02 13:38:00,
2013-05-02 08:39:00,66.2,60.9,29.97,ENE,68,3.8,4.3,83,0.00,,,3.78,VWS V14.01,2013-05-02 13:39:00,
2013-05-02 08:40:00,66.2,60.9,29.97,NE,45,2.7,4.3,83,0.00,,,3.78,VWS V14.01,2013-05-02 13:40:00,
2013-05-02 08:41:00,66.2,60.9,29.97,East,90,5.6,6.7,83,0.00,,,3.78,VWS V14.01,2013-05-02 13:41:00,
2013-05-02 08:42:00,66.2,60.9,29.97,ENE,68,1.3,5.6,83,0.00,,,3.78,VWS V14.01,2013-05-02 13:42:00,
2013-05-02 08:43:00,66.2,60.9,29.97,ENE,68,4.3,4.9,83,0.00,,,3.78,VWS V14.01,2013-05-02 13:43:00,
2013-05-02 08:44:00,66.2,60.9,29.97,NE,45,4.0,4.7,83,0.00,,,3.78,VWS V14.01,2013-05-02 13:44:00,
2013-05-02 08:45:00,66.2,60.9,29.97,ENE,68,3.8,4.0,83,0.00,,,3.78,VWS V14.01,2013-05-02 13:45:00,
2013-05-02 08:46:00,66.4,61.1,29.97,ENE,68,3.8,5.6,83,0.00,,,3.78,VWS V14.01,2013-05-02 13:46:00,
2013-05-02 08:47:00,66.4,61.1,29.97,ENE,68,3.6,3.8,83,0.00,,,3.78,VWS V14.01,2013-05-02 13:47:00,
2013-05-02 08:48:00,66.4,61.1,30.00,ENE,68,2.9,3.6,83,0.00,,,3.78,VWS V14.01,2013-05-02 13:48:00,
2013-05-02 08:49:00,66.4,61.1,30.00,East,90,4.3,4.3,83,0.00,,,3.78,VWS V14.01,2013-05-02 13:49:00,
2013-05-02 08:50:00,66.4,61.1,30.00,ENE,68,1.1,5.6,83,0.00,,,3.78,VWS V14.01,2013-05-02 13:50:00,
2013-05-02 08:51:00,66.4,61.1,30.00,ENE,68,2.9,4.0,83,0.00,,,3.78,VWS V14.01,2013-05-02 13:51:00,
2013-05-02 08:52:00,66.4,61.1,30.00,NE,45,1.3,3.8,83,0.00,,,3.78,VWS V14.01,2013-05-02 13:52:00,
2013-05-02 08:53:00,66.4,61.1,30.00,NE,45,7.6,7.6,83,0.00,,,3.78,VWS V14.01,2013-05-02 13:53:00,
2013-05-02 08:54:00,66.4,61.1,30.00,NE,45,3.6,7.6,83,0.00,,,3.78,VWS V14.01,2013-05-02 13:54:00,
2013-05-02 08:55:00,66.4,61.1,30.00,ENE,68,2.5,4.3,83,0.00,,,3.78,VWS V14.01,2013-05-02 13:55:00,
2013-05-02 08:57:00,66.4,61.1,30.00,WSW,248,2.0,4.9,83,0.00,,,3.78,VWS V14.01,2013-05-02 13:57:00,
2013-05-02 08:58:00,66.6,61.2,30.00,ENE,68,6.3,6.7,83,0.00,,,3.78,VWS V14.01,2013-05-02 13:58:00,
2013-05-02 08:59:00,66.6,61.2,30.00,ENE,68,3.1,6.3,83,0.00,,,3.78,VWS V14.01,2013-05-02 13:59:00,
2013-05-02 09:00:00,66.6,61.2,30.00,ENE,68,3.6,5.8,83,0.00,,,3.78,VWS V14.01,2013-05-02 14:00:00,
2013-05-02 09:01:00,66.6,61.2,30.00,ENE,68,2.7,3.6,83,0.00,,,3.78,VWS V14.01,2013-05-02 14:01:00,
2013-05-02 09:02:00,66.6,61.2,30.00,ENE,68,3.6,4.5,83,0.00,,,3.78,VWS V14.01,2013-05-02 14:02:00,
2013-05-02 09:03:00,66.6,61.6,29.97,ENE,68,6.3,6.3,84,0.00,,,3.78,VWS V14.01,2013-05-02 14:03:00,
2013-05-02 09:04:00,66.6,61.2,29.97,ENE,68,4.7,6.3,83,0.00,,,3.78,VWS V14.01,2013-05-02 14:04:00,
2013-05-02 09:05:00,66.6,61.2,29.97,NE,45,5.4,6.0,83,0.00,,,3.78,VWS V14.01,2013-05-02 14:05:00,
2013-05-02 09:06:00,66.6,61.2,29.97,ENE,68,2.0,6.5,83,0.00,,,3.78,VWS V14.01,2013-05-02 14:06:00,
2013-05-02 09:07:00,66.7,61.8,29.97,NNE,22,2.0,2.7,84,0.00,,,3.78,VWS V14.01,2013-05-02 14:07:00,
2013-05-02 09:08:00,66.7,61.8,29.97,NE,45,6.3,6.3,84,0.00,,,3.78,VWS V14.01,2013-05-02 14:08:00,
2013-05-02 09:09:00,66.7,61.8,29.97,East,90,5.8,6.3,84,0.00,,,3.78,VWS V14.01,2013-05-02 14:09:00,
2013-05-02 09:11:00,66.7,61.8,29.97,East,90,4.7,6.5,84,0.00,,,3.78,VWS V14.01,2013-05-02 14:11:00,
2013-05-02 09:12:00,66.7,61.8,29.97,East,90,0.9,4.7,84,0.00,,,3.78,VWS V14.01,2013-05-02 14:12:00,
2013-05-02 09:13:00,66.9,61.9,29.97,ENE,68,6.3,6.3,84,0.00,,,3.78,VWS V14.01,2013-05-02 14:13:00,
2013-05-02 09:14:00,66.9,61.9,29.97,East,90,5.8,6.5,84,0.00,,,3.78,VWS V14.01,2013-05-02 14:14:00,
2013-05-02 09:15:00,66.9,61.9,29.97,ENE,68,5.4,5.8,84,0.00,,,3.78,VWS V14.01,2013-05-02 14:15:00,
2013-05-02 09:16:00,66.9,61.9,29.97,NE,45,6.5,7.8,84,0.00,,,3.78,VWS V14.01,2013-05-02 14:16:00,
2013-05-02 09:17:00,66.9,61.9,29.97,ENE,68,7.6,7.6,84,0.00,,,3.78,VWS V14.01,2013-05-02 14:17:00,
2013-05-02 09:18:00,66.9,61.9,30.00,NNE,22,4.0,7.6,84,0.00,,,3.78,VWS V14.01,2013-05-02 14:18:00,
2013-05-02 09:19:00,66.9,61.9,30.00,NE,45,6.5,9.8,84,0.00,,,3.78,VWS V14.01,2013-05-02 14:19:00,
2013-05-02 09:20:00,67.1,62.1,30.00,East,90,3.6,6.5,84,0.00,,,3.78,VWS V14.01,2013-05-02 14:20:00,
2013-05-02 09:21:00,67.1,62.1,30.00,ENE,68,0.9,7.6,84,0.00,,,3.78,VWS V14.01,2013-05-02 14:21:00,
2013-05-02 09:22:00,67.1,62.1,30.00,ENE,68,4.9,7.4,84,0.00,,,3.78,VWS V14.01,2013-05-02 14:22:00,
2013-05-02 09:23:00,67.1,62.1,30.00,ENE,68,7.6,7.6,84,0.00,,,3.78,VWS V14.01,2013-05-02 14:23:00,
2013-05-02 09:24:00,67.1,62.1,30.00,ENE,68,3.1,8.5,84,0.00,,,3.78,VWS V14.01,2013-05-02 14:24:00,
2013-05-02 09:25:00,67.1,62.1,30.00,NE,45,4.0,5.8,84,0.00,,,3.78,VWS V14.01,2013-05-02 14:25:00,
2013-05-02 09:26:00,67.1,62.1,30.00,ENE,68,6.0,6.5,84,0.00,,,3.78,VWS V14.01,2013-05-02 14:26:00,
2013-05-02 09:27:00,67.3,62.3,30.00,ENE,68,6.3,8.7,84,0.00,,,3.78,VWS V14.01,2013-05-02 14:27:00,
2013-05-02 09:28:00,67.3,62.3,30.00,East,90,8.7,9.0,84,0.00,,,3.78,VWS V14.01,2013-05-02 14:28:00,
2013-05-02 09:29:00,67.3,62.3,30.00,ENE,68,10.5,10.5,84,0.00,,,3.78,VWS V14.01,2013-05-02 14:29:00,
2013-05-02 09:30:00,67.3,62.3,30.00,ENE,68,6.3,10.5,84,0.00,,,3.78,VWS V14.01,2013-05-02 14:30:00,
2013-05-02 09:31:00,67.3,62.3,30.00,ENE,68,6.3,6.3,84,0.00,,,3.78,VWS V14.01,2013-05-02 14:31:00,
2013-05-02 09:32:00,67.3,62.3,30.00,ENE,68,4.0,7.6,84,0.00,,,3.78,VWS V14.01,2013-05-02 14:32:00,
2013-05-02 09:33:00,67.3,62.3,30.00,ENE,68,7.8,7.8,84,0.00,,,3.78,VWS V14.01,2013-05-02 14:33:00,
2013-05-02 09:34:00,67.5,62.5,30.00,NE,45,10.1,10.1,84,0.00,,,3.78,VWS V14.01,2013-05-02 14:34:00,
2013-05-02 09:35:00,67.5,62.5,30.00,ENE,68,5.6,10.1,84,0.00,,,3.78,VWS V14.01,2013-05-02 14:35:00,
2013-05-02 09:36:00,67.5,62.5,30.00,NE,45,12.8,12.8,84,0.00,,,3.78,VWS V14.01,2013-05-02 14:36:00,
2013-05-02 09:37:00,67.5,62.5,30.00,NE,45,5.8,12.8,84,0.00,,,3.78,VWS V14.01,2013-05-02 14:37:00,
2013-05-02 09:38:00,67.5,62.5,30.00,NNE,22,7.4,7.8,84,0.00,,,3.78,VWS V14.01,2013-05-02 14:38:00,
2013-05-02 09:40:00,67.5,62.5,30.00,ENE,68,5.6,7.8,84,0.00,,,3.78,VWS V14.01,2013-05-02 14:40:00,
2013-05-02 09:41:00,67.5,62.5,30.00,ENE,68,3.6,8.1,84,0.00,,,3.78,VWS V14.01,2013-05-02 14:41:00,
2013-05-02 09:42:00,67.5,62.5,30.00,ENE,68,4.3,4.5,84,0.00,,,3.78,VWS V14.01,2013-05-02 14:42:00,
2013-05-02 09:43:00,67.6,62.6,30.00,NE,45,5.4,10.1,84,0.00,,,3.78,VWS V14.01,2013-05-02 14:43:00,
2013-05-02 09:44:00,67.5,62.5,30.00,ENE,68,8.5,8.5,84,0.00,,,3.78,VWS V14.01,2013-05-02 14:44:00,
2013-05-02 09:45:00,67.6,62.6,30.00,NNE,22,4.0,8.5,84,0.00,,,3.78,VWS V14.01,2013-05-02 14:45:00,
2013-05-02 09:46:00,67.6,62.6,30.00,ENE,68,3.8,5.8,84,0.00,,,3.78,VWS V14.01,2013-05-02 14:46:00,
2013-05-02 09:47:00,67.6,62.6,30.00,NE,45,10.3,10.3,84,0.00,,,3.78,VWS V14.01,2013-05-02 14:47:00,
2013-05-02 09:48:00,67.6,62.6,29.97,ENE,68,4.7,10.3,84,0.00,,,3.78,VWS V14.01,2013-05-02 14:48:00,
2013-05-02 09:49:00,67.6,62.6,29.97,NE,45,7.6,7.6,84,0.00,,,3.78,VWS V14.01,2013-05-02 14:49:00,
2013-05-02 09:50:00,67.6,62.6,29.97,ENE,68,10.1,10.1,84,0.00,,,3.78,VWS V14.01,2013-05-02 14:50:00,
2013-05-02 09:51:00,67.6,62.6,29.97,NNE,22,7.6,10.1,84,0.00,,,3.78,VWS V14.01,2013-05-02 14:51:00,
2013-05-02 09:52:00,67.6,62.6,29.97,ENE,68,4.3,7.6,84,0.00,,,3.78,VWS V14.01,2013-05-02 14:52:00,
2013-05-02 09:53:00,67.6,62.6,29.97,ENE,68,8.1,8.1,84,0.00,,,3.78,VWS V14.01,2013-05-02 14:53:00,
2013-05-02 09:54:00,67.6,62.6,29.97,ENE,68,4.0,8.1,84,0.00,,,3.78,VWS V14.01,2013-05-02 14:54:00,
2013-05-02 09:55:00,67.6,62.6,29.97,ESE,112,4.9,5.6,84,0.00,,,3.78,VWS V14.01,2013-05-02 14:55:00,
2013-05-02 09:56:00,67.6,62.6,29.97,ESE,112,4.9,4.9,84,0.00,,,3.78,VWS V14.01,2013-05-02 14:56:00,
2013-05-02 09:57:00,67.6,62.6,29.97,NE,45,8.1,8.1,84,0.00,,,3.78,VWS V14.01,2013-05-02 14:57:00,
2013-05-02 09:58:00,67.8,62.8,29.97,ENE,68,8.5,8.5,84,0.00,,,3.78,VWS V14.01,2013-05-02 14:58:00,
2013-05-02 09:59:00,67.8,62.8,29.97,ENE,68,6.5,8.5,84,0.00,,,3.78,VWS V14.01,2013-05-02 14:59:00,
2013-05-02 10:00:00,67.8,62.8,29.97,NNE,22,3.6,10.5,84,0.00,,,3.78,VWS V14.01,2013-05-02 15:00:00,
2013-05-02 10:01:00,67.8,62.8,29.97,NE,45,11.0,11.0,84,0.00,,,3.78,VWS V14.01,2013-05-02 15:01:00,
2013-05-02 10:02:00,67.8,62.8,29.97,NE,45,6.0,11.0,84,0.00,,,3.78,VWS V14.01,2013-05-02 15:02:00,
2013-05-02 10:03:00,67.8,62.8,29.97,NE,45,8.7,13.0,84,0.00,,,3.78,VWS V14.01,2013-05-02 15:03:00,
2013-05-02 10:04:00,67.6,62.3,29.97,NNE,22,9.8,9.8,83,0.00,,,3.78,VWS V14.01,2013-05-02 15:04:00,
2013-05-02 10:05:00,67.6,62.3,29.97,East,90,6.5,9.8,83,0.00,,,3.78,VWS V14.01,2013-05-02 15:05:00,
2013-05-02 10:06:00,67.8,62.5,29.97,NE,45,11.0,11.0,83,0.00,,,3.78,VWS V14.01,2013-05-02 15:06:00,
2013-05-02 10:07:00,67.8,62.5,29.97,ENE,68,7.8,12.8,83,0.00,,,3.78,VWS V14.01,2013-05-02 15:07:00,
2013-05-02 10:08:00,67.8,62.5,29.97,East,90,8.7,10.3,83,0.00,,,3.78,VWS V14.01,2013-05-02 15:08:00,
2013-05-02 10:09:00,67.8,62.5,29.97,East,90,3.4,9.4,83,0.00,,,3.78,VWS V14.01,2013-05-02 15:09:00,
2013-05-02 10:10:00,67.8,62.5,29.97,NNE,22,6.0,6.0,83,0.00,,,3.78,VWS V14.01,2013-05-02 15:10:00,
2013-05-02 10:11:00,67.8,62.5,29.97,ESE,112,7.6,10.1,83,0.00,,,3.78,VWS V14.01,2013-05-02 15:11:00,
2013-05-02 10:12:00,67.8,62.5,29.97,ENE,68,7.2,10.3,83,0.00,,,3.78,VWS V14.01,2013-05-02 15:12:00,
2013-05-02 10:13:00,67.8,62.5,29.97,NE,45,6.0,9.6,83,0.00,,,3.78,VWS V14.01,2013-05-02 15:13:00,
2013-05-02 10:14:00,67.8,62.5,29.97,ENE,68,8.5,8.5,83,0.00,,,3.78,VWS V14.01,2013-05-02 15:14:00,
2013-05-02 10:15:00,67.8,62.5,29.97,East,90,5.8,8.5,83,0.00,,,3.78,VWS V14.01,2013-05-02 15:15:00,
2013-05-02 10:16:00,67.8,62.5,29.97,ENE,68,5.4,7.6,83,0.00,,,3.78,VWS V14.01,2013-05-02 15:16:00,
2013-05-02 10:17:00,67.8,62.5,29.97,ESE,112,4.9,10.3,83,0.00,,,3.78,VWS V14.01,2013-05-02 15:17:00,
2013-05-02 10:18:00,68.0,62.7,30.00,NNE,22,4.3,5.4,83,0.00,,,3.78,VWS V14.01,2013-05-02 15:18:00,
2013-05-02 10:19:00,68.0,62.7,30.00,NE,45,6.3,6.3,83,0.00,,,3.78,VWS V14.01,2013-05-02 15:19:00,
2013-05-02 10:20:00,68.2,62.5,30.00,ENE,68,6.9,6.9,82,0.00,,,3.78,VWS V14.01,2013-05-02 15:20:00,
2013-05-02 10:21:00,68.2,62.5,30.00,NE,45,7.2,7.2,82,0.00,,,3.78,VWS V14.01,2013-05-02 15:21:00,
2013-05-02 10:22:00,68.2,62.5,30.00,NE,45,10.7,10.7,82,0.00,,,3.78,VWS V14.01,2013-05-02 15:22:00,
2013-05-02 10:23:00,68.2,62.5,30.00,NE,45,7.8,10.7,82,0.00,,,3.78,VWS V14.01,2013-05-02 15:23:00,
2013-05-02 10:24:00,68.2,62.8,30.00,NE,45,4.0,7.8,83,0.00,,,3.78,VWS V14.01,2013-05-02 15:24:00,
2013-05-02 10:25:00,68.2,62.8,30.00,ENE,68,2.5,7.2,83,0.00,,,3.78,VWS V14.01,2013-05-02 15:25:00,
2013-05-02 10:26:00,68.4,63.0,30.00,ENE,68,2.5,2.5,83,0.00,,,3.78,VWS V14.01,2013-05-02 15:26:00,
2013-05-02 10:27:00,68.4,63.0,30.00,NE,45,3.4,4.0,83,0.00,,,3.78,VWS V14.01,2013-05-02 15:27:00,
2013-05-02 10:28:00,68.5,63.2,30.00,NE,45,2.0,6.3,83,0.00,,,3.78,VWS V14.01,2013-05-02 15:28:00,
2013-05-02 10:29:00,68.5,62.8,30.00,NE,45,3.8,10.1,82,0.00,,,3.78,VWS V14.01,2013-05-02 15:29:00,
2013-05-02 10:31:00,68.5,62.8,30.00,NE,45,8.7,9.6,82,0.00,,,3.78,VWS V14.01,2013-05-02 15:31:00,
2013-05-02 10:32:00,68.5,62.8,30.00,NE,45,5.8,10.3,82,0.00,,,3.78,VWS V14.01,2013-05-02 15:32:00,
2013-05-02 10:33:00,68.5,62.8,30.00,ENE,68,4.0,5.8,82,0.00,,,3.78,VWS V14.01,2013-05-02 15:33:00,
2013-05-02 10:34:00,68.5,62.8,30.00,NE,45,5.8,9.8,82,0.00,,,3.78,VWS V14.01,2013-05-02 15:34:00,
2013-05-02 10:35:00,68.5,62.8,30.00,East,90,5.8,11.0,82,0.00,,,3.78,VWS V14.01,2013-05-02 15:35:00,
2013-05-02 10:36:00,68.5,62.8,30.00,East,90,7.4,7.6,82,0.00,,,3.78,VWS V14.01,2013-05-02 15:36:00,
2013-05-02 10:37:00,68.5,62.8,30.00,ENE,68,5.4,7.6,82,0.00,,,3.78,VWS V14.01,2013-05-02 15:37:00,
2013-05-02 10:38:00,68.5,62.8,30.00,ENE,68,9.8,9.8,82,0.00,,,3.78,VWS V14.01,2013-05-02 15:38:00,
2013-05-02 10:39:00,68.5,62.8,30.00,NNE,22,4.0,9.8,82,0.00,,,3.78,VWS V14.01,2013-05-02 15:39:00,
2013-05-02 10:40:00,68.5,62.8,30.00,ENE,68,5.6,8.7,82,0.00,,,3.78,VWS V14.01,2013-05-02 15:40:00,
2013-05-02 10:41:00,68.5,62.8,30.00,NE,45,6.0,6.0,82,0.00,,,3.78,VWS V14.01,2013-05-02 15:41:00,
2013-05-02 10:42:00,68.5,62.8,30.00,ENE,68,4.3,6.3,82,0.00,,,3.78,VWS V14.01,2013-05-02 15:42:00,
2013-05-02 10:43:00,68.5,62.8,30.00,ENE,68,6.3,6.3,82,0.00,,,3.78,VWS V14.01,2013-05-02 15:43:00,
2013-05-02 10:44:00,68.5,62.8,30.00,East,90,3.4,6.3,82,0.00,,,3.78,VWS V14.01,2013-05-02 15:44:00,
2013-05-02 10:45:00,68.5,62.8,30.00,ESE,112,6.0,6.0,82,0.00,,,3.78,VWS V14.01,2013-05-02 15:45:00,
2013-05-02 10:46:00,68.5,62.8,30.00,ENE,68,5.8,7.8,82,0.00,,,3.78,VWS V14.01,2013-05-02 15:46:00,
2013-05-02 10:47:00,68.5,62.8,30.00,NE,45,6.0,6.0,82,0.00,,,3.78,VWS V14.01,2013-05-02 15:47:00,
2013-05-02 10:48:00,68.5,62.8,30.00,NNE,22,11.0,11.0,82,0.00,,,3.78,VWS V14.01,2013-05-02 15:48:00,
2013-05-02 10:49:00,68.5,62.8,30.00,East,90,6.0,11.0,82,0.00,,,3.78,VWS V14.01,2013-05-02 15:49:00,
2013-05-02 10:50:00,68.5,62.8,30.00,East,90,6.5,7.4,82,0.00,,,3.78,VWS V14.01,2013-05-02 15:50:00,
2013-05-02 10:51:00,68.5,62.8,30.00,East,90,3.6,14.8,82,0.00,,,3.78,VWS V14.01,2013-05-02 15:51:00,
2013-05-02 10:52:00,68.5,62.5,30.00,NNE,22,7.6,7.6,81,0.00,,,3.78,VWS V14.01,2013-05-02 15:52:00,
2013-05-02 10:53:00,68.5,62.5,30.00,East,90,9.8,9.8,81,0.00,,,3.78,VWS V14.01,2013-05-02 15:53:00,
2013-05-02 10:54:00,68.5,62.5,30.00,ENE,68,4.0,9.8,81,0.00,,,3.78,VWS V14.01,2013-05-02 15:54:00,
2013-05-02 10:55:00,68.5,62.5,30.00,NNE,22,11.0,11.0,81,0.00,,,3.78,VWS V14.01,2013-05-02 15:55:00,
2013-05-02 10:56:00,68.5,62.5,30.00,ENE,68,8.5,11.0,81,0.00,,,3.78,VWS V14.01,2013-05-02 15:56:00,
2013-05-02 10:57:00,68.5,62.5,30.00,NE,45,7.4,8.5,81,0.00,,,3.78,VWS V14.01,2013-05-02 15:57:00,
2013-05-02 10:58:00,68.5,62.5,30.00,ENE,68,4.9,10.3,81,0.00,,,3.78,VWS V14.01,2013-05-02 15:58:00,
2013-05-02 10:59:00,68.5,62.5,30.00,ENE,68,8.1,8.1,81,0.00,,,3.78,VWS V14.01,2013-05-02 15:59:00,
2013-05-02 11:00:00,68.5,62.1,30.00,NNE,22,6.7,8.1,80,0.00,,,3.78,VWS V14.01,2013-05-02 16:00:00,
2013-05-02 11:01:00,68.5,62.1,30.00,NE,45,3.6,6.7,80,0.00,,,3.78,VWS V14.01,2013-05-02 16:01:00,
2013-05-02 11:02:00,68.5,62.1,30.00,ENE,68,3.6,5.6,80,0.00,,,3.78,VWS V14.01,2013-05-02 16:02:00,
2013-05-02 11:03:00,68.7,62.3,30.00,ENE,68,6.0,6.5,80,0.00,,,3.78,VWS V14.01,2013-05-02 16:03:00,
2013-05-02 11:04:00,68.7,62.3,30.00,NE,45,4.9,7.4,80,0.00,,,3.78,VWS V14.01,2013-05-02 16:04:00,
2013-05-02 11:05:00,68.7,62.3,30.00,NE,45,2.9,5.8,80,0.00,,,3.78,VWS V14.01,2013-05-02 16:05:00,
2013-05-02 11:06:00,68.7,62.3,30.00,North,0,7.6,8.1,80,0.00,,,3.78,VWS V14.01,2013-05-02 16:06:00,
2013-05-02 11:07:00,68.7,62.3,30.00,NNE,22,8.1,9.2,80,0.00,,,3.78,VWS V14.01,2013-05-02 16:07:00,
2013-05-02 11:08:00,68.7,62.3,30.00,ENE,68,8.7,8.7,80,0.00,,,3.78,VWS V14.01,2013-05-02 16:08:00,
2013-05-02 11:09:00,68.7,62.3,30.00,NE,45,5.8,8.7,80,0.00,,,3.78,VWS V14.01,2013-05-02 16:09:00,
2013-05-02 11:10:00,68.7,62.3,30.00,NNE,22,5.4,8.5,80,0.00,,,3.78,VWS V14.01,2013-05-02 16:10:00,
2013-05-02 11:11:00,68.7,62.3,30.00,NE,45,7.8,7.8,80,0.00,,,3.78,VWS V14.01,2013-05-02 16:11:00,
2013-05-02 11:12:00,68.7,62.3,30.00,NNE,22,10.5,10.5,80,0.00,,,3.78,VWS V14.01,2013-05-02 16:12:00,
2013-05-02 11:13:00,68.7,62.3,30.00,ENE,68,7.6,10.5,80,0.00,,,3.78,VWS V14.01,2013-05-02 16:13:00,
2013-05-02 11:14:00,68.9,62.5,30.00,ENE,68,6.0,8.7,80,0.00,,,3.78,VWS V14.01,2013-05-02 16:14:00,
2013-05-02 11:15:00,68.9,62.5,30.00,East,90,7.4,10.5,80,0.00,,,3.78,VWS V14.01,2013-05-02 16:15:00,
2013-05-02 11:16:00,68.9,62.5,30.00,ENE,68,5.8,7.4,80,0.00,,,3.78,VWS V14.01,2013-05-02 16:16:00,
2013-05-02 11:17:00,68.5,62.1,30.00,NNE,22,6.3,10.3,80,0.00,,,3.78,VWS V14.01,2013-05-02 16:17:00,
2013-05-02 11:18:00,68.7,62.0,29.97,ESE,112,7.6,7.6,79,0.00,,,3.78,VWS V14.01,2013-05-02 16:18:00,
2013-05-02 11:19:00,68.7,61.6,29.97,ENE,68,3.8,7.6,78,0.00,,,3.78,VWS V14.01,2013-05-02 16:19:00,
2013-05-02 11:20:00,68.9,62.1,29.97,NE,45,11.0,11.0,79,0.00,,,3.78,VWS V14.01,2013-05-02 16:20:00,
2013-05-02 11:21:00,68.9,62.1,29.97,East,90,6.0,13.0,79,0.00,,,3.78,VWS V14.01,2013-05-02 16:21:00,
2013-05-02 11:22:00,68.9,62.1,29.97,NNE,22,6.0,9.4,79,0.00,,,3.78,VWS V14.01,2013-05-02 16:22:00,
2013-05-02 11:23:00,68.9,62.1,29.97,East,90,5.4,8.7,79,0.00,,,3.78,VWS V14.01,2013-05-02 16:23:00,
2013-05-02 11:24:00,68.9,62.1,29.97,East,90,6.0,8.5,79,0.00,,,3.78,VWS V14.01,2013-05-02 16:24:00,
2013-05-02 11:25:00,68.9,62.1,29.97,NNE,22,6.3,6.3,79,0.00,,,3.78,VWS V14.01,2013-05-02 16:25:00,
2013-05-02 11:26:00,69.1,61.9,29.97,ENE,68,5.8,7.6,78,0.00,,,3.78,VWS V14.01,2013-05-02 16:26:00,
2013-05-02 11:27:00,69.3,62.5,29.97,North,0,5.4,5.8,79,0.00,,,3.78,VWS V14.01,2013-05-02 16:27:00,
2013-05-02 11:28:00,69.3,62.5,29.97,NNE,22,3.6,9.0,79,0.00,,,3.78,VWS V14.01,2013-05-02 16:28:00,
2013-05-02 11:29:00,69.3,62.5,29.97,NE,45,6.0,7.8,79,0.00,,,3.78,VWS V14.01,2013-05-02 16:29:00,
2013-05-02 11:30:00,69.4,62.7,29.97,NNE,22,3.8,6.5,79,0.00,,,3.78,VWS V14.01,2013-05-02 16:30:00,
2013-05-02 11:32:00,69.4,62.7,29.97,ENE,68,6.3,10.1,79,0.00,,,3.78,VWS V14.01,2013-05-02 16:32:00,
2013-05-02 11:33:00,69.3,62.5,29.97,ESE,112,8.5,8.5,79,0.00,,,3.78,VWS V14.01,2013-05-02 16:33:00,
2013-05-02 11:34:00,69.3,62.1,29.97,NNE,22,8.1,10.3,78,0.00,,,3.78,VWS V14.01,2013-05-02 16:34:00,
2013-05-02 11:35:00,69.4,62.7,29.97,ENE,68,12.5,12.5,79,0.00,,,3.78,VWS V14.01,2013-05-02 16:35:00,
2013-05-02 11:36:00,69.3,62.1,29.97,NE,45,8.5,12.5,78,0.00,,,3.78,VWS V14.01,2013-05-02 16:36:00,
2013-05-02 11:37:00,69.3,62.1,29.97,North,0,4.7,8.7,78,0.00,,,3.78,VWS V14.01,2013-05-02 16:37:00,
2013-05-02 11:38:00,69.3,62.1,29.97,NNE,22,10.1,13.9,78,0.00,,,3.78,VWS V14.01,2013-05-02 16:38:00,
2013-05-02 11:39:00,69.3,62.1,29.97,ENE,68,5.4,10.1,78,0.00,,,3.78,VWS V14.01,2013-05-02 16:39:00,
2013-05-02 11:40:00,69.4,61.9,29.97,East,90,3.8,6.0,77,0.00,,,3.78,VWS V14.01,2013-05-02 16:40:00,
2013-05-02 11:41:00,69.4,61.9,29.97,NNW,338,2.0,7.6,77,0.00,,,3.78,VWS V14.01,2013-05-02 16:41:00,
2013-05-02 11:42:00,69.4,61.2,29.97,ESE,112,6.5,6.5,75,0.00,,,3.78,VWS V14.01,2013-05-02 16:42:00,
2013-05-02 11:43:00,69.6,61.3,29.97,NE,45,3.1,7.4,75,0.00,,,3.78,VWS V14.01,2013-05-02 16:43:00,
2013-05-02 11:44:00,69.6,61.7,29.97,ESE,112,6.5,8.5,76,0.00,,,3.78,VWS V14.01,2013-05-02 16:44:00,
2013-05-02 11:45:00,69.6,61.7,29.97,ENE,68,6.7,6.7,76,0.00,,,3.78,VWS V14.01,2013-05-02 16:45:00,
2013-05-02 11:46:00,69.6,61.7,29.97,NE,45,6.0,6.7,76,0.00,,,3.78,VWS V14.01,2013-05-02 16:46:00,
2013-05-02 11:47:00,69.6,61.7,29.97,WNW,292,1.6,6.0,76,0.00,,,3.78,VWS V14.01,2013-05-02 16:47:00,
2013-05-02 11:48:00,69.8,61.5,29.97,NE,45,4.7,5.6,75,0.00,,,3.78,VWS V14.01,2013-05-02 16:48:00,
2013-05-02 11:49:00,69.8,61.9,29.97,NNE,22,6.3,7.8,76,0.00,,,3.78,VWS V14.01,2013-05-02 16:49:00,
2013-05-02 11:50:00,69.8,61.9,29.97,North,0,8.5,13.0,76,0.00,,,3.78,VWS V14.01,2013-05-02 16:50:00,
2013-05-02 11:51:00,69.8,61.9,29.97,ENE,68,8.1,8.5,76,0.00,,,3.78,VWS V14.01,2013-05-02 16:51:00,
2013-05-02 11:52:00,69.8,61.9,29.97,East,90,7.2,8.5,76,0.00,,,3.78,VWS V14.01,2013-05-02 16:52:00,
2013-05-02 11:53:00,69.8,61.9,29.97,ENE,68,6.5,7.2,76,0.00,,,3.78,VWS V14.01,2013-05-02 16:53:00,
2013-05-02 11:54:00,69.8,61.9,29.97,NE,45,7.6,7.6,76,0.00,,,3.78,VWS V14.01,2013-05-02 16:54:00,
2013-05-02 11:55:00,69.8,61.9,29.97,ENE,68,7.2,7.6,76,0.00,,,3.78,VWS V14.01,2013-05-02 16:55:00,
2013-05-02 11:56:00,69.8,61.9,29.97,East,90,6.3,7.6,76,0.00,,,3.78,VWS V14.01,2013-05-02 16:56:00,
2013-05-02 11:57:00,69.8,61.9,29.97,NNE,22,5.4,6.3,76,0.00,,,3.78,VWS V14.01,2013-05-02 16:57:00,
2013-05-02 11:59:00,69.8,61.9,29.97,NE,45,2.7,10.7,76,0.00,,,3.78,VWS V14.01,2013-05-02 16:59:00,
2013-05-02 12:00:00,69.8,61.9,29.97,ENE,68,7.4,8.1,76,0.00,,,3.78,VWS V14.01,2013-05-02 17:00:00,
2013-05-02 12:01:00,69.8,60.8,29.97,NE,45,7.2,10.3,73,0.00,,,3.78,VWS V14.01,2013-05-02 17:01:00,
2013-05-02 12:02:00,69.8,60.8,29.97,NE,45,13.2,13.2,73,0.00,,,3.78,VWS V14.01,2013-05-02 17:02:00,
2013-05-02 12:03:00,69.8,61.5,29.97,SE,135,7.8,13.2,75,0.00,,,3.78,VWS V14.01,2013-05-02 17:03:00,
2013-05-02 12:04:00,69.6,60.6,29.97,NNE,22,2.5,7.8,73,0.00,,,3.78,VWS V14.01,2013-05-02 17:04:00,
2013-05-02 12:05:00,69.8,61.2,29.97,NNE,22,8.7,10.3,74,0.00,,,3.78,VWS V14.01,2013-05-02 17:05:00,
2013-05-02 12:06:00,69.8,61.2,29.97,NE,45,7.4,9.8,74,0.00,,,3.78,VWS V14.01,2013-05-02 17:06:00,
2013-05-02 12:07:00,69.8,61.2,29.97,SE,135,7.8,9.8,74,0.00,,,3.78,VWS V14.01,2013-05-02 17:07:00,
2013-05-02 12:09:00,69.8,61.2,29.97,NE,45,7.4,7.8,74,0.00,,,3.78,VWS V14.01,2013-05-02 17:09:00,
2013-05-02 12:10:00,69.8,61.2,29.97,NNE,22,7.6,7.8,74,0.00,,,3.78,VWS V14.01,2013-05-02 17:10:00,
2013-05-02 12:11:00,69.8,60.8,29.97,NE,45,3.6,7.6,73,0.00,,,3.78,VWS V14.01,2013-05-02 17:11:00,
2013-05-02 12:12:00,70.0,60.9,29.97,NNE,22,7.8,8.5,73,0.00,,,3.78,VWS V14.01,2013-05-02 17:12:00,
2013-05-02 12:14:00,70.0,60.9,29.97,ENE,68,7.6,7.8,73,0.00,,,3.78,VWS V14.01,2013-05-02 17:14:00,
2013-05-02 12:15:00,70.0,60.9,29.97,ENE,68,3.8,7.6,73,0.00,,,3.78,VWS V14.01,2013-05-02 17:15:00,
2013-05-02 12:16:00,70.0,60.9,29.97,NNE,22,5.6,5.6,73,0.00,,,3.78,VWS V14.01,2013-05-02 17:16:00,
2013-05-02 12:17:00,70.0,60.9,29.97,ENE,68,3.1,8.5,73,0.00,,,3.78,VWS V14.01,2013-05-02 17:17:00,
2013-05-02 12:18:00,70.0,60.9,29.97,NE,45,5.6,5.6,73,0.00,,,3.78,VWS V14.01,2013-05-02 17:18:00,
2013-05-02 12:19:00,70.0,61.3,29.97,NNE,22,4.9,6.5,74,0.00,,,3.78,VWS V14.01,2013-05-02 17:19:00,
2013-05-02 12:20:00,70.2,61.5,29.97,NE,45,4.9,7.2,74,0.00,,,3.78,VWS V14.01,2013-05-02 17:20:00,
2013-05-02 12:21:00,70.2,61.5,29.97,NE,45,5.8,7.8,74,0.00,,,3.78,VWS V14.01,2013-05-02 17:21:00,
2013-05-02 12:22:00,70.2,61.5,29.97,ENE,68,4.3,5.8,74,0.00,,,3.78,VWS V14.01,2013-05-02 17:22:00,
2013-05-02 12:23:00,70.2,61.5,29.97,ENE,68,1.6,4.3,74,0.00,,,3.78,VWS V14.01,2013-05-02 17:23:00,
2013-05-02 12:24:00,70.2,61.5,29.97,NE,45,5.4,6.3,74,0.00,,,3.78,VWS V14.01,2013-05-02 17:24:00,
2013-05-02 12:25:00,70.2,61.5,29.97,ENE,68,5.4,5.4,74,0.00,,,3.78,VWS V14.01,2013-05-02 17:25:00,
2013-05-02 12:26:00,70.2,61.5,29.97,ENE,68,4.9,5.4,74,0.00,,,3.78,VWS V14.01,2013-05-02 17:26:00,
2013-05-02 12:27:00,70.3,61.7,29.97,NNE,22,3.4,5.4,74,0.00,,,3.78,VWS V14.01,2013-05-02 17:27:00,
2013-05-02 12:28:00,70.3,61.3,29.97,NE,45,6.5,6.5,73,0.00,,,3.78,VWS V14.01,2013-05-02 17:28:00,
2013-05-02 12:29:00,70.3,61.7,29.97,ENE,68,8.1,8.1,74,0.00,,,3.78,VWS V14.01,2013-05-02 17:29:00,
2013-05-02 12:30:00,70.3,61.7,29.97,NE,45,4.7,8.1,74,0.00,,,3.78,VWS V14.01,2013-05-02 17:30:00,
2013-05-02 12:31:00,70.3,61.3,29.97,NNE,22,3.8,8.1,73,0.00,,,3.78,VWS V14.01,2013-05-02 17:31:00,
2013-05-02 12:32:00,70.3,61.3,29.97,ENE,68,6.0,9.4,73,0.00,,,3.78,VWS V14.01,2013-05-02 17:32:00,
2013-05-02 12:33:00,70.3,61.3,29.97,ENE,68,6.0,6.0,73,0.00,,,3.78,VWS V14.01,2013-05-02 17:33:00,
2013-05-02 12:34:00,70.5,61.5,29.97,SSE,158,9.0,9.0,73,0.00,,,3.78,VWS V14.01,2013-05-02 17:34:00,
2013-05-02 12:35:00,70.5,61.5,29.97,ENE,68,4.3,9.0,73,0.00,,,3.78,VWS V14.01,2013-05-02 17:35:00,
2013-05-02 12:36:00,70.5,61.1,29.97,ENE,68,7.8,7.8,72,0.00,,,3.78,VWS V14.01,2013-05-02 17:36:00,
2013-05-02 12:37:00,70.5,61.1,29.97,NE,45,4.3,7.8,72,0.00,,,3.78,VWS V14.01,2013-05-02 17:37:00,
2013-05-02 12:38:00,70.5,60.7,29.97,ESE,112,2.0,10.1,71,0.00,,,3.78,VWS V14.01,2013-05-02 17:38:00,
2013-05-02 12:39:00,70.7,61.2,29.97,East,90,5.6,343.9,72,0.00,,,3.78,VWS V14.01,2013-05-02 17:39:00,
2013-05-02 12:40:00,70.7,61.2,29.97,ESE,112,4.9,343.9,72,0.00,,,3.78,VWS V14.01,2013-05-02 17:40:00,
2013-05-02 12:41:00,70.5,60.7,29.97,ENE,68,4.7,4.9,71,0.00,,,3.78,VWS V14.01,2013-05-02 17:41:00,
2013-05-02 12:42:00,70.5,61.1,29.97,NE,45,5.4,5.6,72,0.00,,,3.78,VWS V14.01,2013-05-02 17:42:00,
2013-05-02 12:43:00,70.5,61.1,29.97,ENE,68,3.4,5.4,72,0.00,,,3.78,VWS V14.01,2013-05-02 17:43:00,
2013-05-02 12:44:00,70.5,60.7,29.97,NNE,22,4.7,4.7,71,0.00,,,3.78,VWS V14.01,2013-05-02 17:44:00,
2013-05-02 12:45:00,70.7,60.8,29.97,ENE,68,8.7,8.7,71,0.00,,,3.78,VWS V14.01,2013-05-02 17:45:00,
2013-05-02 12:46:00,70.7,61.2,29.97,NE,45,7.8,10.1,72,0.00,,,3.78,VWS V14.01,2013-05-02 17:46:00,
2013-05-02 12:48:00,70.7,61.2,29.97,NNE,22,4.0,8.1,72,0.00,,,3.78,VWS V14.01,2013-05-02 17:48:00,
2013-05-02 12:49:00,70.7,60.8,29.97,ENE,68,4.3,7.4,71,0.00,,,3.78,VWS V14.01,2013-05-02 17:49:00,
2013-05-02 12:50:00,70.7,60.8,29.97,ENE,68,4.7,6.3,71,0.00,,,3.78,VWS V14.01,2013-05-02 17:50:00,
2013-05-02 12:51:00,70.7,60.8,29.97,ENE,68,3.4,4.7,71,0.00,,,3.78,VWS V14.01,2013-05-02 17:51:00,
2013-05-02 12:52:00,70.7,60.5,29.97,ENE,68,6.3,6.3,70,0.00,,,3.78,VWS V14.01,2013-05-02 17:52:00,
2013-05-02 12:53:00,70.9,60.6,29.97,ENE,68,5.4,6.3,70,0.00,,,3.78,VWS V14.01,2013-05-02 17:53:00,
2013-05-02 12:54:00,70.9,60.6,29.97,ESE,112,3.4,5.6,70,0.00,,,3.78,VWS V14.01,2013-05-02 17:54:00,
2013-05-02 12:55:00,70.9,60.6,29.97,ESE,112,3.4,3.4,70,0.00,,,3.78,VWS V14.01,2013-05-02 17:55:00,
2013-05-02 12:56:00,70.9,60.6,29.97,ESE,112,7.6,7.8,70,0.00,,,3.78,VWS V14.01,2013-05-02 17:56:00,
2013-05-02 12:57:00,70.9,61.0,29.97,NE,45,5.6,8.5,71,0.00,,,3.78,VWS V14.01,2013-05-02 17:57:00,
2013-05-02 12:58:00,71.1,61.2,29.97,East,90,3.4,6.3,71,0.00,,,3.78,VWS V14.01,2013-05-02 17:58:00,
2013-05-02 12:59:00,70.9,61.0,29.97,NE,45,3.1,6.0,71,0.00,,,3.78,VWS V14.01,2013-05-02 17:59:00,
2013-05-02 13:00:00,71.1,61.2,29.97,ENE,68,6.0,7.6,71,0.00,,,3.78,VWS V14.01,2013-05-02 18:00:00,
2013-05-02 13:01:00,71.1,60.8,29.97,ENE,68,8.7,8.7,70,0.00,,,3.78,VWS V14.01,2013-05-02 18:01:00,
2013-05-02 13:02:00,71.1,60.8,29.97,NE,45,6.0,8.7,70,0.00,,,3.78,VWS V14.01,2013-05-02 18:02:00,
2013-05-02 13:03:00,71.1,61.2,29.97,NE,45,3.8,6.5,71,0.00,,,3.78,VWS V14.01,2013-05-02 18:03:00,
2013-05-02 13:04:00,71.1,60.8,29.97,East,90,3.6,5.4,70,0.00,,,3.78,VWS V14.01,2013-05-02 18:04:00,
2013-05-02 13:05:00,71.1,60.8,29.97,SSE,158,2.2,3.6,70,0.00,,,3.78,VWS V14.01,2013-05-02 18:05:00,
2013-05-02 13:06:00,71.1,60.4,29.97,ESE,112,3.8,3.8,69,0.00,,,3.78,VWS V14.01,2013-05-02 18:06:00,
2013-05-02 13:07:00,71.1,60.0,29.97,ENE,68,3.8,3.8,68,0.00,,,3.78,VWS V14.01,2013-05-02 18:07:00,
2013-05-02 13:08:00,71.1,60.4,29.97,East,90,6.0,6.0,69,0.00,,,3.78,VWS V14.01,2013-05-02 18:08:00,
2013-05-02 13:09:00,71.1,60.4,29.97,NE,45,2.5,6.0,69,0.00,,,3.78,VWS V14.01,2013-05-02 18:09:00,
2013-05-02 13:10:00,71.1,60.4,29.97,ENE,68,3.8,3.8,69,0.00,,,3.78,VWS V14.01,2013-05-02 18:10:00,
2013-05-02 13:11:00,71.1,60.4,29.97,ENE,68,2.5,3.8,69,0.00,,,3.78,VWS V14.01,2013-05-02 18:11:00,
2013-05-02 13:12:00,71.1,60.8,29.97,NE,45,3.1,4.0,70,0.00,,,3.78,VWS V14.01,2013-05-02 18:12:00,
2013-05-02 13:13:00,71.1,60.8,29.97,ENE,68,2.2,4.0,70,0.00,,,3.78,VWS V14.01,2013-05-02 18:13:00,
2013-05-02 13:14:00,71.1,60.8,29.97,ENE,68,4.0,4.0,70,0.00,,,3.78,VWS V14.01,2013-05-02 18:14:00,
2013-05-02 13:15:00,71.2,61.0,29.97,NNE,22,6.0,6.0,70,0.00,,,3.78,VWS V14.01,2013-05-02 18:15:00,
2013-05-02 13:16:00,71.1,60.8,29.97,NNE,22,3.4,8.5,70,0.00,,,3.78,VWS V14.01,2013-05-02 18:16:00,
2013-05-02 13:17:00,71.1,60.8,29.97,ENE,68,3.1,8.5,70,0.00,,,3.78,VWS V14.01,2013-05-02 18:17:00,
2013-05-02 13:18:00,71.1,60.8,29.97,ESE,112,4.3,4.3,70,0.00,,,3.78,VWS V14.01,2013-05-02 18:18:00,
2013-05-02 13:19:00,71.1,60.8,29.97,NNE,22,2.5,6.3,70,0.00,,,3.78,VWS V14.01,2013-05-02 18:19:00,
2013-05-02 13:20:00,71.2,61.0,29.97,NE,45,4.3,4.9,70,0.00,,,3.78,VWS V14.01,2013-05-02 18:20:00,
2013-05-02 13:21:00,71.2,61.0,29.97,ENE,68,3.4,5.4,70,0.00,,,3.78,VWS V14.01,2013-05-02 18:21:00,
2013-05-02 13:22:00,71.1,60.8,29.97,ENE,68,3.8,4.9,70,0.00,,,3.78,VWS V14.01,2013-05-02 18:22:00,
2013-05-02 13:23:00,71.1,60.8,29.97,NE,45,3.8,3.8,70,0.00,,,3.78,VWS V14.01,2013-05-02 18:23:00,
2013-05-02 13:24:00,71.1,60.8,29.97,ENE,68,2.5,3.8,70,0.00,,,3.78,VWS V14.01,2013-05-02 18:24:00,
2013-05-02 13:26:00,71.1,60.8,29.97,ENE,68,4.9,5.4,70,0.00,,,3.78,VWS V14.01,2013-05-02 18:26:00,
2013-05-02 13:27:00,71.1,60.8,29.97,ENE,68,4.0,5.8,70,0.00,,,3.78,VWS V14.01,2013-05-02 18:27:00,
2013-05-02 13:28:00,71.1,60.8,29.97,East,90,5.6,6.5,70,0.00,,,3.78,VWS V14.01,2013-05-02 18:28:00,
2013-05-02 13:29:00,71.1,60.8,29.97,NNE,22,4.9,5.6,70,0.00,,,3.78,VWS V14.01,2013-05-02 18:29:00,
2013-05-02 13:30:00,71.1,60.8,29.97,NE,45,5.4,6.3,70,0.00,,,3.78,VWS V14.01,2013-05-02 18:30:00,
2013-05-02 13:31:00,71.1,60.8,29.97,ENE,68,4.7,5.4,70,0.00,,,3.78,VWS V14.01,2013-05-02 18:31:00,
2013-05-02 13:32:00,71.2,61.0,29.97,ENE,68,3.4,4.7,70,0.00,,,3.78,VWS V14.01,2013-05-02 18:32:00,
2013-05-02 13:33:00,71.2,61.0,29.97,ENE,68,3.8,6.0,70,0.00,,,3.78,VWS V14.01,2013-05-02 18:33:00,
2013-05-02 13:34:00,71.2,61.0,29.97,ESE,112,6.3,6.3,70,0.00,,,3.78,VWS V14.01,2013-05-02 18:34:00,
2013-05-02 13:35:00,71.2,61.0,29.97,SSE,158,4.3,6.3,70,0.00,,,3.78,VWS V14.01,2013-05-02 18:35:00,
2013-05-02 13:36:00,71.2,61.0,29.97,ESE,112,3.8,4.7,70,0.00,,,3.78,VWS V14.01,2013-05-02 18:36:00,
2013-05-02 13:37:00,71.2,61.0,29.97,East,90,4.9,4.9,70,0.00,,,3.78,VWS V14.01,2013-05-02 18:37:00,
2013-05-02 13:38:00,71.2,61.0,29.97,NNE,22,4.0,5.8,70,0.00,,,3.78,VWS V14.01,2013-05-02 18:38:00,
2013-05-02 13:39:00,71.2,61.0,29.97,ENE,68,4.3,6.7,70,0.00,,,3.78,VWS V14.01,2013-05-02 18:39:00,
2013-05-02 13:40:00,71.2,61.0,29.97,ENE,68,4.7,5.4,70,0.00,,,3.78,VWS V14.01,2013-05-02 18:40:00,
2013-05-02 13:41:00,71.2,61.0,29.97,NNE,22,3.1,5.6,70,0.00,,,3.78,VWS V14.01,2013-05-02 18:41:00,
2013-05-02 13:42:00,71.2,61.0,29.97,NE,45,6.0,6.0,70,0.00,,,3.78,VWS V14.01,2013-05-02 18:42:00,
2013-05-02 13:43:00,71.2,61.0,29.97,NE,45,3.8,6.0,70,0.00,,,3.78,VWS V14.01,2013-05-02 18:43:00,
2013-05-02 13:44:00,71.4,61.1,29.97,ENE,68,4.9,5.8,70,0.00,,,3.78,VWS V14.01,2013-05-02 18:44:00,
2013-05-02 13:45:00,71.4,61.1,29.97,ENE,68,4.0,5.4,70,0.00,,,3.78,VWS V14.01,2013-05-02 18:45:00,
2013-05-02 13:46:00,71.4,61.1,29.97,ENE,68,6.3,6.3,70,0.00,,,3.78,VWS V14.01,2013-05-02 18:46:00,
2013-05-02 13:47:00,71.4,61.1,29.97,East,90,4.3,6.3,70,0.00,,,3.78,VWS V14.01,2013-05-02 18:47:00,
2013-05-02 13:48:00,71.4,61.1,29.97,NE,45,5.4,5.4,70,0.00,,,3.78,VWS V14.01,2013-05-02 18:48:00,
2013-05-02 13:49:00,71.4,61.1,29.97,ESE,112,4.7,5.6,70,0.00,,,3.78,VWS V14.01,2013-05-02 18:49:00,
2013-05-02 13:51:00,71.4,61.1,29.97,ENE,68,6.0,6.3,70,0.00,,,3.78,VWS V14.01,2013-05-02 18:51:00,
2013-05-02 13:52:00,71.4,61.1,29.97,NNE,22,5.8,6.5,70,0.00,,,3.78,VWS V14.01,2013-05-02 18:52:00,
2013-05-02 13:53:00,71.4,61.1,29.97,ENE,68,5.4,5.8,70,0.00,,,3.78,VWS V14.01,2013-05-02 18:53:00,
2013-05-02 13:54:00,71.4,61.1,29.97,ENE,68,4.3,6.3,70,0.00,,,3.78,VWS V14.01,2013-05-02 18:54:00,
2013-05-02 13:55:00,71.4,61.1,29.97,NNE,22,6.0,6.0,70,0.00,,,3.78,VWS V14.01,2013-05-02 18:55:00,
2013-05-02 13:56:00,71.4,61.1,29.97,NE,45,3.1,6.0,70,0.00,,,3.78,VWS V14.01,2013-05-02 18:56:00,
2013-05-02 13:57:00,71.4,61.1,29.97,ENE,68,4.0,4.3,70,0.00,,,3.78,VWS V14.01,2013-05-02 18:57:00,
2013-05-02 13:58:00,71.4,61.1,29.97,NE,45,4.3,5.6,70,0.00,,,3.78,VWS V14.01,2013-05-02 18:58:00,
2013-05-02 13:59:00,71.4,61.1,29.97,ENE,68,4.3,4.3,70,0.00,,,3.78,VWS V14.01,2013-05-02 18:59:00,
2013-05-02 14:00:00,71.4,61.1,29.97,ENE,68,3.6,4.3,70,0.00,,,3.78,VWS V14.01,2013-05-02 19:00:00,
2013-05-02 14:01:00,71.4,61.1,29.97,NE,45,2.7,3.6,70,0.00,,,3.78,VWS V14.01,2013-05-02 19:01:00,
2013-05-02 14:02:00,71.4,61.1,29.97,NE,45,3.1,3.8,70,0.00,,,3.78,VWS V14.01,2013-05-02 19:02:00,
2013-05-02 14:03:00,71.4,61.1,29.94,NE,45,3.1,3.1,70,0.00,,,3.78,VWS V14.01,2013-05-02 19:03:00,
2013-05-02 14:04:00,71.4,61.1,29.94,NE,45,2.5,3.1,70,0.00,,,3.78,VWS V14.01,2013-05-02 19:04:00,
2013-05-02 14:06:00,71.4,61.1,29.94,NNE,22,2.9,4.3,70,0.00,,,3.78,VWS V14.01,2013-05-02 19:06:00,
2013-05-02 14:07:00,71.4,61.1,29.94,ENE,68,4.9,4.9,70,0.00,,,3.78,VWS V14.01,2013-05-02 19:07:00,
2013-05-02 14:08:00,71.4,61.1,29.94,ENE,68,6.0,6.0,70,0.00,,,3.78,VWS V14.01,2013-05-02 19:08:00,
2013-05-02 14:09:00,71.4,61.1,29.94,ENE,68,4.3,6.0,70,0.00,,,3.78,VWS V14.01,2013-05-02 19:09:00,
2013-05-02 14:10:00,71.6,60.9,29.94,NE,45,4.7,4.7,69,0.00,,,3.78,VWS V14.01,2013-05-02 19:10:00,
2013-05-02 14:11:00,71.6,60.9,29.94,NE,45,3.8,4.9,69,0.00,,,3.78,VWS V14.01,2013-05-02 19:11:00,
2013-05-02 14:12:00,71.6,60.9,29.94,NE,45,2.5,3.8,69,0.00,,,3.78,VWS V14.01,2013-05-02 19:12:00,
2013-05-02 14:13:00,71.6,60.9,29.94,ENE,68,2.5,3.4,69,0.00,,,3.78,VWS V14.01,2013-05-02 19:13:00,
2013-05-02 14:14:00,71.6,61.3,29.94,NE,45,3.1,3.1,70,0.00,,,3.78,VWS V14.01,2013-05-02 19:14:00,
2013-05-02 14:15:00,71.6,61.3,29.94,East,90,1.6,3.1,70,0.00,,,3.78,VWS V14.01,2013-05-02 19:15:00,
2013-05-02 14:16:00,71.6,61.3,29.94,ENE,68,3.1,4.9,70,0.00,,,3.78,VWS V14.01,2013-05-02 19:16:00,
2013-05-02 14:17:00,71.6,61.3,29.94,NE,45,4.0,4.0,70,0.00,,,3.78,VWS V14.01,2013-05-02 19:17:00,
2013-05-02 14:18:00,71.6,60.9,29.94,ENE,68,2.9,4.0,69,0.00,,,3.78,VWS V14.01,2013-05-02 19:18:00,
2013-05-02 14:19:00,71.6,61.3,29.94,NE,45,4.3,4.3,70,0.00,,,3.78,VWS V14.01,2013-05-02 19:19:00,
2013-05-02 14:20:00,71.6,61.3,29.94,ENE,68,4.3,5.8,70,0.00,,,3.78,VWS V14.01,2013-05-02 19:20:00,
2013-05-02 14:21:00,71.6,61.3,29.94,ENE,68,2.7,4.3,70,0.00,,,3.78,VWS V14.01,2013-05-02 19:21:00,
2013-05-02 14:22:00,71.8,61.5,29.94,ENE,68,3.4,4.0,70,0.00,,,3.78,VWS V14.01,2013-05-02 19:22:00,
2013-05-02 14:23:00,71.8,61.5,29.94,NE,45,6.3,7.2,70,0.00,,,3.78,VWS V14.01,2013-05-02 19:23:00,
2013-05-02 14:24:00,71.8,61.5,29.94,NNE,22,5.8,8.5,70,0.00,,,3.78,VWS V14.01,2013-05-02 19:24:00,
2013-05-02 14:25:00,71.8,61.5,29.94,ENE,68,4.9,5.8,70,0.00,,,3.78,VWS V14.01,2013-05-02 19:25:00,
2013-05-02 14:26:00,71.8,61.5,29.94,NNE,22,7.4,8.7,70,0.00,,,3.78,VWS V14.01,2013-05-02 19:26:00,
2013-05-02 14:27:00,71.8,61.5,29.94,ENE,68,6.3,7.6,70,0.00,,,3.78,VWS V14.01,2013-05-02 19:27:00,
2013-05-02 14:28:00,71.8,61.5,29.94,NNE,22,3.6,6.5,70,0.00,,,3.78,VWS V14.01,2013-05-02 19:28:00,
2013-05-02 14:29:00,71.8,61.1,29.94,ENE,68,7.6,7.6,69,0.00,,,3.78,VWS V14.01,2013-05-02 19:29:00,
2013-05-02 14:30:00,71.8,61.1,29.94,ENE,68,3.4,7.6,69,0.00,,,3.78,VWS V14.01,2013-05-02 19:30:00,
2013-05-02 14:31:00,71.8,61.1,29.94,ENE,68,4.9,5.6,69,0.00,,,3.78,VWS V14.01,2013-05-02 19:31:00,
2013-05-02 14:33:00,71.8,61.1,29.94,ENE,68,2.7,7.2,69,0.00,,,3.78,VWS V14.01,2013-05-02 19:33:00,
2013-05-02 14:34:00,71.8,61.1,29.94,ENE,68,3.8,4.7,69,0.00,,,3.78,VWS V14.01,2013-05-02 19:34:00,
2013-05-02 14:35:00,71.8,61.1,29.94,NE,45,5.6,6.0,69,0.00,,,3.78,VWS V14.01,2013-05-02 19:35:00,
2013-05-02 14:36:00,71.8,61.1,29.94,ENE,68,4.0,6.5,69,0.00,,,3.78,VWS V14.01,2013-05-02 19:36:00,
2013-05-02 14:37:00,71.8,60.7,29.94,ENE,68,3.6,5.6,68,0.00,,,3.78,VWS V14.01,2013-05-02 19:37:00,
2013-05-02 14:38:00,71.8,60.7,29.94,ENE,68,5.4,5.4,68,0.00,,,3.78,VWS V14.01,2013-05-02 19:38:00,
2013-05-02 14:39:00,72.0,60.8,29.94,East,90,4.9,6.5,68,0.00,,,3.78,VWS V14.01,2013-05-02 19:39:00,
2013-05-02 14:40:00,72.0,60.8,29.94,East,90,4.9,4.9,68,0.00,,,3.78,VWS V14.01,2013-05-02 19:40:00,
2013-05-02 14:41:00,72.0,60.8,29.94,ENE,68,4.3,4.9,68,0.00,,,3.78,VWS V14.01,2013-05-02 19:41:00,
2013-05-02 14:42:00,72.0,60.8,29.94,NE,45,3.6,5.4,68,0.00,,,3.78,VWS V14.01,2013-05-02 19:42:00,
2013-05-02 14:43:00,72.0,60.8,29.94,ENE,68,3.6,4.0,68,0.00,,,3.78,VWS V14.01,2013-05-02 19:43:00,
2013-05-02 14:44:00,72.0,60.8,29.94,ENE,68,3.4,3.6,68,0.00,,,3.78,VWS V14.01,2013-05-02 19:44:00,
2013-05-02 14:45:00,72.0,60.8,29.94,NE,45,4.3,4.3,68,0.00,,,3.78,VWS V14.01,2013-05-02 19:45:00,
2013-05-02 14:46:00,72.0,60.8,29.94,ENE,68,5.6,6.0,68,0.00,,,3.78,VWS V14.01,2013-05-02 19:46:00,
2013-05-02 14:47:00,72.0,60.8,29.94,NNE,22,5.4,7.8,68,0.00,,,3.78,VWS V14.01,2013-05-02 19:47:00,
2013-05-02 14:48:00,72.1,60.2,29.94,ENE,68,2.9,5.6,66,0.00,,,3.78,VWS V14.01,2013-05-02 19:48:00,
2013-05-02 14:49:00,72.1,60.2,29.94,North,0,5.8,5.8,66,0.00,,,3.78,VWS V14.01,2013-05-02 19:49:00,
2013-05-02 14:50:00,72.0,60.4,29.94,ENE,68,7.6,7.8,67,0.00,,,3.78,VWS V14.01,2013-05-02 19:50:00,
2013-05-02 14:51:00,72.0,60.4,29.94,ENE,68,2.7,7.6,67,0.00,,,3.78,VWS V14.01,2013-05-02 19:51:00,
2013-05-02 14:52:00,72.0,60.4,29.94,ENE,68,4.3,4.9,67,0.00,,,3.78,VWS V14.01,2013-05-02 19:52:00,
2013-05-02 14:53:00,72.1,61.0,29.94,NE,45,4.9,6.5,68,0.00,,,3.78,VWS V14.01,2013-05-02 19:53:00,
2013-05-02 14:54:00,72.1,61.0,29.94,NE,45,2.7,6.0,68,0.00,,,3.78,VWS V14.01,2013-05-02 19:54:00,
2013-05-02 14:55:00,72.1,61.0,29.94,NE,45,6.3,6.3,68,0.00,,,3.78,VWS V14.01,2013-05-02 19:55:00,
2013-05-02 14:56:00,72.1,61.0,29.94,ENE,68,4.0,6.3,68,0.00,,,3.78,VWS V14.01,2013-05-02 19:56:00,
2013-05-02 14:57:00,72.1,60.6,29.94,ENE,68,2.7,4.0,67,0.00,,,3.78,VWS V14.01,2013-05-02 19:57:00,
2013-05-02 14:58:00,72.1,60.6,29.94,NNE,22,3.8,4.3,67,0.00,,,3.78,VWS V14.01,2013-05-02 19:58:00,
2013-05-02 14:59:00,72.1,61.0,29.94,NNE,22,5.6,5.6,68,0.00,,,3.78,VWS V14.01,2013-05-02 19:59:00,
2013-05-02 15:00:00,72.1,60.6,29.94,NE,45,4.7,7.2,67,0.00,,,3.78,VWS V14.01,2013-05-02 20:00:00,
2013-05-02 15:01:00,72.1,60.6,29.94,NE,45,4.0,4.7,67,0.00,,,3.78,VWS V14.01,2013-05-02 20:01:00,
2013-05-02 15:02:00,72.3,60.8,29.94,NE,45,3.1,4.0,67,0.00,,,3.78,VWS V14.01,2013-05-02 20:02:00,
2013-05-02 15:03:00,72.3,60.8,29.94,ENE,68,7.6,7.6,67,0.00,,,3.78,VWS V14.01,2013-05-02 20:03:00,
2013-05-02 15:04:00,72.3,60.8,29.94,NE,45,4.7,7.6,67,0.00,,,3.78,VWS V14.01,2013-05-02 20:04:00,
2013-05-02 15:05:00,72.3,60.8,29.94,ENE,68,5.8,9.4,67,0.00,,,3.78,VWS V14.01,2013-05-02 20:05:00,
2013-05-02 15:06:00,72.3,60.8,29.94,ENE,68,7.6,7.8,67,0.00,,,3.78,VWS V14.01,2013-05-02 20:06:00,
2013-05-02 15:07:00,72.3,60.8,29.94,ENE,68,7.6,7.6,67,0.00,,,3.78,VWS V14.01,2013-05-02 20:07:00,
2013-05-02 15:08:00,72.3,60.8,29.94,NE,45,4.9,7.6,67,0.00,,,3.78,VWS V14.01,2013-05-02 20:08:00,
2013-05-02 15:09:00,72.3,60.8,29.94,ENE,68,4.9,7.4,67,0.00,,,3.78,VWS V14.01,2013-05-02 20:09:00,
2013-05-02 15:10:00,72.3,60.8,29.94,ENE,68,4.9,4.9,67,0.00,,,3.78,VWS V14.01,2013-05-02 20:10:00,
2013-05-02 15:11:00,72.3,60.8,29.94,ENE,68,4.9,5.4,67,0.00,,,3.78,VWS V14.01,2013-05-02 20:11:00,
2013-05-02 15:12:00,72.3,60.8,29.94,ENE,68,2.7,5.6,67,0.00,,,3.78,VWS V14.01,2013-05-02 20:12:00,
2013-05-02 15:13:00,72.3,60.8,29.94,NE,45,2.2,4.7,67,0.00,,,3.78,VWS V14.01,2013-05-02 20:13:00,
2013-05-02 15:14:00,72.3,60.8,29.94,ESE,112,3.1,3.4,67,0.00,,,3.78,VWS V14.01,2013-05-02 20:14:00,
2013-05-02 15:15:00,72.5,60.1,29.94,NNE,22,5.6,6.0,65,0.00,,,3.78,VWS V14.01,2013-05-02 20:15:00,
2013-05-02 15:16:00,72.5,60.1,29.94,NNE,22,3.8,6.0,65,0.00,,,3.78,VWS V14.01,2013-05-02 20:16:00,
2013-05-02 15:17:00,72.5,60.5,29.94,NE,45,4.3,4.3,66,0.00,,,3.78,VWS V14.01,2013-05-02 20:17:00,
2013-05-02 15:18:00,72.5,60.5,29.94,NE,45,3.6,4.3,66,0.00,,,3.78,VWS V14.01,2013-05-02 20:18:00,
2013-05-02 15:19:00,72.5,60.5,29.94,ENE,68,4.3,5.6,66,0.00,,,3.78,VWS V14.01,2013-05-02 20:19:00,
2013-05-02 15:20:00,72.5,60.5,29.94,NNE,22,10.1,10.1,66,0.00,,,3.78,VWS V14.01,2013-05-02 20:20:00,
2013-05-02 15:21:00,72.7,61.1,29.94,ENE,68,6.0,10.1,67,0.00,,,3.78,VWS V14.01,2013-05-02 20:21:00,
2013-05-02 15:22:00,72.7,60.7,29.94,ENE,68,5.6,6.0,66,0.00,,,3.78,VWS V14.01,2013-05-02 20:22:00,
2013-05-02 15:23:00,72.7,60.7,29.94,NE,45,7.6,7.6,66,0.00,,,3.78,VWS V14.01,2013-05-02 20:23:00,
2013-05-02 15:24:00,72.7,60.7,29.94,NNE,22,3.6,7.6,66,0.00,,,3.78,VWS V14.01,2013-05-02 20:24:00,
2013-05-02 15:25:00,72.7,60.7,29.94,NNE,22,3.6,3.6,66,0.00,,,3.78,VWS V14.01,2013-05-02 20:25:00,
2013-05-02 15:26:00,72.9,60.4,29.94,NNE,22,5.4,7.6,65,0.00,,,3.78,VWS V14.01,2013-05-02 20:26:00,
2013-05-02 15:27:00,72.9,59.5,29.94,ENE,68,6.9,12.3,63,0.00,,,3.78,VWS V14.01,2013-05-02 20:27:00,
2013-05-02 15:28:00,72.9,59.5,29.94,ENE,68,3.4,9.8,63,0.00,,,3.78,VWS V14.01,2013-05-02 20:28:00,
2013-05-02 15:29:00,72.9,60.0,29.94,East,90,4.7,4.7,64,0.00,,,3.78,VWS V14.01,2013-05-02 20:29:00,
2013-05-02 15:30:00,72.9,60.0,29.94,NE,45,3.4,5.6,64,0.00,,,3.78,VWS V14.01,2013-05-02 20:30:00,
2013-05-02 15:31:00,72.9,60.4,29.94,ENE,68,7.8,7.8,65,0.00,,,3.78,VWS V14.01,2013-05-02 20:31:00,
2013-05-02 15:32:00,72.9,60.4,29.94,ENE,68,5.8,8.5,65,0.00,,,3.78,VWS V14.01,2013-05-02 20:32:00,
2013-05-02 15:33:00,72.9,60.0,29.91,ENE,68,2.7,5.8,64,0.00,,,3.78,VWS V14.01,2013-05-02 20:33:00,
2013-05-02 15:34:00,72.9,60.0,29.91,NE,45,3.8,5.6,64,0.00,,,3.78,VWS V14.01,2013-05-02 20:34:00,
2013-05-02 15:35:00,72.7,59.4,29.91,NE,45,4.9,4.9,63,0.00,,,3.78,VWS V14.01,2013-05-02 20:35:00,
2013-05-02 15:36:00,72.9,59.5,29.91,NE,45,3.8,4.9,63,0.00,,,3.78,VWS V14.01,2013-05-02 20:36:00,
2013-05-02 15:37:00,72.9,60.0,29.91,NE,45,3.8,3.8,64,0.00,,,3.78,VWS V14.01,2013-05-02 20:37:00,
2013-05-02 15:38:00,72.7,59.8,29.91,East,90,1.3,3.8,64,0.00,,,3.78,VWS V14.01,2013-05-02 20:38:00,
2013-05-02 15:39:00,72.7,59.8,29.91,ENE,68,3.1,4.0,64,0.00,,,3.78,VWS V14.01,2013-05-02 20:39:00,
2013-05-02 15:40:00,72.7,59.8,29.91,East,90,4.9,5.6,64,0.00,,,3.78,VWS V14.01,2013-05-02 20:40:00,
2013-05-02 15:41:00,72.7,59.8,29.91,NE,45,4.3,4.9,64,0.00,,,3.78,VWS V14.01,2013-05-02 20:41:00,
2013-05-02 15:42:00,72.7,59.8,29.91,NNW,338,3.1,4.3,64,0.00,,,3.78,VWS V14.01,2013-05-02 20:42:00,
2013-05-02 15:43:00,72.7,59.8,29.91,ENE,68,10.1,10.1,64,0.00,,,3.78,VWS V14.01,2013-05-02 20:43:00,
2013-05-02 15:44:00,72.9,60.4,29.91,NE,45,4.9,10.1,65,0.00,,,3.78,VWS V14.01,2013-05-02 20:44:00,
2013-05-02 15:45:00,72.9,60.4,29.91,NE,45,6.3,6.3,65,0.00,,,3.78,VWS V14.01,2013-05-02 20:45:00,
2013-05-02 15:46:00,72.9,60.4,29.91,NNE,22,3.4,6.3,65,0.00,,,3.78,VWS V14.01,2013-05-02 20:46:00,
2013-05-02 15:47:00,72.9,60.4,29.91,NNE,22,3.4,3.4,65,0.00,,,3.78,VWS V14.01,2013-05-02 20:47:00,
2013-05-02 15:48:00,72.9,60.0,29.91,ENE,68,4.9,8.5,64,0.00,,,3.78,VWS V14.01,2013-05-02 20:48:00,
2013-05-02 15:49:00,72.9,60.4,29.91,NE,45,8.7,10.7,65,0.00,,,3.78,VWS V14.01,2013-05-02 20:49:00,
2013-05-02 15:50:00,72.9,60.4,29.91,NE,45,5.4,11.0,65,0.00,,,3.78,VWS V14.01,2013-05-02 20:50:00,
2013-05-02 15:51:00,72.9,60.4,29.91,NE,45,6.3,6.3,65,0.00,,,3.78,VWS V14.01,2013-05-02 20:51:00,
2013-05-02 15:52:00,72.9,60.4,29.91,ENE,68,3.6,6.3,65,0.00,,,3.78,VWS V14.01,2013-05-02 20:52:00,
2013-05-02 15:53:00,72.9,60.4,29.91,ENE,68,5.8,5.8,65,0.00,,,3.78,VWS V14.01,2013-05-02 20:53:00,
2013-05-02 15:54:00,72.9,60.0,29.91,NE,45,6.3,7.4,64,0.00,,,3.78,VWS V14.01,2013-05-02 20:54:00,
2013-05-02 15:55:00,72.9,60.0,29.91,NNE,22,7.8,7.8,64,0.00,,,3.78,VWS V14.01,2013-05-02 20:55:00,
2013-05-02 15:56:00,72.9,60.0,29.91,NNE,22,8.7,8.7,64,0.00,,,3.78,VWS V14.01,2013-05-02 20:56:00,
2013-05-02 15:57:00,72.9,60.0,29.91,WNW,292,6.5,8.7,64,0.00,,,3.78,VWS V14.01,2013-05-02 20:57:00,
2013-05-02 15:58:00,72.9,60.0,29.91,ENE,68,4.3,6.7,64,0.00,,,3.78,VWS V14.01,2013-05-02 20:58:00,
2013-05-02 15:59:00,72.9,60.0,29.91,NNE,22,3.8,4.3,64,0.00,,,3.78,VWS V14.01,2013-05-02 20:59:00,
2013-05-02 16:00:00,72.9,60.0,29.91,ENE,68,3.4,3.8,64,0.00,,,3.78,VWS V14.01,2013-05-02 21:00:00,
2013-05-02 16:01:00,72.9,60.0,29.91,NNE,22,6.7,7.6,64,0.00,,,3.78,VWS V14.01,2013-05-02 21:01:00,
2013-05-02 16:02:00,72.9,60.0,29.91,NE,45,7.8,7.8,64,0.00,,,3.78,VWS V14.01,2013-05-02 21:02:00,
2013-05-02 16:04:00,72.7,59.8,29.91,NNE,22,3.6,7.8,64,0.00,,,3.78,VWS V14.01,2013-05-02 21:04:00,
2013-05-02 16:05:00,72.7,59.8,29.91,ENE,68,5.4,6.5,64,0.00,,,3.78,VWS V14.01,2013-05-02 21:05:00,
2013-05-02 16:06:00,72.7,59.8,29.91,ESE,112,3.1,5.4,64,0.00,,,3.78,VWS V14.01,2013-05-02 21:06:00,
2013-05-02 16:07:00,72.7,59.8,29.91,ENE,68,4.7,4.7,64,0.00,,,3.78,VWS V14.01,2013-05-02 21:07:00,
2013-05-02 16:08:00,72.7,59.8,29.91,ESE,112,3.8,4.7,64,0.00,,,3.78,VWS V14.01,2013-05-02 21:08:00,
2013-05-02 16:09:00,72.7,59.8,29.91,SSE,158,3.4,3.8,64,0.00,,,3.78,VWS V14.01,2013-05-02 21:09:00,
2013-05-02 16:10:00,72.7,59.8,29.91,ENE,68,3.1,6.0,64,0.00,,,3.78,VWS V14.01,2013-05-02 21:10:00,
2013-05-02 16:11:00,72.7,59.8,29.91,NNE,22,3.8,3.8,64,0.00,,,3.78,VWS V14.01,2013-05-02 21:11:00,
2013-05-02 16:12:00,72.7,59.8,29.91,ENE,68,2.9,4.5,64,0.00,,,3.78,VWS V14.01,2013-05-02 21:12:00,
2013-05-02 16:13:00,72.7,59.8,29.91,ESE,112,6.3,6.3,64,0.00,,,3.78,VWS V14.01,2013-05-02 21:13:00,
2013-05-02 16:14:00,72.7,59.8,29.91,NNE,22,5.6,6.3,64,0.00,,,3.78,VWS V14.01,2013-05-02 21:14:00,
2013-05-02 16:16:00,72.7,59.8,29.91,ENE,68,4.9,6.5,64,0.00,,,3.78,VWS V14.01,2013-05-02 21:16:00,
2013-05-02 16:17:00,72.5,59.2,29.91,ENE,68,2.9,5.4,63,0.00,,,3.78,VWS V14.01,2013-05-02 21:17:00,
2013-05-02 16:18:00,72.5,59.6,29.94,ENE,68,3.1,4.7,64,0.00,,,3.78,VWS V14.01,2013-05-02 21:18:00,
2013-05-02 16:19:00,72.5,59.6,29.94,ENE,68,5.6,5.6,64,0.00,,,3.78,VWS V14.01,2013-05-02 21:19:00,
2013-05-02 16:20:00,72.5,59.6,29.94,East,90,2.9,5.6,64,0.00,,,3.78,VWS V14.01,2013-05-02 21:20:00,
2013-05-02 16:21:00,72.5,59.6,29.94,ENE,68,2.7,2.9,64,0.00,,,3.78,VWS V14.01,2013-05-02 21:21:00,
2013-05-02 16:22:00,72.5,59.6,29.94,ENE,68,2.9,3.4,64,0.00,,,3.78,VWS V14.01,2013-05-02 21:22:00,
2013-05-02 16:23:00,72.5,59.6,29.94,ENE,68,3.8,3.8,64,0.00,,,3.78,VWS V14.01,2013-05-02 21:23:00,
2013-05-02 16:24:00,72.5,59.6,29.94,NE,45,4.7,4.7,64,0.00,,,3.78,VWS V14.01,2013-05-02 21:24:00,
2013-05-02 16:26:00,72.5,59.6,29.94,ESE,112,2.5,4.7,64,0.00,,,3.78,VWS V14.01,2013-05-02 21:26:00,
2013-05-02 16:27:00,72.5,59.6,29.94,NNE,22,4.0,4.3,64,0.00,,,3.78,VWS V14.01,2013-05-02 21:27:00,
2013-05-02 16:28:00,72.5,59.6,29.94,NE,45,3.1,4.9,64,0.00,,,3.78,VWS V14.01,2013-05-02 21:28:00,
2013-05-02 16:29:00,72.5,59.6,29.94,NE,45,3.6,4.3,64,0.00,,,3.78,VWS V14.01,2013-05-02 21:29:00,
2013-05-02 16:30:00,72.5,59.6,29.94,NE,45,2.9,4.0,64,0.00,,,3.78,VWS V14.01,2013-05-02 21:30:00,
2013-05-02 16:31:00,72.3,59.9,29.94,NE,45,4.9,5.4,65,0.00,,,3.78,VWS V14.01,2013-05-02 21:31:00,
2013-05-02 16:32:00,72.3,59.9,29.94,NNE,22,4.0,6.3,65,0.00,,,3.78,VWS V14.01,2013-05-02 21:32:00,
2013-05-02 16:33:00,72.3,59.9,29.91,NE,45,5.4,5.4,65,0.00,,,3.78,VWS V14.01,2013-05-02 21:33:00,
2013-05-02 16:34:00,72.3,59.9,29.91,ENE,68,6.5,7.8,65,0.00,,,3.78,VWS V14.01,2013-05-02 21:34:00,
2013-05-02 16:35:00,72.3,59.9,29.91,ENE,68,4.3,6.5,65,0.00,,,3.78,VWS V14.01,2013-05-02 21:35:00,
2013-05-02 16:36:00,72.3,59.9,29.91,NE,45,6.5,8.1,65,0.00,,,3.78,VWS V14.01,2013-05-02 21:36:00,
2013-05-02 16:37:00,72.3,59.5,29.91,East,90,4.9,6.5,64,0.00,,,3.78,VWS V14.01,2013-05-02 21:37:00,
2013-05-02 16:38:00,72.3,59.5,29.91,ENE,68,4.7,4.9,64,0.00,,,3.78,VWS V14.01,2013-05-02 21:38:00,
2013-05-02 16:39:00,72.3,59.5,29.91,ENE,68,4.3,4.7,64,0.00,,,3.78,VWS V14.01,2013-05-02 21:39:00,
2013-05-02 16:40:00,72.3,59.5,29.91,NNE,22,3.4,4.3,64,0.00,,,3.78,VWS V14.01,2013-05-02 21:40:00,
2013-05-02 16:41:00,72.3,59.5,29.91,NE,45,4.0,5.4,64,0.00,,,3.78,VWS V14.01,2013-05-02 21:41:00,
2013-05-02 16:42:00,72.3,59.5,29.91,NE,45,4.0,4.0,64,0.00,,,3.78,VWS V14.01,2013-05-02 21:42:00,
2013-05-02 16:43:00,72.3,59.5,29.91,ENE,68,2.7,4.3,64,0.00,,,3.78,VWS V14.01,2013-05-02 21:43:00,
2013-05-02 16:44:00,72.3,59.5,29.91,ENE,68,2.5,4.0,64,0.00,,,3.78,VWS V14.01,2013-05-02 21:44:00,
2013-05-02 16:45:00,72.3,59.5,29.91,ENE,68,2.9,2.9,64,0.00,,,3.78,VWS V14.01,2013-05-02 21:45:00,
2013-05-02 16:46:00,72.3,59.5,29.91,ENE,68,4.9,4.9,64,0.00,,,3.78,VWS V14.01,2013-05-02 21:46:00,
2013-05-02 16:47:00,72.3,59.5,29.91,ENE,68,2.5,4.9,64,0.00,,,3.78,VWS V14.01,2013-05-02 21:47:00,
2013-05-02 16:48:00,72.3,59.5,29.91,NE,45,4.3,4.7,64,0.00,,,3.78,VWS V14.01,2013-05-02 21:48:00,
2013-05-02 16:49:00,72.3,59.5,29.91,NE,45,3.6,4.3,64,0.00,,,3.78,VWS V14.01,2013-05-02 21:49:00,
2013-05-02 16:50:00,72.3,59.9,29.91,ESE,112,2.7,5.4,65,0.00,,,3.78,VWS V14.01,2013-05-02 21:50:00,
2013-05-02 16:51:00,72.3,59.9,29.91,ENE,68,3.6,3.6,65,0.00,,,3.78,VWS V14.01,2013-05-02 21:51:00,
2013-05-02 16:52:00,72.3,59.9,29.91,ENE,68,1.6,3.6,65,0.00,,,3.78,VWS V14.01,2013-05-02 21:52:00,
2013-05-02 16:53:00,72.3,59.9,29.91,ENE,68,2.7,2.7,65,0.00,,,3.78,VWS V14.01,2013-05-02 21:53:00,
2013-05-02 16:54:00,72.3,59.9,29.91,ENE,68,4.0,4.0,65,0.00,,,3.78,VWS V14.01,2013-05-02 21:54:00,
2013-05-02 16:55:00,72.3,59.9,29.91,NE,45,3.1,4.7,65,0.00,,,3.78,VWS V14.01,2013-05-02 21:55:00,
2013-05-02 16:56:00,72.3,60.3,29.91,NE,45,3.1,3.6,66,0.00,,,3.78,VWS V14.01,2013-05-02 21:56:00,
2013-05-02 16:57:00,72.3,59.9,29.91,NE,45,2.5,3.4,65,0.00,,,3.78,VWS V14.01,2013-05-02 21:57:00,
2013-05-02 16:58:00,72.3,59.9,29.91,NE,45,2.7,3.6,65,0.00,,,3.78,VWS V14.01,2013-05-02 21:58:00,
2013-05-02 16:59:00,72.3,59.9,29.91,NNE,22,3.6,3.6,65,0.00,,,3.78,VWS V14.01,2013-05-02 21:59:00,
2013-05-02 17:00:00,72.3,59.9,29.91,ENE,68,3.1,6.0,65,0.00,,,3.78,VWS V14.01,2013-05-02 22:00:00,
2013-05-02 17:01:00,72.3,59.9,29.91,NE,45,4.0,4.0,65,0.00,,,3.78,VWS V14.01,2013-05-02 22:01:00,
2013-05-02 17:02:00,72.3,59.9,29.91,ENE,68,2.9,4.0,65,0.00,,,3.78,VWS V14.01,2013-05-02 22:02:00,
2013-05-02 17:03:00,72.3,59.9,29.88,NNE,22,4.9,4.9,65,0.00,,,3.78,VWS V14.01,2013-05-02 22:03:00,
2013-05-02 17:04:00,72.3,59.9,29.88,ENE,68,3.4,4.9,65,0.00,,,3.78,VWS V14.01,2013-05-02 22:04:00,
2013-05-02 17:05:00,72.3,59.9,29.88,NNE,22,2.7,5.4,65,0.00,,,3.78,VWS V14.01,2013-05-02 22:05:00,
2013-05-02 17:06:00,72.3,59.9,29.88,NNE,22,2.7,2.7,65,0.00,,,3.78,VWS V14.01,2013-05-02 22:06:00,
2013-05-02 17:07:00,72.3,59.9,29.88,NNE,22,4.9,4.9,65,0.00,,,3.78,VWS V14.01,2013-05-02 22:07:00,
2013-05-02 17:08:00,72.3,59.9,29.88,NNE,22,3.6,4.9,65,0.00,,,3.78,VWS V14.01,2013-05-02 22:08:00,
2013-05-02 17:09:00,72.5,60.1,29.88,NE,45,2.0,3.6,65,0.00,,,3.78,VWS V14.01,2013-05-02 22:09:00,
2013-05-02 17:10:00,72.5,60.1,29.88,NNE,22,4.5,4.5,65,0.00,,,3.78,VWS V14.01,2013-05-02 22:10:00,
2013-05-02 17:11:00,72.5,60.1,29.88,ENE,68,3.8,5.6,65,0.00,,,3.78,VWS V14.01,2013-05-02 22:11:00,
2013-05-02 17:12:00,72.5,60.1,29.88,NE,45,3.1,3.8,65,0.00,,,3.78,VWS V14.01,2013-05-02 22:12:00,
2013-05-02 17:13:00,72.5,60.1,29.88,NE,45,2.5,3.1,65,0.00,,,3.78,VWS V14.01,2013-05-02 22:13:00,
2013-05-02 17:14:00,72.5,60.5,29.88,ENE,68,4.3,4.3,66,0.00,,,3.78,VWS V14.01,2013-05-02 22:14:00,
2013-05-02 17:15:00,72.5,60.5,29.88,ESE,112,4.3,4.3,66,0.00,,,3.78,VWS V14.01,2013-05-02 22:15:00,
2013-05-02 17:16:00,72.5,60.5,29.88,ENE,68,2.2,4.3,66,0.00,,,3.78,VWS V14.01,2013-05-02 22:16:00,
2013-05-02 17:17:00,72.5,60.5,29.88,ENE,68,2.5,2.5,66,0.00,,,3.78,VWS V14.01,2013-05-02 22:17:00,
2013-05-02 17:18:00,72.5,60.5,29.91,NE,45,3.8,5.4,66,0.00,,,3.78,VWS V14.01,2013-05-02 22:18:00,
2013-05-02 17:19:00,72.5,60.5,29.91,ENE,68,3.6,4.0,66,0.00,,,3.78,VWS V14.01,2013-05-02 22:19:00,
2013-05-02 17:20:00,72.5,60.5,29.91,ENE,68,2.7,3.6,66,0.00,,,3.78,VWS V14.01,2013-05-02 22:20:00,
2013-05-02 17:21:00,72.5,60.5,29.91,ESE,112,1.6,2.7,66,0.00,,,3.78,VWS V14.01,2013-05-02 22:21:00,
2013-05-02 17:22:00,72.5,60.5,29.91,NE,45,4.5,4.9,66,0.00,,,3.78,VWS V14.01,2013-05-02 22:22:00,
2013-05-02 17:23:00,72.5,60.5,29.91,NE,45,4.5,4.5,66,0.00,,,3.78,VWS V14.01,2013-05-02 22:23:00,
2013-05-02 17:24:00,72.5,60.5,29.91,East,90,4.9,4.9,66,0.00,,,3.78,VWS V14.01,2013-05-02 22:24:00,
2013-05-02 17:25:00,72.5,60.5,29.91,NE,45,4.0,4.9,66,0.00,,,3.78,VWS V14.01,2013-05-02 22:25:00,
2013-05-02 17:26:00,72.5,60.5,29.91,East,90,5.8,6.0,66,0.00,,,3.78,VWS V14.01,2013-05-02 22:26:00,
2013-05-02 17:27:00,72.7,60.7,29.91,NNE,22,4.0,5.8,66,0.00,,,3.78,VWS V14.01,2013-05-02 22:27:00,
2013-05-02 17:28:00,72.7,60.7,29.91,ENE,68,4.7,5.8,66,0.00,,,3.78,VWS V14.01,2013-05-02 22:28:00,
2013-05-02 17:29:00,72.7,60.7,29.91,ENE,68,3.6,4.7,66,0.00,,,3.78,VWS V14.01,2013-05-02 22:29:00,
2013-05-02 17:30:00,72.7,60.7,29.91,ENE,68,3.4,4.3,66,0.00,,,3.78,VWS V14.01,2013-05-02 22:30:00,
2013-05-02 17:31:00,72.7,60.7,29.91,ENE,68,3.4,3.4,66,0.00,,,3.78,VWS V14.01,2013-05-02 22:31:00,
2013-05-02 17:32:00,72.7,60.7,29.91,ENE,68,2.9,3.8,66,0.00,,,3.78,VWS V14.01,2013-05-02 22:32:00,
2013-05-02 17:33:00,72.7,60.7,29.91,NE,45,4.5,4.5,66,0.00,,,3.78,VWS V14.01,2013-05-02 22:33:00,
2013-05-02 17:34:00,72.7,60.7,29.91,NNE,22,5.8,5.8,66,0.00,,,3.78,VWS V14.01,2013-05-02 22:34:00,
2013-05-02 17:35:00,72.7,60.7,29.91,NE,45,7.6,7.6,66,0.00,,,3.78,VWS V14.01,2013-05-02 22:35:00,
2013-05-02 17:36:00,72.7,60.7,29.91,North,0,6.0,7.6,66,0.00,,,3.78,VWS V14.01,2013-05-02 22:36:00,
2013-05-02 17:37:00,72.7,60.7,29.91,NNE,22,6.3,6.3,66,0.00,,,3.78,VWS V14.01,2013-05-02 22:37:00,
2013-05-02 17:38:00,72.7,60.7,29.91,NE,45,8.5,8.5,66,0.00,,,3.78,VWS V14.01,2013-05-02 22:38:00,
2013-05-02 17:39:00,72.7,60.7,29.91,ENE,68,5.8,10.1,66,0.00,,,3.78,VWS V14.01,2013-05-02 22:39:00,
2013-05-02 17:40:00,72.7,60.7,29.91,NE,45,3.6,5.8,66,0.00,,,3.78,VWS V14.01,2013-05-02 22:40:00,
2013-05-02 17:41:00,72.7,60.7,29.91,NE,45,7.4,8.5,66,0.00,,,3.78,VWS V14.01,2013-05-02 22:41:00,
2013-05-02 17:42:00,72.7,60.7,29.91,ENE,68,7.2,7.6,66,0.00,,,3.78,VWS V14.01,2013-05-02 22:42:00,
2013-05-02 17:43:00,72.7,60.7,29.91,NNE,22,6.0,7.2,66,0.00,,,3.78,VWS V14.01,2013-05-02 22:43:00,
2013-05-02 17:44:00,72.7,60.7,29.91,NNE,22,4.9,6.0,66,0.00,,,3.78,VWS V14.01,2013-05-02 22:44:00,
2013-05-02 17:45:00,72.7,60.7,29.91,ESE,112,5.8,5.8,66,0.00,,,3.78,VWS V14.01,2013-05-02 22:45:00,
2013-05-02 17:46:00,72.5,60.5,29.91,ENE,68,7.4,7.4,66,0.00,,,3.78,VWS V14.01,2013-05-02 22:46:00,
2013-05-02 17:47:00,72.5,60.5,29.91,ENE,68,4.3,7.4,66,0.00,,,3.78,VWS V14.01,2013-05-02 22:47:00,
2013-05-02 17:48:00,72.5,60.5,29.91,ENE,68,4.0,5.6,66,0.00,,,3.78,VWS V14.01,2013-05-02 22:48:00,
2013-05-02 17:49:00,72.5,60.1,29.91,NE,45,3.4,5.8,65,0.00,,,3.78,VWS V14.01,2013-05-02 22:49:00,
2013-05-02 17:50:00,72.5,60.1,29.91,NNE,22,2.9,3.8,65,0.00,,,3.78,VWS V14.01,2013-05-02 22:50:00,
2013-05-02 17:51:00,72.5,60.5,29.91,ENE,68,5.4,5.4,66,0.00,,,3.78,VWS V14.01,2013-05-02 22:51:00,
2013-05-02 17:52:00,72.5,60.5,29.91,NNE,22,6.5,6.5,66,0.00,,,3.78,VWS V14.01,2013-05-02 22:52:00,
2013-05-02 17:53:00,72.5,60.5,29.91,NNE,22,6.5,6.5,66,0.00,,,3.78,VWS V14.01,2013-05-02 22:53:00,
2013-05-02 17:54:00,72.5,60.5,29.91,NE,45,5.8,6.5,66,0.00,,,3.78,VWS V14.01,2013-05-02 22:54:00,
2013-05-02 17:55:00,72.3,60.3,29.91,North,0,7.2,7.2,66,0.00,,,3.78,VWS V14.01,2013-05-02 22:55:00,
2013-05-02 17:56:00,72.3,60.3,29.91,ENE,68,4.0,7.2,66,0.00,,,3.78,VWS V14.01,2013-05-02 22:56:00,
2013-05-02 17:57:00,72.3,60.3,29.91,ENE,68,3.4,4.0,66,0.00,,,3.78,VWS V14.01,2013-05-02 22:57:00,
2013-05-02 17:58:00,72.3,60.3,29.91,ENE,68,2.9,3.4,66,0.00,,,3.78,VWS V14.01,2013-05-02 22:58:00,
2013-05-02 17:59:00,72.3,60.3,29.91,NE,45,3.1,3.4,66,0.00,,,3.78,VWS V14.01,2013-05-02 22:59:00,
2013-05-02 18:00:00,72.3,60.3,29.91,NE,45,2.0,3.1,66,0.00,,,3.78,VWS V14.01,2013-05-02 23:00:00,
2013-05-02 18:01:00,72.3,60.3,29.91,ENE,68,1.6,2.5,66,0.00,,,3.78,VWS V14.01,2013-05-02 23:01:00,
2013-05-02 18:02:00,72.3,60.3,29.91,ENE,68,2.9,2.9,66,0.00,,,3.78,VWS V14.01,2013-05-02 23:02:00,
2013-05-02 18:03:00,72.3,60.3,29.91,NE,45,2.7,4.3,66,0.00,,,3.78,VWS V14.01,2013-05-02 23:03:00,
2013-05-02 18:04:00,72.3,60.3,29.91,NE,45,3.1,3.6,66,0.00,,,3.78,VWS V14.01,2013-05-02 23:04:00,
2013-05-02 18:05:00,72.3,60.3,29.91,NE,45,3.1,3.8,66,0.00,,,3.78,VWS V14.01,2013-05-02 23:05:00,
2013-05-02 18:06:00,72.3,60.8,29.91,NE,45,2.7,3.1,67,0.00,,,3.78,VWS V14.01,2013-05-02 23:06:00,
2013-05-02 18:07:00,72.3,61.2,29.91,NE,45,2.9,3.4,68,0.00,,,3.78,VWS V14.01,2013-05-02 23:07:00,
2013-05-02 18:08:00,72.3,60.8,29.91,NE,45,1.6,2.9,67,0.00,,,3.78,VWS V14.01,2013-05-02 23:08:00,
2013-05-02 18:09:00,72.3,60.8,29.91,NE,45,2.0,2.7,67,0.00,,,3.78,VWS V14.01,2013-05-02 23:09:00,
2013-05-02 18:10:00,72.3,60.8,29.91,NE,45,2.0,2.0,67,0.00,,,3.78,VWS V14.01,2013-05-02 23:10:00,
2013-05-02 18:11:00,72.1,60.6,29.91,NE,45,3.8,3.8,67,0.00,,,3.78,VWS V14.01,2013-05-02 23:11:00,
2013-05-02 18:12:00,72.1,60.6,29.91,NE,45,2.9,3.8,67,0.00,,,3.78,VWS V14.01,2013-05-02 23:12:00,
2013-05-02 18:13:00,72.1,60.6,29.91,NE,45,2.5,2.9,67,0.00,,,3.78,VWS V14.01,2013-05-02 23:13:00,
2013-05-02 18:14:00,72.1,60.6,29.91,NE,45,2.0,2.5,67,0.00,,,3.78,VWS V14.01,2013-05-02 23:14:00,
2013-05-02 18:15:00,72.1,60.6,29.91,ENE,68,2.9,3.6,67,0.00,,,3.78,VWS V14.01,2013-05-02 23:15:00,
2013-05-02 18:16:00,72.1,60.6,29.91,ENE,68,2.5,3.1,67,0.00,,,3.78,VWS V14.01,2013-05-02 23:16:00,
2013-05-02 18:17:00,72.1,60.6,29.91,ENE,68,2.2,2.7,67,0.00,,,3.78,VWS V14.01,2013-05-02 23:17:00,
2013-05-02 18:18:00,72.1,60.6,29.91,ENE,68,3.4,3.4,67,0.00,,,3.78,VWS V14.01,2013-05-02 23:18:00,
2013-05-02 18:19:00,72.1,60.6,29.91,ENE,68,2.5,3.8,67,0.00,,,3.78,VWS V14.01,2013-05-02 23:19:00,
2013-05-02 18:20:00,72.1,60.6,29.91,NE,45,2.0,3.1,67,0.00,,,3.78,VWS V14.01,2013-05-02 23:20:00,
2013-05-02 18:21:00,72.1,60.6,29.91,NE,45,2.7,3.4,67,0.00,,,3.78,VWS V14.01,2013-05-02 23:21:00,
2013-05-02 18:22:00,72.1,61.0,29.91,ENE,68,4.7,4.7,68,0.00,,,3.78,VWS V14.01,2013-05-02 23:22:00,
2013-05-02 18:23:00,72.1,61.0,29.91,ENE,68,2.0,4.7,68,0.00,,,3.78,VWS V14.01,2013-05-02 23:23:00,
2013-05-02 18:24:00,72.1,61.0,29.91,ENE,68,4.0,4.0,68,0.00,,,3.78,VWS V14.01,2013-05-02 23:24:00,
2013-05-02 18:25:00,72.1,61.0,29.91,NE,45,2.5,4.0,68,0.00,,,3.78,VWS V14.01,2013-05-02 23:25:00,
2013-05-02 18:26:00,72.1,61.0,29.91,NE,45,2.7,2.7,68,0.00,,,3.78,VWS V14.01,2013-05-02 23:26:00,
2013-05-02 18:27:00,72.1,61.0,29.91,NNE,22,2.5,3.4,68,0.00,,,3.78,VWS V14.01,2013-05-02 23:27:00,
2013-05-02 18:28:00,72.1,61.0,29.91,NE,45,2.7,2.7,68,0.00,,,3.78,VWS V14.01,2013-05-02 23:28:00,
2013-05-02 18:29:00,72.1,61.0,29.91,NE,45,2.7,3.1,68,0.00,,,3.78,VWS V14.01,2013-05-02 23:29:00,
2013-05-02 18:30:00,72.1,61.0,29.91,NE,45,2.5,2.7,68,0.00,,,3.78,VWS V14.01,2013-05-02 23:30:00,
2013-05-02 18:31:00,72.0,60.8,29.91,NE,45,2.5,2.5,68,0.00,,,3.78,VWS V14.01,2013-05-02 23:31:00,
2013-05-02 18:32:00,72.0,60.8,29.91,NE,45,1.6,2.5,68,0.00,,,3.78,VWS V14.01,2013-05-02 23:32:00,
2013-05-02 18:33:00,72.0,60.8,29.91,NNE,22,2.9,2.9,68,0.00,,,3.78,VWS V14.01,2013-05-02 23:33:00,
2013-05-02 18:34:00,72.0,60.8,29.91,NNE,22,2.2,2.9,68,0.00,,,3.78,VWS V14.01,2013-05-02 23:34:00,
2013-05-02 18:35:00,72.0,61.2,29.91,NNE,22,2.5,2.5,69,0.00,,,3.78,VWS V14.01,2013-05-02 23:35:00,
2013-05-02 18:36:00,72.0,61.2,29.91,NNE,22,2.0,2.5,69,0.00,,,3.78,VWS V14.01,2013-05-02 23:36:00,
2013-05-02 18:37:00,72.0,61.2,29.91,NNE,22,2.0,2.0,69,0.00,,,3.78,VWS V14.01,2013-05-02 23:37:00,
2013-05-02 18:38:00,72.0,61.2,29.91,NNE,22,2.7,2.7,69,0.00,,,3.78,VWS V14.01,2013-05-02 23:38:00,
2013-05-02 18:39:00,72.0,61.2,29.91,NNE,22,1.6,2.9,69,0.00,,,3.78,VWS V14.01,2013-05-02 23:39:00,
2013-05-02 18:40:00,72.0,61.2,29.91,NNE,22,2.0,2.2,69,0.00,,,3.78,VWS V14.01,2013-05-02 23:40:00,
2013-05-02 18:41:00,72.0,61.2,29.91,NNE,22,2.0,2.5,69,0.00,,,3.78,VWS V14.01,2013-05-02 23:41:00,
2013-05-02 18:42:00,72.0,61.2,29.91,NNE,22,2.5,3.1,69,0.00,,,3.78,VWS V14.01,2013-05-02 23:42:00,
2013-05-02 18:43:00,72.0,61.2,29.91,NNE,22,3.1,3.1,69,0.00,,,3.78,VWS V14.01,2013-05-02 23:43:00,
2013-05-02 18:44:00,72.0,61.2,29.91,NE,45,2.5,3.4,69,0.00,,,3.78,VWS V14.01,2013-05-02 23:44:00,
2013-05-02 18:45:00,72.0,61.2,29.91,ESE,112,2.0,2.5,69,0.00,,,3.78,VWS V14.01,2013-05-02 23:45:00,
2013-05-02 18:46:00,72.0,61.2,29.91,NE,45,2.9,2.9,69,0.00,,,3.78,VWS V14.01,2013-05-02 23:46:00,
2013-05-02 18:47:00,72.0,61.2,29.91,NE,45,3.1,3.1,69,0.00,,,3.78,VWS V14.01,2013-05-02 23:47:00,
2013-05-02 18:48:00,72.0,61.2,29.91,NE,45,2.7,3.4,69,0.00,,,3.78,VWS V14.01,2013-05-02 23:48:00,
2013-05-02 18:49:00,72.0,61.2,29.91,NE,45,2.7,2.7,69,0.00,,,3.78,VWS V14.01,2013-05-02 23:49:00,
2013-05-02 18:50:00,72.0,61.2,29.91,NE,45,1.6,2.7,69,0.00,,,3.78,VWS V14.01,2013-05-02 23:50:00,
2013-05-02 18:51:00,72.0,61.2,29.91,NE,45,2.0,2.0,69,0.00,,,3.78,VWS V14.01,2013-05-02 23:51:00,
2013-05-02 18:52:00,72.0,61.2,29.91,NNE,22,3.6,3.6,69,0.00,,,3.78,VWS V14.01,2013-05-02 23:52:00,
2013-05-02 18:53:00,72.0,61.2,29.91,NNE,22,3.8,3.8,69,0.00,,,3.78,VWS V14.01,2013-05-02 23:53:00,
2013-05-02 18:54:00,72.0,61.2,29.91,ENE,68,3.1,3.8,69,0.00,,,3.78,VWS V14.01,2013-05-02 23:54:00,
2013-05-02 18:55:00,72.0,61.2,29.91,NNE,22,2.2,3.6,69,0.00,,,3.78,VWS V14.01,2013-05-02 23:55:00,
2013-05-02 18:56:00,72.0,61.7,29.91,NNE,22,1.6,2.2,70,0.00,,,3.78,VWS V14.01,2013-05-02 23:56:00,
2013-05-02 18:57:00,72.0,61.7,29.91,NNE,22,0.0,1.6,70,0.00,,,3.78,VWS V14.01,2013-05-02 23:57:00,
2013-05-02 18:58:00,72.0,62.0,29.91,NNE,22,0.9,0.9,71,0.00,,,3.78,VWS V14.01,2013-05-02 23:58:00,
2013-05-02 18:59:00,72.0,61.7,29.91,NNE,22,2.9,3.4,70,0.00,,,3.78,VWS V14.01,2013-05-02 23:59:00,
2013-05-02 19:00:00,71.8,62.7,29.91,NNE,22,1.6,3.4,73,0.00,,,3.78,VWS V14.01,2013-05-03 00:00:00,
2013-05-02 19:01:00,71.8,62.3,29.91,NNE,22,2.7,2.7,72,0.00,,,3.78,VWS V14.01,2013-05-03 00:01:00,
2013-05-02 19:04:00,71.8,61.9,29.91,ESE,112,1.3,2.7,71,0.00,,,3.78,VWS V14.01,2013-05-03 00:04:00,
2013-05-02 19:05:00,71.8,61.9,29.91,ESE,112,1.1,1.3,71,0.00,,,3.78,VWS V14.01,2013-05-03 00:05:00,
2013-05-02 19:06:00,71.8,61.9,29.91,NNW,338,2.9,2.9,71,0.00,,,3.78,VWS V14.01,2013-05-03 00:06:00,
2013-05-02 19:07:00,71.8,61.9,29.91,NNW,338,1.6,2.9,71,0.00,,,3.78,VWS V14.01,2013-05-03 00:07:00,
2013-05-02 19:08:00,71.8,61.9,29.91,NNW,338,1.6,2.2,71,0.00,,,3.78,VWS V14.01,2013-05-03 00:08:00,
2013-05-02 19:09:00,71.8,61.9,29.91,NNW,338,2.5,2.5,71,0.00,,,3.78,VWS V14.01,2013-05-03 00:09:00,
2013-05-02 19:10:00,71.8,61.9,29.91,NNW,338,2.7,2.7,71,0.00,,,3.78,VWS V14.01,2013-05-03 00:10:00,
2013-05-02 19:11:00,71.8,61.9,29.91,NNW,338,2.0,2.7,71,0.00,,,3.78,VWS V14.01,2013-05-03 00:11:00,
2013-05-02 19:12:00,71.8,61.9,29.91,NNW,338,1.3,2.7,71,0.00,,,3.78,VWS V14.01,2013-05-03 00:12:00,
2013-05-02 19:13:00,71.8,61.9,29.91,NNW,338,2.0,2.0,71,0.00,,,3.78,VWS V14.01,2013-05-03 00:13:00,
2013-05-02 19:15:00,71.8,61.9,29.91,NNW,338,0.0,2.0,71,0.00,,,3.78,VWS V14.01,2013-05-03 00:15:00,
2013-05-02 19:16:00,71.8,61.9,29.91,NNW,338,1.6,1.6,71,0.00,,,3.78,VWS V14.01,2013-05-03 00:16:00,
2013-05-02 19:17:00,71.8,61.9,29.91,NNW,338,0.9,1.6,71,0.00,,,3.78,VWS V14.01,2013-05-03 00:17:00,
2013-05-02 19:18:00,71.8,61.9,29.91,NNW,338,0.0,0.9,71,0.00,,,3.78,VWS V14.01,2013-05-03 00:18:00,
2013-05-02 19:19:00,71.8,61.9,29.91,NNW,338,0.0,0.0,71,0.00,,,3.78,VWS V14.01,2013-05-03 00:19:00,
2013-05-02 19:20:00,71.8,61.9,29.91,NNW,338,0.0,0.0,71,0.00,,,3.78,VWS V14.01,2013-05-03 00:20:00,
2013-05-02 19:21:00,71.8,61.9,29.91,NNW,338,0.0,0.0,71,0.00,,,3.78,VWS V14.01,2013-05-03 00:21:00,
2013-05-02 19:22:00,71.8,61.9,29.91,NNW,338,0.0,0.0,71,0.00,,,3.78,VWS V14.01,2013-05-03 00:22:00,
2013-05-02 19:23:00,71.8,61.9,29.91,NNW,338,0.0,0.0,71,0.00,,,3.78,VWS V14.01,2013-05-03 00:23:00,
2013-05-02 19:24:00,71.8,62.3,29.91,NNW,338,2.7,2.7,72,0.00,,,3.78,VWS V14.01,2013-05-03 00:24:00,
2013-05-02 19:25:00,71.8,61.9,29.91,NNW,338,2.9,2.9,71,0.00,,,3.78,VWS V14.01,2013-05-03 00:25:00,
2013-05-02 19:26:00,71.8,61.9,29.91,NNW,338,2.9,2.9,71,0.00,,,3.78,VWS V14.01,2013-05-03 00:26:00,
2013-05-02 19:27:00,71.8,61.9,29.91,NNW,338,2.5,2.9,71,0.00,,,3.78,VWS V14.01,2013-05-03 00:27:00,
2013-05-02 19:28:00,71.8,61.9,29.91,NNW,338,2.2,2.7,71,0.00,,,3.78,VWS V14.01,2013-05-03 00:28:00,
2013-05-02 19:29:00,71.8,61.9,29.91,NNW,338,2.5,2.5,71,0.00,,,3.78,VWS V14.01,2013-05-03 00:29:00,
2013-05-02 19:30:00,71.8,61.9,29.91,NNW,338,2.0,2.7,71,0.00,,,3.78,VWS V14.01,2013-05-03 00:30:00,
2013-05-02 19:31:00,71.8,61.9,29.91,NNW,338,3.8,3.8,71,0.00,,,3.78,VWS V14.01,2013-05-03 00:31:00,
2013-05-02 19:33:00,71.8,63.1,29.91,NNW,338,2.7,3.8,74,0.00,,,3.78,VWS V14.01,2013-05-03 00:33:00,
2013-05-02 19:34:00,71.6,62.5,29.91,NNW,338,1.3,2.7,73,0.00,,,3.78,VWS V14.01,2013-05-03 00:34:00,
2013-05-02 19:35:00,71.6,62.5,29.91,NNW,338,1.6,1.6,73,0.00,,,3.78,VWS V14.01,2013-05-03 00:35:00,
2013-05-02 19:36:00,71.6,62.5,29.91,NNW,338,1.1,1.6,73,0.00,,,3.78,VWS V14.01,2013-05-03 00:36:00,
2013-05-02 19:37:00,71.6,62.5,29.91,NNW,338,1.1,1.1,73,0.00,,,3.78,VWS V14.01,2013-05-03 00:37:00,
2013-05-02 19:38:00,71.6,62.5,29.91,NNW,338,0.9,2.9,73,0.00,,,3.78,VWS V14.01,2013-05-03 00:38:00,
2013-05-02 19:39:00,71.6,62.5,29.91,NNW,338,0.9,1.1,73,0.00,,,3.78,VWS V14.01,2013-05-03 00:39:00,
2013-05-02 19:40:00,71.6,62.5,29.91,NNW,338,1.3,1.3,73,0.00,,,3.78,VWS V14.01,2013-05-03 00:40:00,
2013-05-02 19:41:00,71.6,62.5,29.91,NNW,338,0.9,1.6,73,0.00,,,3.78,VWS V14.01,2013-05-03 00:41:00,
2013-05-02 19:42:00,71.6,62.5,29.91,NNW,338,2.5,2.5,73,0.00,,,3.78,VWS V14.01,2013-05-03 00:42:00,
2013-05-02 19:43:00,71.6,62.5,29.91,NNW,338,1.6,2.9,73,0.00,,,3.78,VWS V14.01,2013-05-03 00:43:00,
2013-05-02 19:44:00,71.6,62.5,29.91,NNW,338,0.0,1.6,73,0.00,,,3.78,VWS V14.01,2013-05-03 00:44:00,
2013-05-02 19:45:00,71.6,62.5,29.91,NNW,338,2.0,2.7,73,0.00,,,3.78,VWS V14.01,2013-05-03 00:45:00,
2013-05-02 19:46:00,71.6,62.5,29.91,NNW,338,0.0,2.0,73,0.00,,,3.78,VWS V14.01,2013-05-03 00:46:00,
2013-05-02 19:47:00,71.6,62.5,29.91,NNW,338,1.6,1.6,73,0.00,,,3.78,VWS V14.01,2013-05-03 00:47:00,
2013-05-02 19:48:00,71.6,62.5,29.91,NNW,338,1.1,1.6,73,0.00,,,3.78,VWS V14.01,2013-05-03 00:48:00,
2013-05-02 19:49:00,71.6,62.5,29.91,NNW,338,0.0,1.1,73,0.00,,,3.78,VWS V14.01,2013-05-03 00:49:00,
2013-05-02 19:50:00,71.6,62.5,29.91,NNW,338,0.0,0.0,73,0.00,,,3.78,VWS V14.01,2013-05-03 00:50:00,
2013-05-02 19:51:00,71.6,62.9,29.91,NNW,338,0.0,0.0,74,0.00,,,3.78,VWS V14.01,2013-05-03 00:51:00,
2013-05-02 19:52:00,71.6,62.9,29.91,NNW,338,1.1,1.1,74,0.00,,,3.78,VWS V14.01,2013-05-03 00:52:00,
2013-05-02 19:53:00,71.4,63.1,29.91,NNW,338,2.0,2.0,75,0.00,,,3.78,VWS V14.01,2013-05-03 00:53:00,
2013-05-02 19:54:00,71.4,62.7,29.91,NNW,338,0.9,2.0,74,0.00,,,3.78,VWS V14.01,2013-05-03 00:54:00,
2013-05-02 19:55:00,71.4,62.7,29.91,NNW,338,0.0,0.9,74,0.00,,,3.78,VWS V14.01,2013-05-03 00:55:00,
2013-05-02 19:56:00,71.4,62.7,29.91,NNW,338,0.0,0.0,74,0.00,,,3.78,VWS V14.01,2013-05-03 00:56:00,
2013-05-02 19:57:00,71.4,62.7,29.91,NNW,338,0.0,0.0,74,0.00,,,3.78,VWS V14.01,2013-05-03 00:57:00,
2013-05-02 19:58:00,71.4,62.7,29.91,NNW,338,0.0,0.0,74,0.00,,,3.78,VWS V14.01,2013-05-03 00:58:00,
2013-05-02 19:59:00,71.4,62.7,29.91,NNW,338,0.0,0.0,74,0.00,,,3.78,VWS V14.01,2013-05-03 00:59:00,
2013-05-02 20:00:00,71.4,62.7,29.91,NNW,338,1.3,1.3,74,0.00,,,3.78,VWS V14.01,2013-05-03 01:00:00,
2013-05-02 20:02:00,71.4,63.8,29.91,NNW,338,1.6,2.7,77,0.00,,,3.78,VWS V14.01,2013-05-03 01:02:00,
2013-05-02 20:03:00,71.2,63.7,29.91,NNW,338,0.0,2.0,77,0.00,,,3.78,VWS V14.01,2013-05-03 01:03:00,
2013-05-02 20:04:00,71.2,63.7,29.94,NNW,338,0.0,0.0,77,0.00,,,3.78,VWS V14.01,2013-05-03 01:04:00,
2013-05-02 20:05:00,71.4,64.2,29.94,NNW,338,0.9,1.6,78,0.00,,,3.78,VWS V14.01,2013-05-03 01:05:00,
2013-05-02 20:06:00,71.2,64.4,29.94,NNW,338,2.2,2.2,79,0.00,,,3.78,VWS V14.01,2013-05-03 01:06:00,
2013-05-02 20:07:00,71.2,64.4,29.94,NNW,338,2.0,2.2,79,0.00,,,3.78,VWS V14.01,2013-05-03 01:07:00,
2013-05-02 20:08:00,71.2,64.4,29.94,NNW,338,1.1,2.2,79,0.00,,,3.78,VWS V14.01,2013-05-03 01:08:00,
2013-05-02 20:09:00,71.2,64.4,29.94,NNW,338,1.1,1.1,79,0.00,,,3.78,VWS V14.01,2013-05-03 01:09:00,
2013-05-02 20:10:00,71.2,64.8,29.94,NNW,338,2.5,2.5,80,0.00,,,3.78,VWS V14.01,2013-05-03 01:10:00,
2013-05-02 20:11:00,71.2,64.8,29.94,SE,135,3.4,3.4,80,0.00,,,3.78,VWS V14.01,2013-05-03 01:11:00,
2013-05-02 20:12:00,71.1,64.9,29.94,SE,135,0.0,3.4,81,0.00,,,3.78,VWS V14.01,2013-05-03 01:12:00,
2013-05-02 20:13:00,71.1,64.6,29.94,SSE,158,1.6,2.5,80,0.00,,,3.78,VWS V14.01,2013-05-03 01:13:00,
2013-05-02 20:14:00,71.1,64.9,29.94,SSE,158,1.6,1.6,81,0.00,,,3.78,VWS V14.01,2013-05-03 01:14:00,
2013-05-02 20:15:00,71.1,64.9,29.94,SSE,158,1.3,1.6,81,0.00,,,3.78,VWS V14.01,2013-05-03 01:15:00,
2013-05-02 20:16:00,71.1,64.9,29.94,SSE,158,1.1,1.6,81,0.04,,,3.82,VWS V14.01,2013-05-03 01:16:00,
2013-05-02 20:17:00,71.1,64.9,29.94,SSE,158,2.2,2.2,81,0.04,,,3.82,VWS V14.01,2013-05-03 01:17:00,
2013-05-02 20:18:00,70.9,64.8,29.94,SSE,158,0.9,3.1,81,0.04,,,3.82,VWS V14.01,2013-05-03 01:18:00,
2013-05-02 20:19:00,70.9,64.8,29.94,SSE,158,0.0,0.9,81,0.04,,,3.82,VWS V14.01,2013-05-03 01:19:00,
2013-05-02 20:20:00,70.9,64.8,29.94,SSE,158,0.0,1.1,81,0.04,,,3.82,VWS V14.01,2013-05-03 01:20:00,
2013-05-02 20:21:00,70.9,64.8,29.94,SSE,158,0.0,0.0,81,0.04,,,3.82,VWS V14.01,2013-05-03 01:21:00,
2013-05-02 20:22:00,70.9,64.8,29.94,SSE,158,1.3,1.3,81,0.04,,,3.82,VWS V14.01,2013-05-03 01:22:00,
2013-05-02 20:23:00,71.1,64.9,29.94,SSE,158,0.0,1.3,81,0.04,,,3.82,VWS V14.01,2013-05-03 01:23:00,
2013-05-02 20:24:00,70.9,64.8,29.94,SSE,158,2.0,2.0,81,0.04,,,3.82,VWS V14.01,2013-05-03 01:24:00,
2013-05-02 20:25:00,70.9,64.8,29.94,SSW,202,2.0,2.0,81,0.04,,,3.82,VWS V14.01,2013-05-03 01:25:00,
2013-05-02 20:27:00,70.9,65.1,29.94,WSW,248,2.7,2.7,82,0.04,,,3.82,VWS V14.01,2013-05-03 01:27:00,
2013-05-02 20:28:00,70.9,64.8,29.94,West,270,2.9,3.1,81,0.04,,,3.82,VWS V14.01,2013-05-03 01:28:00,
2013-05-02 20:29:00,70.9,64.8,29.94,West,270,0.9,2.9,81,0.04,,,3.82,VWS V14.01,2013-05-03 01:29:00,
2013-05-02 20:30:00,70.9,64.8,29.94,West,270,0.0,0.9,81,0.04,,,3.82,VWS V14.01,2013-05-03 01:30:00,
2013-05-02 20:31:00,70.9,64.8,29.94,West,270,0.0,0.0,81,0.04,,,3.82,VWS V14.01,2013-05-03 01:31:00,
2013-05-02 20:32:00,70.9,64.8,29.94,West,270,0.0,0.0,81,0.04,,,3.82,VWS V14.01,2013-05-03 01:32:00,
2013-05-02 20:33:00,70.9,64.8,29.94,West,270,0.0,0.0,81,0.04,,,3.82,VWS V14.01,2013-05-03 01:33:00,
2013-05-02 20:34:00,70.9,64.8,29.94,West,270,0.0,0.0,81,0.08,,,3.86,VWS V14.01,2013-05-03 01:34:00,
2013-05-02 20:35:00,70.9,64.8,29.94,West,270,0.0,0.9,81,0.08,,,3.86,VWS V14.01,2013-05-03 01:35:00,
2013-05-02 20:36:00,70.9,64.8,29.94,West,270,1.1,1.1,81,0.08,,,3.86,VWS V14.01,2013-05-03 01:36:00,
2013-05-02 20:37:00,70.9,64.8,29.94,South,180,2.5,2.5,81,0.08,,,3.86,VWS V14.01,2013-05-03 01:37:00,
2013-05-02 20:38:00,70.9,64.8,29.94,South,180,2.5,3.1,81,0.08,,,3.86,VWS V14.01,2013-05-03 01:38:00,
2013-05-02 20:39:00,71.1,64.9,29.94,South,180,0.9,2.5,81,0.08,,,3.86,VWS V14.01,2013-05-03 01:39:00,
2013-05-02 20:40:00,71.1,64.9,29.94,South,180,0.0,0.9,81,0.08,,,3.86,VWS V14.01,2013-05-03 01:40:00,
2013-05-02 20:41:00,71.1,64.9,29.94,WSW,248,1.3,1.3,81,0.08,,,3.86,VWS V14.01,2013-05-03 01:41:00,
2013-05-02 20:42:00,71.1,64.9,29.94,WSW,248,1.6,2.2,81,0.08,,,3.86,VWS V14.01,2013-05-03 01:42:00,
2013-05-02 20:43:00,70.9,64.8,29.94,WSW,248,0.9,1.6,81,0.08,,,3.86,VWS V14.01,2013-05-03 01:43:00,
2013-05-02 20:44:00,70.9,64.8,29.94,WSW,248,0.0,0.9,81,0.08,,,3.86,VWS V14.01,2013-05-03 01:44:00,
2013-05-02 20:45:00,70.9,64.8,29.94,WSW,248,0.0,0.0,81,0.08,,,3.86,VWS V14.01,2013-05-03 01:45:00,
2013-05-02 20:46:00,70.9,64.8,29.94,WSW,248,1.1,1.1,81,0.08,,,3.86,VWS V14.01,2013-05-03 01:46:00,
2013-05-02 20:47:00,70.9,64.8,29.94,WSW,248,0.0,1.1,81,0.08,,,3.86,VWS V14.01,2013-05-03 01:47:00,
2013-05-02 20:48:00,70.9,64.8,29.94,WSW,248,0.0,0.0,81,0.08,,,3.86,VWS V14.01,2013-05-03 01:48:00,
2013-05-02 20:49:00,70.9,64.8,29.94,WSW,248,0.0,0.0,81,0.08,,,3.86,VWS V14.01,2013-05-03 01:49:00,
2013-05-02 20:50:00,70.9,64.8,29.94,WSW,248,0.0,0.0,81,0.08,,,3.86,VWS V14.01,2013-05-03 01:50:00,
2013-05-02 20:51:00,70.9,64.8,29.94,WSW,248,0.0,0.0,81,0.08,,,3.86,VWS V14.01,2013-05-03 01:51:00,
2013-05-02 20:52:00,70.9,64.8,29.94,WSW,248,0.0,0.0,81,0.08,,,3.86,VWS V14.01,2013-05-03 01:52:00,
2013-05-02 20:53:00,70.9,64.8,29.94,WSW,248,0.0,0.0,81,0.08,,,3.86,VWS V14.01,2013-05-03 01:53:00,
2013-05-02 20:54:00,70.9,64.8,29.94,WSW,248,0.0,0.0,81,0.08,,,3.86,VWS V14.01,2013-05-03 01:54:00,
2013-05-02 20:55:00,70.9,64.4,29.94,WSW,248,0.0,0.0,80,0.08,,,3.86,VWS V14.01,2013-05-03 01:55:00,
2013-05-02 20:56:00,70.9,64.4,29.94,WSW,248,0.0,0.0,80,0.08,,,3.86,VWS V14.01,2013-05-03 01:56:00,
2013-05-02 20:57:00,70.9,64.4,29.94,WSW,248,0.0,0.0,80,0.08,,,3.86,VWS V14.01,2013-05-03 01:57:00,
2013-05-02 20:58:00,70.9,64.4,29.94,WSW,248,0.0,0.0,80,0.08,,,3.86,VWS V14.01,2013-05-03 01:58:00,
2013-05-02 20:59:00,70.9,64.4,29.94,WSW,248,0.0,0.0,80,0.08,,,3.86,VWS V14.01,2013-05-03 01:59:00,
2013-05-02 21:00:00,70.9,64.4,29.94,WSW,248,0.0,0.0,80,0.08,,,3.86,VWS V14.01,2013-05-03 02:00:00,
2013-05-02 21:01:00,70.9,64.4,29.94,WSW,248,0.0,0.0,80,0.08,,,3.86,VWS V14.01,2013-05-03 02:01:00,
2013-05-02 21:02:00,70.9,64.4,29.94,WSW,248,0.0,0.0,80,0.08,,,3.86,VWS V14.01,2013-05-03 02:02:00,
2013-05-02 21:03:00,70.9,64.8,29.94,WSW,248,0.0,0.0,81,0.08,,,3.86,VWS V14.01,2013-05-03 02:03:00,
2013-05-02 21:04:00,70.9,64.8,29.94,WSW,248,0.0,0.0,81,0.08,,,3.86,VWS V14.01,2013-05-03 02:04:00,
2013-05-02 21:05:00,70.9,64.8,29.94,WSW,248,0.0,0.0,81,0.08,,,3.86,VWS V14.01,2013-05-03 02:05:00,
2013-05-02 21:06:00,70.9,64.8,29.94,WSW,248,0.0,0.0,81,0.08,,,3.86,VWS V14.01,2013-05-03 02:06:00,
2013-05-02 21:07:00,70.9,64.8,29.94,WSW,248,0.0,0.0,81,0.08,,,3.86,VWS V14.01,2013-05-03 02:07:00,
2013-05-02 21:08:00,70.9,64.8,29.94,WSW,248,0.0,0.0,81,0.08,,,3.86,VWS V14.01,2013-05-03 02:08:00,
2013-05-02 21:09:00,70.9,64.8,29.94,WSW,248,0.0,0.0,81,0.08,,,3.86,VWS V14.01,2013-05-03 02:09:00,
2013-05-02 21:10:00,70.7,64.6,29.94,WSW,248,0.0,0.0,81,0.08,,,3.86,VWS V14.01,2013-05-03 02:10:00,
2013-05-02 21:11:00,70.7,64.6,29.94,WSW,248,0.0,0.0,81,0.08,,,3.86,VWS V14.01,2013-05-03 02:11:00,
2013-05-02 21:12:00,70.7,64.6,29.94,WSW,248,0.0,0.0,81,0.08,,,3.86,VWS V14.01,2013-05-03 02:12:00,
2013-05-02 21:13:00,70.7,64.6,29.94,WSW,248,0.0,0.0,81,0.08,,,3.86,VWS V14.01,2013-05-03 02:13:00,
2013-05-02 21:14:00,70.9,64.8,29.94,WSW,248,2.2,2.2,81,0.08,,,3.86,VWS V14.01,2013-05-03 02:14:00,
2013-05-02 21:15:00,70.9,64.8,29.94,WSW,248,2.0,2.2,81,0.08,,,3.86,VWS V14.01,2013-05-03 02:15:00,
2013-05-02 21:16:00,70.9,64.8,29.94,SSE,158,2.7,2.9,81,0.08,,,3.86,VWS V14.01,2013-05-03 02:16:00,
2013-05-02 21:17:00,70.9,64.8,29.94,SE,135,1.1,2.7,81,0.08,,,3.90,VWS V14.01,2013-05-03 02:17:00,
2013-05-02 21:18:00,70.9,65.1,29.94,SE,135,1.3,1.3,82,0.08,,,3.90,VWS V14.01,2013-05-03 02:18:00,
2013-05-02 21:19:00,70.9,65.1,29.94,NNW,338,2.9,3.6,82,0.08,,,3.90,VWS V14.01,2013-05-03 02:19:00,
2013-05-02 21:20:00,70.7,64.6,29.94,NE,45,2.0,2.9,81,0.08,,,3.90,VWS V14.01,2013-05-03 02:20:00,
2013-05-02 21:21:00,70.7,64.6,29.94,ENE,68,4.0,4.0,81,0.12,,,3.94,VWS V14.01,2013-05-03 02:21:00,
2013-05-02 21:22:00,70.7,64.6,29.94,ENE,68,2.5,4.0,81,0.12,,,3.94,VWS V14.01,2013-05-03 02:22:00,
2013-05-02 21:23:00,70.7,64.6,29.94,ENE,68,2.7,4.9,81,0.12,,,3.94,VWS V14.01,2013-05-03 02:23:00,
2013-05-02 21:24:00,70.7,64.6,29.94,NE,45,2.5,3.8,81,0.12,,,3.94,VWS V14.01,2013-05-03 02:24:00,
2013-05-02 21:25:00,70.7,64.6,29.94,ENE,68,2.7,4.7,81,0.12,,,3.94,VWS V14.01,2013-05-03 02:25:00,
2013-05-02 21:26:00,70.7,64.6,29.94,ENE,68,4.3,4.3,81,0.12,,,3.94,VWS V14.01,2013-05-03 02:26:00,
2013-05-02 21:27:00,70.7,64.6,29.94,ENE,68,3.6,4.3,81,0.12,,,3.94,VWS V14.01,2013-05-03 02:27:00,
2013-05-02 21:28:00,70.7,64.6,29.94,ENE,68,2.0,3.6,81,0.12,,,3.94,VWS V14.01,2013-05-03 02:28:00,
2013-05-02 21:29:00,70.7,64.6,29.94,ENE,68,0.0,2.0,81,0.12,,,3.94,VWS V14.01,2013-05-03 02:29:00,
2013-05-02 21:30:00,70.7,64.6,29.94,ENE,68,1.1,1.1,81,0.12,,,3.94,VWS V14.01,2013-05-03 02:30:00,
2013-05-02 21:31:00,70.5,64.4,29.94,ESE,112,2.7,2.7,81,0.12,,,3.94,VWS V14.01,2013-05-03 02:31:00,
2013-05-02 21:32:00,70.5,64.4,29.97,ESE,112,2.7,2.7,81,0.12,,,3.94,VWS V14.01,2013-05-03 02:32:00,
2013-05-02 21:33:00,70.5,64.4,29.97,East,90,1.1,2.7,81,0.12,,,3.94,VWS V14.01,2013-05-03 02:33:00,
2013-05-02 21:34:00,70.5,64.4,29.97,ENE,68,0.0,1.3,81,0.12,,,3.94,VWS V14.01,2013-05-03 02:34:00,
2013-05-02 21:35:00,70.5,64.4,29.97,ENE,68,0.0,0.0,81,0.08,,,3.94,VWS V14.01,2013-05-03 02:35:00,
2013-05-02 21:36:00,70.5,64.4,29.97,ENE,68,0.0,0.0,81,0.08,,,3.94,VWS V14.01,2013-05-03 02:36:00,
2013-05-02 21:37:00,70.5,64.4,29.97,ENE,68,0.0,0.0,81,0.08,,,3.94,VWS V14.01,2013-05-03 02:37:00,
2013-05-02 21:38:00,70.5,64.4,29.97,ENE,68,0.9,0.9,81,0.08,,,3.94,VWS V14.01,2013-05-03 02:38:00,
2013-05-02 21:39:00,70.5,64.4,29.97,ESE,112,2.5,2.5,81,0.08,,,3.94,VWS V14.01,2013-05-03 02:39:00,
2013-05-02 21:40:00,70.5,64.4,29.97,ENE,68,0.9,2.5,81,0.08,,,3.94,VWS V14.01,2013-05-03 02:40:00,
2013-05-02 21:41:00,70.5,64.4,29.97,North,0,2.9,4.3,81,0.08,,,3.94,VWS V14.01,2013-05-03 02:41:00,
2013-05-02 21:42:00,70.5,64.4,29.97,ENE,68,2.9,4.0,81,0.08,,,3.94,VWS V14.01,2013-05-03 02:42:00,
2013-05-02 21:43:00,70.5,64.4,29.97,ENE,68,2.7,2.9,81,0.08,,,3.94,VWS V14.01,2013-05-03 02:43:00,
2013-05-02 21:44:00,70.5,64.4,29.97,ENE,68,0.0,2.7,81,0.08,,,3.94,VWS V14.01,2013-05-03 02:44:00,
2013-05-02 21:45:00,70.5,64.4,29.97,ENE,68,1.3,1.6,81,0.08,,,3.94,VWS V14.01,2013-05-03 02:45:00,
2013-05-02 21:46:00,70.5,64.4,29.97,ENE,68,0.9,2.5,81,0.08,,,3.94,VWS V14.01,2013-05-03 02:46:00,
2013-05-02 21:47:00,70.5,64.4,29.97,ENE,68,2.2,2.2,81,0.08,,,3.94,VWS V14.01,2013-05-03 02:47:00,
2013-05-02 21:48:00,70.5,64.4,29.97,ENE,68,1.1,2.2,81,0.12,,,3.98,VWS V14.01,2013-05-03 02:48:00,
2013-05-02 21:49:00,70.5,64.4,29.97,ENE,68,0.0,1.1,81,0.12,,,3.98,VWS V14.01,2013-05-03 02:49:00,
2013-05-02 21:50:00,70.5,64.1,29.97,East,90,0.0,1.6,80,0.12,,,3.98,VWS V14.01,2013-05-03 02:50:00,
2013-05-02 21:51:00,70.5,64.1,29.97,East,90,0.9,1.3,80,0.12,,,3.98,VWS V14.01,2013-05-03 02:51:00,
2013-05-02 21:52:00,70.3,63.9,29.97,ENE,68,2.5,2.5,80,0.12,,,3.98,VWS V14.01,2013-05-03 02:52:00,
2013-05-02 21:53:00,70.3,63.9,29.97,ENE,68,0.0,2.5,80,0.12,,,3.98,VWS V14.01,2013-05-03 02:53:00,
2013-05-02 21:54:00,70.3,63.9,29.97,ENE,68,0.0,0.0,80,0.12,,,3.98,VWS V14.01,2013-05-03 02:54:00,
2013-05-02 21:55:00,70.3,63.9,29.97,ENE,68,0.0,0.0,80,0.12,,,3.98,VWS V14.01,2013-05-03 02:55:00,
2013-05-02 21:56:00,70.3,63.9,29.97,ENE,68,0.0,0.0,80,0.12,,,3.98,VWS V14.01,2013-05-03 02:56:00,
2013-05-02 21:57:00,70.3,63.9,29.97,ENE,68,1.6,1.6,80,0.12,,,3.98,VWS V14.01,2013-05-03 02:57:00,
2013-05-02 21:58:00,70.3,63.9,29.97,ENE,68,0.0,2.2,80,0.12,,,3.98,VWS V14.01,2013-05-03 02:58:00,
2013-05-02 21:59:00,70.3,63.9,29.97,ENE,68,0.0,1.1,80,0.12,,,3.98,VWS V14.01,2013-05-03 02:59:00,
2013-05-02 22:00:00,70.3,63.9,29.97,ENE,68,1.3,1.3,80,0.12,,,3.98,VWS V14.01,2013-05-03 03:00:00,
2013-05-02 22:01:00,70.3,63.9,29.97,ENE,68,1.3,1.3,80,0.12,,,3.98,VWS V14.01,2013-05-03 03:01:00,
2013-05-02 22:02:00,70.3,63.9,29.97,ENE,68,0.9,1.3,80,0.12,,,3.98,VWS V14.01,2013-05-03 03:02:00,
2013-05-02 22:03:00,70.3,63.9,29.97,ENE,68,1.1,1.6,80,0.12,,,3.98,VWS V14.01,2013-05-03 03:03:00,
2013-05-02 22:04:00,70.3,63.9,29.97,ENE,68,0.0,1.1,80,0.12,,,3.98,VWS V14.01,2013-05-03 03:04:00,
2013-05-02 22:05:00,70.3,63.9,29.97,ENE,68,0.0,1.1,80,0.12,,,3.98,VWS V14.01,2013-05-03 03:05:00,
2013-05-02 22:06:00,70.3,63.9,29.97,ENE,68,0.0,0.0,80,0.12,,,3.98,VWS V14.01,2013-05-03 03:06:00,
2013-05-02 22:07:00,70.3,63.9,29.97,ENE,68,0.0,0.9,80,0.12,,,3.98,VWS V14.01,2013-05-03 03:07:00,
2013-05-02 22:08:00,70.3,63.9,29.97,ENE,68,0.0,0.0,80,0.12,,,3.98,VWS V14.01,2013-05-03 03:08:00,
2013-05-02 22:09:00,70.3,63.9,29.97,ENE,68,1.3,2.0,80,0.12,,,3.98,VWS V14.01,2013-05-03 03:09:00,
2013-05-02 22:10:00,70.3,63.9,29.97,ENE,68,1.6,2.5,80,0.12,,,3.98,VWS V14.01,2013-05-03 03:10:00,
2013-05-02 22:11:00,70.3,63.9,29.97,ENE,68,1.6,1.6,80,0.12,,,3.98,VWS V14.01,2013-05-03 03:11:00,
2013-05-02 22:12:00,70.3,63.9,29.97,ENE,68,0.0,1.6,80,0.12,,,3.98,VWS V14.01,2013-05-03 03:12:00,
2013-05-02 22:13:00,70.3,63.9,29.97,ENE,68,0.0,1.1,80,0.12,,,3.98,VWS V14.01,2013-05-03 03:13:00,
2013-05-02 22:14:00,70.3,63.9,29.97,ENE,68,0.0,0.0,80,0.12,,,3.98,VWS V14.01,2013-05-03 03:14:00,
2013-05-02 22:15:00,70.3,63.9,29.97,ENE,68,0.0,2.0,80,0.12,,,3.98,VWS V14.01,2013-05-03 03:15:00,
2013-05-02 22:16:00,70.3,63.9,29.97,ENE,68,0.9,0.9,80,0.12,,,3.98,VWS V14.01,2013-05-03 03:16:00,
2013-05-02 22:17:00,70.2,63.7,29.97,ENE,68,2.7,2.7,80,0.12,,,3.98,VWS V14.01,2013-05-03 03:17:00,
2013-05-02 22:18:00,70.2,63.7,29.97,ENE,68,0.0,2.7,80,0.08,,,3.98,VWS V14.01,2013-05-03 03:18:00,
2013-05-02 22:19:00,70.2,63.7,29.97,ENE,68,1.3,1.3,80,0.08,,,3.98,VWS V14.01,2013-05-03 03:19:00,
2013-05-02 22:20:00,70.2,63.7,29.97,ENE,68,0.9,1.6,80,0.08,,,3.98,VWS V14.01,2013-05-03 03:20:00,
2013-05-02 22:21:00,70.2,63.7,29.97,ENE,68,0.9,1.3,80,0.08,,,3.98,VWS V14.01,2013-05-03 03:21:00,
2013-05-02 22:22:00,70.2,63.7,29.97,ENE,68,0.0,0.9,80,0.04,,,3.98,VWS V14.01,2013-05-03 03:22:00,
2013-05-02 22:23:00,70.2,63.7,29.97,ENE,68,0.0,1.3,80,0.04,,,3.98,VWS V14.01,2013-05-03 03:23:00,
2013-05-02 22:24:00,70.2,63.7,29.97,ENE,68,1.6,1.6,80,0.04,,,3.98,VWS V14.01,2013-05-03 03:24:00,
2013-05-02 22:26:00,70.2,63.7,29.97,ENE,68,2.7,2.7,80,0.04,,,3.98,VWS V14.01,2013-05-03 03:26:00,
2013-05-02 22:27:00,70.2,63.7,29.97,ENE,68,1.1,2.7,80,0.04,,,3.98,VWS V14.01,2013-05-03 03:27:00,
2013-05-02 22:28:00,70.2,63.7,29.97,ENE,68,0.0,1.1,80,0.04,,,3.98,VWS V14.01,2013-05-03 03:28:00,
2013-05-02 22:29:00,70.2,63.7,29.97,ENE,68,0.9,0.9,80,0.04,,,3.98,VWS V14.01,2013-05-03 03:29:00,
2013-05-02 22:30:00,70.2,63.7,29.97,ENE,68,2.2,2.2,80,0.04,,,3.98,VWS V14.01,2013-05-03 03:30:00,
2013-05-02 22:31:00,70.2,63.7,29.97,ENE,68,2.0,2.5,80,0.04,,,3.98,VWS V14.01,2013-05-03 03:31:00,
2013-05-02 22:32:00,70.2,63.7,29.97,ENE,68,1.6,2.0,80,0.04,,,3.98,VWS V14.01,2013-05-03 03:32:00,
2013-05-02 22:33:00,70.2,63.7,29.97,ENE,68,0.9,1.6,80,0.04,,,3.98,VWS V14.01,2013-05-03 03:33:00,
2013-05-02 22:34:00,70.2,63.7,29.97,ENE,68,1.3,1.3,80,0.04,,,3.98,VWS V14.01,2013-05-03 03:34:00,
2013-05-02 22:35:00,70.2,63.7,29.97,ENE,68,2.7,2.7,80,0.04,,,3.98,VWS V14.01,2013-05-03 03:35:00,
2013-05-02 22:36:00,70.2,63.7,29.97,ENE,68,2.7,2.7,80,0.04,,,3.98,VWS V14.01,2013-05-03 03:36:00,
2013-05-02 22:37:00,70.0,63.5,29.97,ENE,68,1.3,2.7,80,0.04,,,3.98,VWS V14.01,2013-05-03 03:37:00,
2013-05-02 22:38:00,70.0,63.2,29.97,ENE,68,0.0,1.3,79,0.04,,,3.98,VWS V14.01,2013-05-03 03:38:00,
2013-05-02 22:39:00,70.0,63.2,29.97,ENE,68,0.0,0.0,79,0.04,,,3.98,VWS V14.01,2013-05-03 03:39:00,
2013-05-02 22:40:00,70.0,63.5,29.97,ENE,68,0.0,1.3,80,0.04,,,3.98,VWS V14.01,2013-05-03 03:40:00,
2013-05-02 22:41:00,70.0,63.5,29.97,ENE,68,0.0,0.0,80,0.04,,,3.98,VWS V14.01,2013-05-03 03:41:00,
2013-05-02 22:42:00,70.0,63.5,29.97,ENE,68,0.0,1.3,80,0.04,,,3.98,VWS V14.01,2013-05-03 03:42:00,
2013-05-02 22:43:00,70.0,63.5,29.97,ENE,68,2.2,2.2,80,0.04,,,3.98,VWS V14.01,2013-05-03 03:43:00,
2013-05-02 22:44:00,70.0,63.5,29.97,ENE,68,3.1,3.1,80,0.04,,,3.98,VWS V14.01,2013-05-03 03:44:00,
2013-05-02 22:45:00,70.0,63.5,29.97,ENE,68,1.3,3.1,80,0.04,,,3.98,VWS V14.01,2013-05-03 03:45:00,
2013-05-02 22:46:00,70.0,63.5,29.97,ENE,68,1.6,2.0,80,0.04,,,3.98,VWS V14.01,2013-05-03 03:46:00,
2013-05-02 22:47:00,70.0,63.5,29.97,ENE,68,0.0,1.6,80,0.04,,,3.98,VWS V14.01,2013-05-03 03:47:00,
2013-05-02 22:48:00,70.0,63.5,29.97,ENE,68,0.0,0.0,80,0.04,,,3.98,VWS V14.01,2013-05-03 03:48:00,
2013-05-02 22:49:00,70.0,63.5,29.97,ENE,68,0.0,0.0,80,0.00,,,3.98,VWS V14.01,2013-05-03 03:49:00,
2013-05-02 22:50:00,70.0,63.5,29.97,ENE,68,1.6,1.6,80,0.00,,,3.98,VWS V14.01,2013-05-03 03:50:00,
2013-05-02 22:52:00,70.0,63.5,29.97,ENE,68,2.0,2.5,80,0.00,,,3.98,VWS V14.01,2013-05-03 03:52:00,
2013-05-02 22:53:00,70.0,63.5,29.97,ENE,68,2.9,2.9,80,0.00,,,3.98,VWS V14.01,2013-05-03 03:53:00,
2013-05-02 22:54:00,70.0,63.5,29.97,ENE,68,0.9,2.9,80,0.00,,,3.98,VWS V14.01,2013-05-03 03:54:00,
2013-05-02 22:55:00,70.0,63.2,29.97,ENE,68,1.6,1.6,79,0.00,,,3.98,VWS V14.01,2013-05-03 03:55:00,
2013-05-02 22:56:00,70.0,63.5,29.97,ENE,68,2.2,2.2,80,0.00,,,3.98,VWS V14.01,2013-05-03 03:56:00,
2013-05-02 22:57:00,70.0,63.5,29.97,ENE,68,3.1,3.1,80,0.00,,,3.98,VWS V14.01,2013-05-03 03:57:00,
2013-05-02 22:58:00,70.0,63.5,29.97,ENE,68,2.2,3.1,80,0.00,,,3.98,VWS V14.01,2013-05-03 03:58:00,
2013-05-02 22:59:00,70.0,63.5,29.97,ENE,68,2.7,2.7,80,0.00,,,3.98,VWS V14.01,2013-05-03 03:59:00,
2013-05-02 23:00:00,70.0,63.5,29.97,ENE,68,2.5,2.7,80,0.00,,,3.98,VWS V14.01,2013-05-03 04:00:00,
2013-05-02 23:01:00,70.0,63.5,29.97,ENE,68,0.0,2.5,80,0.00,,,3.98,VWS V14.01,2013-05-03 04:01:00,
2013-05-02 23:02:00,70.0,63.5,29.97,ENE,68,1.6,2.2,80,0.00,,,3.98,VWS V14.01,2013-05-03 04:02:00,
2013-05-02 23:03:00,70.0,63.5,29.94,ENE,68,2.2,2.2,80,0.00,,,3.98,VWS V14.01,2013-05-03 04:03:00,
2013-05-02 23:04:00,70.0,63.5,29.94,ENE,68,3.6,3.6,80,0.00,,,3.98,VWS V14.01,2013-05-03 04:04:00,
2013-05-02 23:05:00,70.0,63.5,29.94,ENE,68,2.7,3.6,80,0.00,,,3.98,VWS V14.01,2013-05-03 04:05:00,
2013-05-02 23:06:00,69.8,63.4,29.94,ENE,68,0.0,2.7,80,0.00,,,3.98,VWS V14.01,2013-05-03 04:06:00,
2013-05-02 23:07:00,69.8,63.4,29.94,ENE,68,1.1,2.0,80,0.00,,,3.98,VWS V14.01,2013-05-03 04:07:00,
2013-05-02 23:08:00,69.8,63.4,29.94,ENE,68,0.9,1.6,80,0.00,,,3.98,VWS V14.01,2013-05-03 04:08:00,
2013-05-02 23:09:00,69.8,63.4,29.94,ENE,68,0.0,2.0,80,0.00,,,3.98,VWS V14.01,2013-05-03 04:09:00,
2013-05-02 23:10:00,69.8,63.4,29.94,ENE,68,0.9,0.9,80,0.00,,,3.98,VWS V14.01,2013-05-03 04:10:00,
2013-05-02 23:11:00,69.8,63.4,29.94,ENE,68,2.5,2.5,80,0.00,,,3.98,VWS V14.01,2013-05-03 04:11:00,
2013-05-02 23:12:00,69.8,63.0,29.94,ENE,68,3.1,3.1,79,0.00,,,3.98,VWS V14.01,2013-05-03 04:12:00,
2013-05-02 23:13:00,69.8,63.0,29.94,ENE,68,1.1,3.1,79,0.00,,,3.98,VWS V14.01,2013-05-03 04:13:00,
2013-05-02 23:14:00,69.8,63.0,29.94,ENE,68,1.6,1.6,79,0.00,,,3.98,VWS V14.01,2013-05-03 04:14:00,
2013-05-02 23:15:00,69.8,63.0,29.94,ENE,68,1.1,1.6,79,0.00,,,3.98,VWS V14.01,2013-05-03 04:15:00,
2013-05-02 23:16:00,69.8,63.0,29.94,ENE,68,2.9,2.9,79,0.00,,,3.98,VWS V14.01,2013-05-03 04:16:00,
2013-05-02 23:17:00,69.8,63.0,29.94,ENE,68,2.5,2.9,79,0.00,,,3.98,VWS V14.01,2013-05-03 04:17:00,
2013-05-02 23:18:00,69.8,63.0,29.97,ENE,68,2.5,2.7,79,0.00,,,3.98,VWS V14.01,2013-05-03 04:18:00,
2013-05-02 23:19:00,69.6,63.2,29.97,ENE,68,2.7,2.7,80,0.00,,,3.98,VWS V14.01,2013-05-03 04:19:00,
2013-05-02 23:20:00,69.6,63.2,29.97,ENE,68,2.7,2.7,80,0.00,,,3.98,VWS V14.01,2013-05-03 04:20:00,
2013-05-02 23:21:00,69.6,63.2,29.97,ENE,68,3.6,3.8,80,0.00,,,3.98,VWS V14.01,2013-05-03 04:21:00,
2013-05-02 23:22:00,69.6,63.2,29.97,ENE,68,3.6,3.6,80,0.00,,,3.98,VWS V14.01,2013-05-03 04:22:00,
2013-05-02 23:23:00,69.6,63.2,29.97,ENE,68,3.1,3.6,80,0.00,,,3.98,VWS V14.01,2013-05-03 04:23:00,
2013-05-02 23:24:00,69.6,62.8,29.97,ENE,68,2.7,3.1,79,0.00,,,3.98,VWS V14.01,2013-05-03 04:24:00,
2013-05-02 23:25:00,69.6,62.8,29.97,ENE,68,2.5,3.1,79,0.00,,,3.98,VWS V14.01,2013-05-03 04:25:00,
2013-05-02 23:26:00,69.6,62.8,29.97,ENE,68,2.7,3.4,79,0.00,,,3.98,VWS V14.01,2013-05-03 04:26:00,
2013-05-02 23:27:00,69.6,62.8,29.97,ENE,68,2.5,3.6,79,0.00,,,3.98,VWS V14.01,2013-05-03 04:27:00,
2013-05-02 23:28:00,69.6,62.8,29.97,ENE,68,2.9,2.9,79,0.00,,,3.98,VWS V14.01,2013-05-03 04:28:00,
2013-05-02 23:29:00,69.4,62.7,29.97,ENE,68,3.1,3.1,79,0.00,,,3.98,VWS V14.01,2013-05-03 04:29:00,
2013-05-02 23:30:00,69.4,62.7,29.97,ENE,68,2.5,3.8,79,0.00,,,3.98,VWS V14.01,2013-05-03 04:30:00,
2013-05-02 23:31:00,69.4,62.7,29.97,ENE,68,2.5,2.5,79,0.00,,,3.98,VWS V14.01,2013-05-03 04:31:00,
2013-05-02 23:32:00,69.4,62.7,29.97,ENE,68,2.0,3.4,79,0.00,,,3.98,VWS V14.01,2013-05-03 04:32:00,
2013-05-02 23:33:00,69.4,62.7,29.94,ENE,68,1.1,2.9,79,0.00,,,3.98,VWS V14.01,2013-05-03 04:33:00,
2013-05-02 23:34:00,69.4,62.7,29.94,ENE,68,2.9,2.9,79,0.00,,,3.98,VWS V14.01,2013-05-03 04:34:00,
2013-05-02 23:35:00,69.4,62.7,29.94,ENE,68,3.6,3.6,79,0.00,,,3.98,VWS V14.01,2013-05-03 04:35:00,
2013-05-02 23:36:00,69.4,62.7,29.94,ENE,68,1.1,3.6,79,0.00,,,3.98,VWS V14.01,2013-05-03 04:36:00,
2013-05-02 23:37:00,69.4,62.7,29.94,NE,45,2.2,2.7,79,0.00,,,3.98,VWS V14.01,2013-05-03 04:37:00,
2013-05-02 23:38:00,69.4,62.7,29.94,NE,45,2.0,2.5,79,0.00,,,3.98,VWS V14.01,2013-05-03 04:38:00,
2013-05-02 23:39:00,69.4,62.7,29.94,NE,45,3.1,3.1,79,0.00,,,3.98,VWS V14.01,2013-05-03 04:39:00,
2013-05-02 23:40:00,69.4,62.7,29.94,NE,45,1.3,3.1,79,0.00,,,3.98,VWS V14.01,2013-05-03 04:40:00,
2013-05-02 23:41:00,69.4,62.7,29.94,NE,45,2.5,2.9,79,0.00,,,3.98,VWS V14.01,2013-05-03 04:41:00,
2013-05-02 23:42:00,69.4,62.7,29.94,NE,45,2.9,2.9,79,0.00,,,3.98,VWS V14.01,2013-05-03 04:42:00,
2013-05-02 23:43:00,69.3,62.5,29.94,NE,45,1.6,2.9,79,0.00,,,3.98,VWS V14.01,2013-05-03 04:43:00,
2013-05-02 23:44:00,69.3,62.5,29.94,NE,45,2.9,3.6,79,0.00,,,3.98,VWS V14.01,2013-05-03 04:44:00,
2013-05-02 23:45:00,69.3,62.5,29.94,NNE,22,4.7,4.7,79,0.00,,,3.98,VWS V14.01,2013-05-03 04:45:00,
2013-05-02 23:46:00,69.3,62.5,29.94,ESE,112,2.7,4.7,79,0.00,,,3.98,VWS V14.01,2013-05-03 04:46:00,
2013-05-02 23:47:00,69.3,62.5,29.94,NE,45,2.5,3.1,79,0.00,,,3.98,VWS V14.01,2013-05-03 04:47:00,
2013-05-02 23:48:00,69.3,62.5,29.94,NE,45,3.1,3.4,79,0.00,,,3.98,VWS V14.01,2013-05-03 04:48:00,
2013-05-02 23:49:00,69.3,62.5,29.94,NE,45,3.1,3.8,79,0.00,,,3.98,VWS V14.01,2013-05-03 04:49:00,
2013-05-02 23:50:00,69.3,62.5,29.94,NE,45,1.3,3.1,79,0.00,,,3.98,VWS V14.01,2013-05-03 04:50:00,
2013-05-02 23:51:00,69.3,62.5,29.94,NE,45,0.0,2.7,79,0.00,,,3.98,VWS V14.01,2013-05-03 04:51:00,
2013-05-02 23:52:00,69.3,62.5,29.94,ENE,68,2.7,2.9,79,0.00,,,3.98,VWS V14.01,2013-05-03 04:52:00,
2013-05-02 23:53:00,69.3,62.5,29.94,ENE,68,3.1,3.4,79,0.00,,,3.98,VWS V14.01,2013-05-03 04:53:00,
2013-05-02 23:54:00,69.3,62.5,29.94,ENE,68,3.1,3.1,79,0.00,,,3.98,VWS V14.01,2013-05-03 04:54:00,
2013-05-02 23:55:00,69.3,62.5,29.94,ENE,68,4.9,4.9,79,0.00,,,3.98,VWS V14.01,2013-05-03 04:55:00,
2013-05-02 23:56:00,69.1,62.3,29.94,ENE,68,1.6,4.9,79,0.00,,,3.98,VWS V14.01,2013-05-03 04:56:00,
2013-05-02 23:57:00,69.1,62.3,29.94,ENE,68,1.6,2.2,79,0.00,,,3.98,VWS V14.01,2013-05-03 04:57:00,
2013-05-02 23:58:00,69.1,62.3,29.94,ENE,68,3.1,4.0,79,0.00,,,3.98,VWS V14.01,2013-05-03 04:58:00,
2013-05-02 23:59:00,69.1,62.3,29.94,ENE,68,2.0,3.4,79,0.00,,,3.98,VWS V14.01,2013-05-03 04:59:00,